[[[{"header":{"parameterUnit":"kt","parameterCategory":2,"dx":1,"dy":1,"la1":29.587661999999998,"la2":31.0,"lo1":-88.76705300000003,"lo2":-86.6583820000003,"nx":115,"ny":88,"refTime":"2022-10-09T12:00:00:Z","depth":0,"parameterNumber":1,"parameterNumberName":"U-component_of_WINDS"},"data":[1.9086,1.9086,1.9086,1.9086,1.9086,1.9086,1.9125,1.9257,1.9752,2.0022,2.02,2.0602,2.0839,2.0839,2.0839,2.0839,2.0839,2.0853,2.0078,1.9038,1.825,1.7468,1.6692,1.5659,1.4625,1.3065,1.1499,1.0456,0.9413,0.8369,0.7585,0.7063,0.6021,0.4975,0.4451,0.4188,0.4188,0.4188,0.4188,0.4188,0.4188,0.3665,0.2617,0.157,-0.0,-0.0,-0.0,-0.0,-0.0,-0.0,-0.0,-0.0,-0.2355,-0.2879,-0.3141,-0.3141,-0.3927,-0.4188,-0.4451,-0.4451,-0.4451,-0.5235,-0.5758,-0.6279,-0.7061,-0.8105,-0.8891,-0.9938,-1.072,-1.1502,-1.2284,-1.3585,-1.463,-1.54,-1.6178,-1.7215,-1.8515,-1.9291,-2.0059,-2.0575,-2.0833,-2.0839,-2.0839,-2.076,-2.0844,-2.0597,-2.0356,-1.9758,-1.9535,-2.1088,-2.2923,-2.2899,-2.2867,-2.3062,-2.3014,-2.4949,-2.6878,-2.7548,-2.8688,-3.0579,-3.2201,-3.3325,-3.3988,-3.4432,-3.46,-3.454,-3.5722,-3.6915,-3.7405,-3.7644,-3.7644,-3.7644,-3.7644,-3.7644,-3.7644,1.9086,1.9086,1.9086,1.9086,1.9086,1.9086,1.9224,1.9501,1.9831,2.0108,2.0378,2.0701,2.082,2.0839,2.0839,2.0839,2.0839,2.0846,2.0078,1.9038,1.8515,1.7733,1.6956,1.6178,1.5145,1.3846,1.254,1.1499,1.0195,0.8891,0.811,0.7849,0.6806,0.5238,0.5236,0.4713,0.4188,0.4188,0.4188,0.4188,0.4188,0.4188,0.3927,0.2879,-0.0,-0.0,-0.0,-0.0,-0.0,-0.0,-0.0,-0.0,-0.0,-0.0,-0.0,-0.2879,-0.3665,-0.4188,-0.4188,-0.4188,-0.4451,-0.4713,-0.4975,-0.5758,-0.6279,-0.7061,-0.7847,-0.8891,-0.9935,-1.0978,-1.1756,-1.2797,-1.3846,-1.4625,-1.5664,-1.6702,-1.7997,-1.9291,-2.0065,-2.0575,-2.0833,-2.0839,-2.0839,-2.0839,-2.0655,-2.0663,-2.0376,-1.9798,-1.9749,-2.1478,-2.2719,-2.2883,-2.2875,-2.307,-2.3014,-2.4699,-2.6645,-2.7548,-2.8708,-3.0348,-3.1982,-3.3131,-3.4035,-3.4216,-3.4396,-3.4803,-3.5507,-3.6928,-3.7405,-3.7644,-3.7644,-3.7644,-3.7644,-3.7644,-3.7644,1.9086,1.9086,1.9086,1.9086,1.9086,1.9086,1.9257,1.9554,1.9857,2.0226,2.0628,2.0767,2.0839,2.0839,2.0839,2.0839,2.0839,2.0839,2.0065,1.9555,1.8774,1.7992,1.7215,1.6697,1.5924,1.5145,1.3841,1.2276,1.0974,0.9674,0.8633,0.811,0.7324,0.6281,0.5238,0.4975,0.4713,0.4188,0.4188,0.4188,0.4188,0.4188,0.4188,0.4188,0.2879,-0.0,-0.0,-0.0,-0.0,-0.0,-0.0,-0.0,-0.0,-0.0,-0.0,-0.0,-0.3141,-0.4188,-0.4188,-0.4188,-0.4188,-0.4451,-0.4975,-0.5236,-0.5758,-0.6277,-0.7061,-0.7847,-0.9152,-1.0195,-1.1235,-1.2276,-1.3321,-1.4366,-1.5405,-1.6178,-1.7474,-1.8774,-1.9549,-2.0324,-2.0582,-2.0839,-2.0839,-2.0833,-2.0714,-2.0717,-2.0673,-2.0342,-2.0769,-2.1955,-2.2278,-2.2648,-2.2883,-2.2852,-2.3272,-2.4699,-2.6393,-2.7567,-2.8738,-3.039,-3.2279,-3.3188,-3.4058,-3.3976,-3.4145,-3.4576,-3.552,-3.694,-3.7418,-3.7644,-3.7644,-3.7644,-3.7644,-3.7644,-3.7644,1.9086,1.9086,1.9086,1.9086,1.9086,1.9086,1.9297,1.9659,1.9956,2.0371,2.0773,2.0833,2.0839,2.0839,2.0839,2.0839,2.0839,2.0839,2.0324,1.9807,1.9038,1.8256,1.7727,1.6951,1.6178,1.5659,1.4881,1.3841,1.2276,1.0714,0.941,0.863,0.7847,0.7063,0.6021,0.5238,0.4975,0.4713,0.4713,0.4451,0.4451,0.4188,0.4188,0.4188,0.3665,0.2355,-0.0,-0.0,-0.0,-0.0,-0.0,-0.0,-0.0,-0.0,-0.0,-0.0,-0.1832,-0.3141,-0.3665,-0.3927,-0.3927,-0.4188,-0.4713,-0.4975,-0.5236,-0.5756,-0.6277,-0.7322,-0.8369,-0.9413,-1.0456,-1.1756,-1.2801,-1.4101,-1.5145,-1.5919,-1.6692,-1.7733,-1.9038,-1.9549,-2.0324,-2.0582,-2.0839,-2.0787,-2.0701,-2.0757,-2.074,-2.0922,-2.1352,-2.15,-2.182,-2.1935,-2.2406,-2.3102,-2.353,-2.4699,-2.6142,-2.7334,-2.8758,-3.0663,-3.2576,-3.2969,-3.3337,-3.3724,-3.4145,-3.4827,-3.5532,-3.694,-3.7418,-3.7644,-3.7644,-3.7644,-3.7644,-3.7644,-3.7644,1.9086,1.9086,1.9086,1.9086,1.9086,1.9112,1.9422,1.9949,2.022,2.0536,2.0787,2.0839,2.0839,2.0839,2.0839,2.0839,2.0839,2.0833,2.0582,1.9807,1.9297,1.8515,1.7986,1.6951,1.6438,1.5919,1.54,1.4621,1.3317,1.1752,1.045,0.9407,0.8627,0.7849,0.7065,0.6021,0.5498,0.5496,0.5235,0.4975,0.445,0.4188,0.4188,0.4188,0.3403,0.2879,0.3403,0.3403,-0.0,-0.0,-0.0,-0.0,-0.0,-0.0,-0.0,-0.0,-0.0,-0.0,-0.2879,-0.3403,-0.3403,-0.3927,-0.4451,-0.4713,-0.4975,-0.5496,-0.5754,-0.6538,-0.7847,-0.8891,-1.0195,-1.1238,-1.254,-1.3841,-1.4625,-1.5405,-1.6173,-1.721,-1.8256,-1.9555,-2.0072,-2.0839,-2.0839,-2.0833,-2.0747,-2.0924,-2.0923,-2.0806,-2.0958,-2.1073,-2.1131,-2.1215,-2.2163,-2.311,-2.3539,-2.4707,-2.6142,-2.7344,-2.8778,-3.0442,-3.1598,-3.2235,-3.2616,-3.3279,-3.3929,-3.4612,-3.5532,-3.6714,-3.7657,-3.7657,-3.7644,-3.7644,-3.7644,-3.7644,-3.7644,1.9086,1.9086,1.9086,1.9086,1.9119,1.9284,1.9587,1.9982,2.0272,2.0563,2.082,2.0839,2.0839,2.0839,2.0839,2.0839,2.0839,2.0833,2.0575,2.0065,1.9807,1.9026,1.825,1.7727,1.6951,1.6438,1.5919,1.514,1.3841,1.2536,1.1491,1.045,0.9407,0.863,0.7849,0.7065,0.654,0.6279,0.6017,0.5496,0.5236,0.4975,0.4713,0.4188,0.3927,0.3665,0.4188,0.4188,0.2617,-0.0,-0.0,-0.0,-0.0,-0.0,-0.0,-0.0,-0.0,-0.0,-0.1832,-0.2617,-0.3665,-0.4188,-0.4188,-0.4451,-0.4713,-0.4975,-0.5495,-0.6016,-0.7324,-0.8369,-0.9677,-1.0981,-1.228,-1.3841,-1.4366,-1.5145,-1.5919,-1.6692,-1.7733,-1.9038,-1.9814,-2.0582,-2.0839,-2.0839,-2.0793,-2.0937,-2.071,-2.0612,-2.0519,-2.0615,-2.0844,-2.0979,-2.1928,-2.311,-2.3797,-2.4716,-2.5909,-2.7092,-2.8526,-2.9464,-3.0379,-3.1281,-3.2661,-3.3314,-3.3964,-3.4636,-3.5305,-3.6714,-3.767,-3.7657,-3.7644,-3.7644,-3.7644,-3.7644,-3.7644,1.9086,1.9086,1.9086,1.9086,1.9132,1.9409,1.9758,2.0121,2.0398,2.0622,2.0839,2.0839,2.0839,2.0839,2.0839,2.0839,2.0839,2.0839,2.0839,2.0582,2.0065,1.9555,1.9032,1.7986,1.7468,1.6951,1.6438,1.5664,1.4625,1.3321,1.2536,1.1495,1.0453,0.941,0.8891,0.8105,0.7847,0.7585,0.6799,0.6279,0.5758,0.5236,0.4975,0.4713,0.4188,0.4188,0.4188,0.4188,0.3665,0.1832,-0.0,-0.0,-0.0,-0.0,-0.0,-0.0,-0.0,-0.0,-0.0,-0.2617,-0.3927,-0.3665,-0.3927,-0.4188,-0.4451,-0.4713,-0.5235,-0.6016,-0.6797,-0.8105,-0.9413,-1.0456,-1.1763,-1.3061,-1.4106,-1.4885,-1.5664,-1.6697,-1.7474,-1.8774,-1.9297,-2.0065,-2.0839,-2.0839,-2.08,-2.093,-2.0717,-2.0147,-2.0043,-2.0334,-2.0787,-2.0986,-2.192,-2.286,-2.3789,-2.4724,-2.5667,-2.685,-2.8022,-2.896,-2.9906,-3.1083,-3.2465,-3.3142,-3.3543,-3.4204,-3.533,-3.6488,-3.767,-3.767,-3.7657,-3.7644,-3.7644,-3.7644,-3.7644,1.9086,1.9086,1.9086,1.9086,1.9138,1.9409,1.9844,2.0371,2.0681,2.0813,2.0839,2.0839,2.0839,2.0839,2.0839,2.0839,2.0839,2.0839,2.0839,2.0582,2.0324,2.0065,1.9285,1.8503,1.798,1.7463,1.6951,1.6438,1.5664,1.4621,1.3061,1.2016,1.1495,1.0714,0.9931,0.941,0.9152,0.863,0.7844,0.7063,0.654,0.5758,0.5498,0.4975,0.4713,0.4451,0.4188,0.4188,0.3927,0.3927,0.3665,0.2355,-0.0,-0.0,-0.0,-0.0,-0.0,-0.0,-0.0,-0.0,-0.314,-0.3141,-0.3665,-0.3927,-0.4188,-0.445,-0.4973,-0.5756,-0.6275,-0.7842,-0.9149,-1.0195,-1.0981,-1.228,-1.3585,-1.4625,-1.5664,-1.6438,-1.7474,-1.8256,-1.9032,-1.9807,-2.0582,-2.0839,-2.082,-2.0655,-2.0663,-1.9872,-1.9598,-2.0129,-2.0779,-2.0972,-2.1678,-2.2617,-2.3555,-2.4499,-2.5676,-2.6636,-2.7567,-2.8728,-2.9927,-3.1115,-3.2005,-3.2901,-3.3108,-3.3771,-3.4648,-3.6022,-3.7218,-3.767,-3.7657,-3.7657,-3.7644,-3.7644,-3.7644,1.9086,1.9086,1.9086,1.9086,1.9138,1.9409,1.9752,2.016,2.0622,2.0839,2.0839,2.0839,2.0839,2.0839,2.0839,2.0839,2.0839,2.0839,2.0839,2.0839,2.0575,2.0324,1.9807,1.9291,1.8503,1.7722,1.7204,1.6692,1.5924,1.5405,1.4621,1.3321,1.254,1.202,1.1495,1.0974,1.0456,0.9674,0.8888,0.8369,0.7585,0.6804,0.6283,0.5498,0.4975,0.4713,0.4451,0.4188,0.4188,0.4188,0.4188,0.3665,0.2617,-0.0,-0.0,-0.0,-0.0,-0.0,-0.0,-0.0,-0.2355,-0.2879,-0.2879,-0.3403,-0.4188,-0.4188,-0.4973,-0.5496,-0.6016,-0.7061,-0.863,-0.9935,-1.0978,-1.1756,-1.3321,-1.4625,-1.5405,-1.6178,-1.721,-1.7992,-1.8774,-1.9549,-2.0582,-2.0582,-2.0839,-2.0609,-2.061,-1.9904,-1.9417,-1.9943,-2.0515,-2.0972,-2.167,-2.2375,-2.3312,-2.4249,-2.5209,-2.6412,-2.7586,-2.8748,-2.9927,-3.0631,-3.1522,-3.242,-3.2867,-3.3302,-3.442,-3.5342,-3.6765,-3.7469,-3.7682,-3.7657,-3.7644,-3.7644,-3.7644,1.9086,1.9086,1.9086,1.9086,1.9152,1.9514,1.9791,2.0068,2.0556,2.0839,2.0839,2.0839,2.0839,2.0839,2.0839,2.0839,2.0839,2.0839,2.0839,2.0839,2.0839,2.0582,2.0065,1.9807,1.9285,1.8503,1.7722,1.721,1.6438,1.5924,1.5405,1.4885,1.3846,1.359,1.3325,1.228,1.1499,1.0717,1.0195,0.941,0.863,0.811,0.7065,0.6019,0.5756,0.5235,0.4713,0.4713,0.4451,0.4188,0.4188,0.4188,0.3665,0.2879,-0.0,-0.0,-0.0,-0.0,-0.0,-0.0,-0.0,-0.2094,-0.2879,-0.3665,-0.4188,-0.4188,-0.4713,-0.5236,-0.5756,-0.6799,-0.8108,-0.9413,-1.0456,-1.1495,-1.2797,-1.4101,-1.5145,-1.5919,-1.6951,-1.7733,-1.8515,-1.9549,-2.0065,-2.0324,-2.0839,-2.0668,-2.0312,-1.9833,-1.9183,-1.9736,-2.0508,-2.0729,-2.1435,-2.2132,-2.2594,-2.328,-2.4223,-2.6169,-2.7605,-2.8758,-2.9443,-3.0148,-3.105,-3.2179,-3.2627,-3.3074,-3.3736,-3.4648,-3.6085,-3.703,-3.7469,-3.7682,-3.7657,-3.7644,-3.7644,1.9086,1.9086,1.9086,1.9099,1.9198,1.9732,1.9989,2.0108,2.0602,2.0839,2.0839,2.0839,2.0839,2.0839,2.0839,2.0839,2.0839,2.0839,2.0839,2.0839,2.0839,2.0839,2.0582,2.0324,1.9807,1.9543,1.8762,1.798,1.7463,1.6692,1.5919,1.54,1.5145,1.489,1.5405,1.3585,1.228,1.1495,1.0978,1.0192,0.9413,0.8891,0.811,0.7324,0.6538,0.6017,0.5496,0.5236,0.4975,0.4451,0.4451,0.4188,0.4188,0.3927,0.2617,0.0785,-0.0,-0.0,-0.0,-0.0,-0.0,-0.0,-0.314,-0.3665,-0.3927,-0.4188,-0.4451,-0.4973,-0.5756,-0.6536,-0.7583,-0.9152,-0.9935,-1.0978,-1.2536,-1.3837,-1.4621,-1.54,-1.6432,-1.7468,-1.8256,-1.9038,-1.9807,-2.0324,-2.0582,-2.0661,-2.0279,-1.9794,-1.9404,-1.9547,-2.0085,-2.0729,-2.1207,-2.1913,-2.2617,-2.2812,-2.3748,-2.5936,-2.7381,-2.8303,-2.9222,-2.9665,-3.0568,-3.1949,-3.2386,-3.2604,-3.3279,-3.3964,-3.466,-3.5354,-3.6287,-3.7457,-3.7657,-3.7644,-3.7644,1.9086,1.9086,1.9086,1.9211,1.9442,1.9824,2.0336,2.0312,2.0675,2.0839,2.0839,2.0839,2.0839,2.0839,2.0839,2.0839,2.0839,2.0839,2.0839,2.0839,2.0839,2.0839,2.0839,2.0588,2.033,1.9814,1.9291,1.8503,1.798,1.7204,1.6951,1.6432,1.6173,1.5924,1.5659,1.4101,1.3317,1.2797,1.2016,1.0974,1.071,0.9671,0.8888,0.8108,0.7583,0.6802,0.6017,0.5496,0.5236,0.4975,0.4713,0.4451,0.4188,0.4188,0.3927,0.3403,-0.0,-0.0,-0.0,-0.0,-0.0,-0.0,-0.2617,-0.3141,-0.3403,-0.3665,-0.4188,-0.4712,-0.5493,-0.6275,-0.6536,-0.8366,-0.9674,-1.0717,-1.2276,-1.3057,-1.3841,-1.4885,-1.5919,-1.721,-1.7733,-1.8515,-1.9291,-2.0078,-2.0336,-2.0484,-2.0352,-2.0061,-1.9366,-1.9501,-1.9855,-2.0501,-2.0972,-2.1928,-2.2648,-2.3078,-2.3522,-2.5702,-2.6906,-2.7828,-2.8496,-2.9171,-3.0075,-3.1249,-3.1927,-3.2364,-3.2811,-3.3496,-3.3713,-3.3929,-3.5342,-3.6752,-3.7192,-3.7657,-3.7657,1.9086,1.9086,1.9086,1.9264,1.956,2.0109,2.039,2.0417,2.0701,2.0839,2.0839,2.0839,2.0839,2.0839,2.0839,2.0839,2.0839,2.0839,2.0839,2.0839,2.0839,2.0839,2.0839,2.0839,2.0582,2.0324,1.9814,1.9291,1.8497,1.7722,1.7468,1.7474,1.721,1.6956,1.6178,1.5395,1.4361,1.3841,1.3057,1.2016,1.1756,1.071,0.9668,0.8891,0.8366,0.7583,0.6799,0.6279,0.5758,0.5235,0.4975,0.4451,0.4451,0.4188,0.4188,0.3927,0.3927,0.3403,-0.0,-0.0,-0.0,-0.0,-0.0,-0.2617,-0.2355,-0.3403,-0.4188,-0.445,-0.5233,-0.6016,-0.6277,-0.7844,-0.9413,-1.0456,-1.1499,-1.228,-1.3065,-1.4366,-1.5664,-1.6697,-1.7474,-1.825,-1.9038,-1.9826,-2.0078,-2.0542,-2.0417,-2.0055,-1.9481,-1.9143,-1.9666,-2.0272,-2.0736,-2.1457,-2.1913,-2.2609,-2.353,-2.4975,-2.6421,-2.6859,-2.7297,-2.8205,-2.9382,-3.0788,-3.1709,-3.1905,-3.2353,-3.2811,-3.3508,-3.3964,-3.4899,-3.606,-3.6979,-3.7682,-3.767,1.9086,1.9092,1.9112,1.931,1.9607,2.0136,2.043,2.049,2.0727,2.0833,2.0839,2.0839,2.0839,2.0839,2.0839,2.0839,2.0839,2.0839,2.0839,2.0839,2.0839,2.0839,2.0839,2.0839,2.0839,2.0582,2.0324,2.0065,1.9543,1.8503,1.8509,1.878,1.7992,1.7727,1.7204,1.6432,1.5659,1.4625,1.3841,1.3321,1.254,1.1756,1.071,0.9928,0.941,0.8888,0.7583,0.7324,0.6802,0.576,0.5236,0.4975,0.4451,0.4451,0.4188,0.4188,0.4188,0.4188,0.3403,-0.0,-0.0,-0.0,-0.0,-0.1047,-0.2617,-0.3665,-0.4188,-0.445,-0.4975,-0.5496,-0.6538,-0.7583,-0.8891,-0.9935,-1.0978,-1.1759,-1.2805,-1.4106,-1.5145,-1.6438,-1.7215,-1.7727,-1.8515,-1.8774,-1.9026,-1.9913,-2.008,-2.0101,-1.9501,-1.9117,-1.9652,-2.0037,-2.0501,-2.0965,-2.1185,-2.189,-2.3062,-2.4265,-2.5945,-2.6393,-2.6581,-2.7751,-2.894,-3.0106,-3.1259,-3.1676,-3.2113,-3.2571,-3.3028,-3.3988,-3.4935,-3.587,-3.679,-3.7218,-3.7418,1.9086,1.9112,1.9084,1.9344,1.9897,2.0423,2.0703,2.0714,2.0806,2.0839,2.0839,2.0839,2.0839,2.0839,2.0839,2.0839,2.0839,2.0839,2.0839,2.0839,2.0839,2.0839,2.0839,2.0839,2.0839,2.0839,2.0582,2.033,1.9807,1.9549,1.9291,1.9555,1.8768,1.8245,1.7722,1.7204,1.6438,1.5664,1.4881,1.4101,1.3321,1.2801,1.1759,1.0974,1.0453,0.9671,0.8888,0.8369,0.7847,0.6804,0.6021,0.5236,0.4975,0.4713,0.4451,0.4188,0.4188,0.4188,0.3927,0.3403,0.2094,-0.0,-0.0,-0.1047,-0.3141,-0.3927,-0.4188,-0.4188,-0.4975,-0.5496,-0.6277,-0.7061,-0.8369,-0.9674,-1.0717,-1.1499,-1.254,-1.3846,-1.5145,-1.6178,-1.6951,-1.7468,-1.7727,-1.798,-1.8415,-1.9289,-1.9854,-2.0134,-1.9745,-1.9064,-1.9395,-1.9801,-2.0501,-2.0972,-2.1428,-2.1897,-2.2601,-2.3797,-2.5486,-2.6421,-2.685,-2.7538,-2.8476,-2.9403,-3.0557,-3.1227,-3.1665,-3.2101,-3.2548,-3.3519,-3.4719,-3.5667,-3.6349,-3.674,-3.694,1.9086,1.9119,1.9156,1.9455,2.0002,2.0537,2.0824,2.0793,2.0839,2.0839,2.0839,2.0839,2.0839,2.0839,2.0839,2.0839,2.0839,2.0839,2.0839,2.0839,2.0839,2.0839,2.0839,2.0839,2.0839,2.0839,2.0839,2.0582,2.0324,2.0324,2.033,2.0072,1.9555,1.9026,1.8762,1.798,1.721,1.6697,1.5924,1.514,1.4361,1.3581,1.2805,1.202,1.1235,1.0453,0.9931,0.9155,0.8369,0.7847,0.6804,0.6019,0.5236,0.4975,0.4451,0.4451,0.4188,0.4188,0.4188,0.4188,0.2617,-0.0,-0.0,-0.0,-0.3403,-0.3665,-0.3403,-0.4188,-0.4713,-0.5235,-0.6016,-0.6536,-0.8103,-0.941,-1.0195,-1.0978,-1.1763,-1.3321,-1.4621,-1.5395,-1.6173,-1.6692,-1.6951,-1.7182,-1.7878,-1.8701,-1.9218,-1.9481,-1.9377,-1.9019,-1.9382,-1.9565,-2.0265,-2.0736,-2.12,-2.1913,-2.2617,-2.3321,-2.501,-2.5954,-2.6626,-2.7315,-2.8012,-2.894,-2.9865,-3.0536,-3.1216,-3.1665,-3.2364,-3.3543,-3.4491,-3.5212,-3.5907,-3.6299,-3.6488,1.9086,1.9119,1.896,1.9488,2.0009,2.059,2.087,2.0826,2.0839,2.0839,2.0839,2.0839,2.0839,2.0839,2.0839,2.0839,2.0839,2.0839,2.0839,2.0839,2.0839,2.0839,2.0839,2.0839,2.0839,2.0839,2.0839,2.0839,2.0839,2.0839,2.0839,2.0582,2.0065,1.9807,1.9543,1.8762,1.7986,1.7722,1.721,1.6438,1.5919,1.4621,1.3585,1.2801,1.2016,1.1495,1.0717,0.9931,0.941,0.863,0.7847,0.6804,0.5758,0.5498,0.4975,0.4713,0.4451,0.4188,0.4188,0.3927,0.2617,-0.0,-0.0,-0.0,-0.2355,-0.2617,-0.2879,-0.4188,-0.4188,-0.471,-0.5754,-0.6275,-0.7319,-0.8627,-0.9935,-1.046,-1.0981,-1.254,-1.4361,-1.5135,-1.54,-1.5914,-1.6349,-1.6591,-1.7057,-1.7829,-1.857,-1.905,-1.9012,-1.9012,-1.9329,-1.9565,-2.0037,-2.0258,-2.0722,-2.192,-2.2625,-2.2844,-2.4274,-2.5226,-2.616,-2.7102,-2.7799,-2.8476,-2.9171,-3.0086,-3.0264,-3.1195,-3.2386,-3.3325,-3.4023,-3.4731,-3.5452,-3.5858,-3.6022,1.9086,1.9132,1.916,1.9417,2.0061,2.053,2.0787,2.0826,2.0839,2.0839,2.0839,2.0839,2.0839,2.0839,2.0839,2.0839,2.0839,2.0839,2.0839,2.0839,2.0839,2.0826,2.0833,2.0839,2.0806,2.0773,2.078,2.0839,2.0767,2.0787,2.082,2.0806,2.0568,2.0324,1.9807,1.9291,1.9038,1.8515,1.7992,1.7463,1.6951,1.5919,1.4881,1.3577,1.3317,1.2536,1.1495,1.0971,1.0189,0.941,0.863,0.7849,0.6802,0.5758,0.5236,0.4975,0.4451,0.4451,0.3927,0.3403,0.3141,0.2879,0.1309,-0.0,-0.1047,-0.2094,-0.2879,-0.3927,-0.4188,-0.4712,-0.5495,-0.6016,-0.7058,-0.8369,-0.9677,-1.0717,-1.0978,-1.2016,-1.3837,-1.4361,-1.4625,-1.5064,-1.5667,-1.612,-1.6516,-1.7286,-1.7619,-1.8107,-1.8631,-1.8658,-1.9092,-1.9329,-1.9558,-1.978,-2.0487,-2.145,-2.2641,-2.3094,-2.404,-2.4993,-2.5936,-2.6645,-2.7334,-2.8012,-2.8708,-2.9151,-2.9311,-2.9752,-3.1676,-3.3119,-3.3783,-3.4468,-3.5187,-3.5618,-3.5808,1.9171,1.911,1.9037,1.9546,2.0246,2.0661,2.0839,2.0839,2.0839,2.0839,2.0839,2.0839,2.0839,2.0839,2.0839,2.0839,2.0839,2.0839,2.0839,2.0839,2.0826,2.078,2.0622,2.0615,2.0622,2.0589,2.0483,2.0404,2.0437,2.0549,2.0609,2.0648,2.078,2.0575,2.0317,2.0065,1.9555,1.9297,1.8515,1.7992,1.7463,1.7204,1.5914,1.4876,1.4101,1.3317,1.2532,1.2016,1.0974,0.9935,0.9149,0.8369,0.7585,0.6804,0.6281,0.5756,0.5235,0.4713,0.4188,0.3665,0.3403,0.3927,0.3141,0.157,-0.0,-0.1832,-0.3403,-0.4188,-0.4188,-0.4451,-0.5236,-0.5754,-0.6797,-0.7847,-0.9152,-0.9935,-1.0717,-1.1756,-1.2797,-1.3325,-1.3491,-1.386,-1.4728,-1.5605,-1.6226,-1.6573,-1.691,-1.7455,-1.8216,-1.8626,-1.9106,-1.9099,-1.9322,-1.9309,-1.9773,-2.1457,-2.2907,-2.3126,-2.3822,-2.4759,-2.546,-2.5927,-2.6617,-2.7548,-2.8003,-2.8457,-2.886,-2.9291,-3.1457,-3.3383,-3.3818,-3.4263,-3.4719,-3.5391,-3.582,1.9264,1.9318,1.9353,1.9623,2.0411,2.0708,2.0839,2.0839,2.0839,2.0839,2.0839,2.0839,2.0839,2.0839,2.0839,2.0839,2.0839,2.0826,2.08,2.0727,2.0714,2.0576,2.0378,2.0332,2.053,2.045,2.0558,2.049,2.0578,2.045,2.061,2.0444,2.0628,2.0793,2.0555,2.0324,2.0072,1.9807,1.9291,1.8768,1.8245,1.7722,1.6945,1.5659,1.4621,1.3837,1.3317,1.2536,1.1495,1.0717,0.9931,0.8888,0.8108,0.7585,0.7061,0.6538,0.5758,0.4975,0.4451,0.4188,0.4188,0.4188,0.3927,0.2879,0.0262,-0.2355,-0.3927,-0.4188,-0.4188,-0.4188,-0.4975,-0.5495,-0.6277,-0.7322,-0.8369,-0.9413,-0.9922,-1.0656,-1.1375,-1.216,-1.2302,-1.2424,-1.3802,-1.4916,-1.5277,-1.5624,-1.6006,-1.6597,-1.7449,-1.8166,-1.8639,-1.8863,-1.9092,-1.9073,-1.9059,-2.0994,-2.2436,-2.2641,-2.3353,-2.429,-2.4993,-2.5209,-2.59,-2.6608,-2.7297,-2.7993,-2.8659,-2.9091,-3.0735,-3.2146,-3.3108,-3.407,-3.4503,-3.4923,-3.5354,1.9264,1.9554,1.9857,2.0141,2.0417,2.0708,2.0839,2.0839,2.0839,2.0839,2.0839,2.0839,2.0839,2.0839,2.0839,2.0839,2.0839,2.0826,2.0688,2.0523,2.0483,2.0543,2.0336,2.0236,2.0389,2.1131,2.1067,2.1202,2.1112,2.1019,2.0867,2.11,2.0956,2.085,2.0787,2.0575,2.0582,2.0582,2.0065,1.9549,1.9285,1.8245,1.721,1.6178,1.5405,1.4881,1.3837,1.3313,1.2532,1.1491,1.0717,0.9935,0.9149,0.8627,0.7847,0.7319,0.5998,0.5213,0.4948,0.4436,0.4178,0.4188,0.4184,0.2876,0.0261,-0.2086,-0.3649,-0.3653,-0.3651,-0.3389,-0.4187,-0.4954,-0.574,-0.6526,-0.7578,-0.8371,-0.8857,-0.9213,-1.0175,-1.0936,-1.0858,-1.148,-1.2855,-1.3991,-1.4342,-1.4944,-1.5137,-1.5799,-1.6749,-1.7455,-1.8166,-1.8626,-1.862,-1.885,-1.9079,-2.0522,-2.0986,-2.1685,-2.2883,-2.3822,-2.4533,-2.475,-2.52,-2.59,-2.6841,-2.7538,-2.8225,-2.9121,-3.0013,-3.0671,-3.1872,-3.3348,-3.4263,-3.4696,-3.5127,1.9508,1.9798,2.0336,2.0623,2.0628,2.0773,2.0839,2.0839,2.0839,2.0839,2.0839,2.0839,2.0839,2.0839,2.0839,2.0839,2.0839,2.0833,2.0675,2.0663,2.072,2.0758,2.0756,2.079,2.0657,2.1002,2.1204,2.1269,2.145,2.1352,2.1287,2.1154,2.1504,2.1195,2.083,2.1267,2.107,2.0826,2.0582,2.0065,1.9807,1.9032,1.825,1.6956,1.5919,1.54,1.4616,1.3832,1.2793,1.2276,1.1759,1.1238,1.0446,0.9609,0.8542,0.7747,0.6433,0.5632,0.512,0.4607,0.4098,0.4093,0.3327,0.2559,0.1792,-0.0512,-0.2305,-0.3586,-0.3843,-0.3329,-0.4094,-0.4865,-0.5117,-0.5884,-0.6904,-0.7396,-0.7623,-0.8612,-0.9583,-0.9472,-0.9679,-1.0562,-1.1445,-1.2351,-1.2981,-1.4177,-1.4604,-1.4589,-1.5539,-1.7223,-1.7692,-1.8159,-1.839,-1.862,-1.8856,-1.9322,-1.9787,-2.0736,-2.217,-2.3361,-2.4299,-2.4282,-2.4491,-2.5192,-2.6133,-2.7074,-2.7761,-2.9161,-3.0054,-3.0965,-3.1905,-3.2867,-3.3818,-3.4468,-3.4911,1.9712,2.0009,2.0537,2.083,2.0813,2.0839,2.0839,2.0839,2.0839,2.0839,2.0839,2.0839,2.0839,2.0839,2.0839,2.0839,2.0839,2.082,2.0924,2.0862,2.1054,2.1188,2.1603,2.1628,2.148,2.1472,2.1457,2.1465,2.1517,2.15,2.1385,2.1508,2.1935,2.1733,2.1323,2.1579,2.151,2.1004,2.0813,2.0575,2.0065,1.9807,1.9285,1.8245,1.6692,1.5914,1.54,1.4092,1.3292,1.3003,1.2699,1.2129,1.1339,1.0244,0.9183,0.8144,0.7069,0.6026,0.527,0.4778,0.4267,0.4024,0.3273,0.2759,0.3515,0.1258,-0.1006,-0.2763,-0.4019,-0.4029,-0.428,-0.4519,-0.478,-0.5282,-0.6021,-0.6477,-0.6665,-0.7956,-0.868,-0.8587,-0.8778,-0.9708,-1.1046,-1.1756,-1.2707,-1.3404,-1.3633,-1.3385,-1.4822,-1.6511,-1.7223,-1.7449,-1.7916,-1.814,-1.8377,-1.8843,-1.9309,-1.978,-2.17,-2.3377,-2.383,-2.404,-2.4265,-2.4958,-2.5667,-2.6348,-2.7027,-2.8196,-3.0127,-3.105,-3.2212,-3.289,-3.3566,-3.4251,-3.4911,1.9712,2.0009,2.0543,2.083,2.0813,2.0839,2.0839,2.0839,2.0839,2.0839,2.0839,2.0839,2.0839,2.0839,2.0839,2.0839,2.0839,2.1044,2.1118,2.1282,2.1589,2.1879,2.2552,2.2672,2.2641,2.2641,2.2648,2.2648,2.2429,2.2193,2.214,2.2382,2.1757,2.1984,2.2022,2.1811,2.1441,2.1243,2.0917,2.0773,2.0529,2.0053,1.9807,1.9285,1.7986,1.6951,1.6178,1.5112,1.4777,1.5122,1.3668,1.2619,1.1837,1.0819,0.9792,0.8781,0.7756,0.6494,0.6011,0.5244,0.4754,0.3997,0.375,0.3764,0.3252,0.1749,-0.0,-0.0999,-0.2761,-0.3753,-0.4,-0.4256,-0.4498,-0.4985,-0.5211,-0.5395,-0.5566,-0.6749,-0.7717,-0.7688,-0.7688,-0.8644,-1.0306,-1.1986,-1.295,-1.2928,-1.2919,-1.3152,-1.4351,-1.5799,-1.6511,-1.698,-1.7443,-1.7667,-1.814,-1.8377,-1.8843,-1.9309,-2.1229,-2.2186,-2.2633,-2.3337,-2.3797,-2.4491,-2.5192,-2.564,-2.6312,-2.7993,-3.0169,-3.1346,-3.2257,-3.2683,-3.2856,-3.3771,-3.4468,1.987,2.0022,2.047,2.0727,2.0826,2.0839,2.0839,2.0839,2.0839,2.0839,2.0839,2.0839,2.0839,2.0839,2.1097,2.1355,2.1328,2.1931,2.1938,2.1861,2.2161,2.2507,2.2954,2.3337,2.3337,2.3337,2.3329,2.3337,2.3337,2.2875,2.2711,2.2883,2.2568,2.248,2.2426,2.2218,2.2138,2.1698,2.1434,2.1085,2.1112,2.0747,2.0298,1.9807,1.9291,1.8509,1.7452,1.5783,1.5112,1.4932,1.4066,1.3267,1.2507,1.1186,1.0387,0.9394,0.8095,0.684,0.611,0.5377,0.4644,0.4159,0.3913,0.3425,0.2939,0.2692,0.1223,0.0245,-0.0978,-0.2447,-0.3426,-0.3914,-0.4157,-0.4406,-0.4387,-0.4602,-0.4803,-0.5754,-0.6235,-0.6715,-0.6949,-0.7186,-0.9105,-1.1023,-1.1743,-1.1978,-1.2204,-1.268,-1.3875,-1.508,-1.6279,-1.6511,-1.698,-1.72,-1.7431,-1.8383,-1.8863,-1.9086,-2.0279,-2.0744,-2.1442,-2.2163,-2.3086,-2.3781,-2.4482,-2.5174,-2.5614,-2.6785,-2.897,-3.1136,-3.2543,-3.2969,-3.2901,-3.3325,-3.4251,1.991,2.0035,2.0516,2.0767,2.0833,2.0839,2.0839,2.0839,2.0839,2.0839,2.0839,2.0839,2.0839,2.1091,2.1612,2.1863,2.2307,2.3094,2.301,2.242,2.2744,2.3104,2.3385,2.3797,2.4023,2.4023,2.4015,2.4023,2.4023,2.3571,2.3596,2.3604,2.3357,2.2992,2.2568,2.2624,2.2539,2.1856,2.1634,2.1539,2.1323,2.1004,2.0609,1.985,1.9575,1.9314,1.9059,1.6591,1.5139,1.4946,1.4383,1.3857,1.3083,1.1755,1.072,0.9732,0.8445,0.7433,0.624,0.5522,0.4801,0.4321,0.4094,0.3362,0.2641,0.3363,0.2882,0.1681,0.024,-0.0961,-0.2403,-0.3366,-0.3606,-0.3602,-0.385,-0.4085,-0.4558,-0.4796,-0.5275,-0.5996,-0.5992,-0.671,-0.8145,-0.9825,-1.1023,-1.1019,-1.125,-1.1481,-1.2919,-1.4361,-1.5804,-1.6036,-1.6268,-1.6489,-1.6963,-1.8159,-1.8876,-1.8856,-1.9329,-1.9794,-2.0744,-2.1457,-2.2382,-2.3312,-2.4006,-2.4465,-2.4906,-2.5829,-2.7993,-3.0189,-3.1829,-3.3015,-3.2935,-3.3108,-3.4046,1.9725,2.0015,2.0041,2.0308,2.08,2.0813,2.082,2.0839,2.0839,2.0839,2.0839,2.0839,2.1097,2.1606,2.187,2.2356,2.309,2.4068,2.3969,2.3287,2.3,2.3604,2.4265,2.4491,2.4491,2.4724,2.4724,2.4724,2.4724,2.4491,2.4733,2.475,2.4089,2.3838,2.3709,2.2761,2.245,2.2262,2.205,2.1478,2.1238,2.1054,2.0571,2.0081,1.9584,1.9335,1.9354,1.7765,1.6376,1.5413,1.4765,1.4221,1.3225,1.2246,1.0818,0.9619,0.8878,0.7912,0.6954,0.6235,0.5515,0.4796,0.432,0.3842,0.3602,0.3842,0.3602,0.3122,0.1441,0.024,-0.048,-0.2161,-0.3122,-0.2401,-0.3362,-0.3842,-0.4081,-0.4558,-0.5036,-0.5036,-0.5515,-0.6233,-0.743,-0.8869,-0.9825,-1.0299,-1.0057,-1.0527,-1.1723,-1.3404,-1.4847,-1.5323,-1.5312,-1.5539,-1.6009,-1.7206,-1.8166,-1.839,-1.9106,-1.9814,-2.0522,-2.0986,-2.1442,-2.2601,-2.353,-2.3982,-2.444,-2.5855,-2.7538,-2.9453,-3.0884,-3.2532,-3.3211,-3.3394,-3.3841,1.96,1.9732,1.9761,2.0041,2.0549,2.0563,2.0661,2.0826,2.0839,2.1091,2.1348,2.1348,2.187,2.2378,2.2899,2.3039,2.3325,2.4296,2.444,2.4021,2.4239,2.4499,2.4716,2.4716,2.4958,2.5192,2.5192,2.5192,2.52,2.4958,2.4958,2.5218,2.4733,2.4257,2.4056,2.3466,2.3057,2.2645,2.2442,2.2124,2.1675,2.1358,2.0971,2.047,1.9976,1.9475,1.9196,1.8386,1.6957,1.5652,1.5588,1.4837,1.3413,1.2689,1.1497,1.0303,0.9586,0.8629,0.743,0.6715,0.5996,0.5034,0.4556,0.4318,0.4082,0.3842,0.3842,0.3842,0.2882,0.2401,0.2161,-0.0,-0.1921,-0.2882,-0.3602,-0.3842,-0.3841,-0.4081,-0.432,-0.4796,-0.4794,-0.5515,-0.6954,-0.8393,-0.935,-0.9344,-0.934,-0.9811,-1.0531,-1.2447,-1.4123,-1.5085,-1.4832,-1.4827,-1.5302,-1.6257,-1.7449,-1.8166,-1.8882,-1.9598,-2.0057,-2.0279,-2.0979,-2.1905,-2.2836,-2.3288,-2.4215,-2.564,-2.7064,-2.8486,-3.0158,-3.1324,-3.2257,-3.2694,-3.3371,1.9448,1.956,1.9507,1.9755,2.0253,2.0266,2.0371,2.0563,2.0824,2.1085,2.1586,2.1579,2.2094,2.2855,2.3362,2.3479,2.3502,2.467,2.5036,2.4905,2.5348,2.5685,2.5667,2.5667,2.59,2.6375,2.6366,2.6599,2.6375,2.59,2.5676,2.5918,2.5434,2.4958,2.4733,2.4257,2.3789,2.3134,2.2867,2.2499,2.2284,2.153,2.0909,2.0673,2.0193,1.9462,1.8942,1.8354,1.7437,1.5992,1.6251,1.5555,1.4123,1.3166,1.2212,1.1019,1.0064,0.9344,0.7906,0.743,0.6473,0.5754,0.5034,0.4558,0.432,0.4082,0.3842,0.3842,0.3842,0.3842,0.3602,0.2161,0.024,-0.2401,-0.3362,-0.3842,-0.3842,-0.3842,-0.4081,-0.4318,-0.4075,-0.4555,-0.5994,-0.7678,-0.8632,-0.8387,-0.862,-0.934,-1.0296,-1.2217,-1.3899,-1.4371,-1.4118,-1.3866,-1.4584,-1.5302,-1.6257,-1.6732,-1.8178,-1.9375,-1.9585,-1.9807,-2.0515,-2.1215,-2.214,-2.2836,-2.3998,-2.5416,-2.685,-2.8274,-2.9464,-3.0379,-3.105,-3.173,-3.2649,1.9264,1.9495,1.9044,1.9462,1.9963,2.023,2.0243,2.0296,2.0785,2.1067,2.1336,2.1761,2.2313,2.2995,2.331,2.3457,2.4075,2.5252,2.5855,2.5764,2.6421,2.6869,2.7315,2.7315,2.7557,2.8012,2.8244,2.8244,2.8022,2.7548,2.7315,2.7315,2.6375,2.5667,2.5667,2.4958,2.4257,2.3797,2.3587,2.3118,2.2163,2.1509,2.0837,2.0106,1.9632,1.9165,1.9138,1.8402,1.7904,1.7182,1.6732,1.5788,1.4594,1.3885,1.2932,1.1739,1.0781,0.9822,0.8866,0.7906,0.743,0.6715,0.5515,0.5034,0.4796,0.432,0.3841,0.3842,0.3842,0.3842,0.3842,0.3596,0.2395,0.024,-0.216,-0.3602,-0.3842,-0.3842,-0.3842,-0.3841,-0.3838,-0.4075,-0.5034,-0.6475,-0.7675,-0.767,-0.7664,-0.8382,-1.0299,-1.1982,-1.3188,-1.3418,-1.3161,-1.3152,-1.3866,-1.4346,-1.5064,-1.5782,-1.7467,-1.8908,-1.9119,-1.9099,-1.9807,-2.0758,-2.1678,-2.2132,-2.3062,-2.52,-2.6636,-2.8061,-2.901,-3.0179,-3.06,-3.1249,-3.1927,1.9145,1.9231,1.8993,1.9402,1.9659,2.0166,2.0525,2.071,2.121,2.1703,2.2204,2.245,2.2942,2.368,2.4179,2.4409,2.4634,2.5461,2.6034,2.6384,2.6859,2.7557,2.8022,2.8244,2.8254,2.8254,2.8244,2.8244,2.8244,2.8254,2.8012,2.8022,2.7315,2.6841,2.6142,2.5667,2.4958,2.4491,2.4015,2.3547,2.3078,2.2148,2.1442,2.0736,2.003,1.9558,1.9092,1.8856,1.8377,1.7425,1.72,1.6506,1.5793,1.4599,1.3404,1.2212,1.1493,1.0781,0.9822,0.8866,0.7906,0.743,0.6712,0.5754,0.5034,0.4556,0.4318,0.4081,0.3842,0.3842,0.3836,0.3804,0.331,0.2365,0.0239,-0.1921,-0.3602,-0.3841,-0.3599,-0.3116,-0.3354,-0.4077,-0.5037,-0.5756,-0.6715,-0.7433,-0.6949,-0.6947,-0.8623,-1.0542,-1.1986,-1.2221,-1.2208,-1.2438,-1.2914,-1.3875,-1.4832,-1.5545,-1.6986,-1.8184,-1.8652,-1.8633,-1.9092,-2.0279,-2.0979,-2.1428,-2.2609,-2.475,-2.6421,-2.809,-2.903,-2.9484,-2.9896,-3.0536,-3.1468,1.9086,1.9092,1.9329,1.9673,2.0088,2.0327,2.0678,2.111,2.1595,2.2079,2.2571,2.2821,2.3305,2.378,2.4745,2.5194,2.546,2.6133,2.6608,2.7306,2.778,2.8254,2.8708,2.894,2.9171,2.9403,2.9634,2.9634,2.9413,2.9181,2.894,2.8708,2.8235,2.779,2.7315,2.6599,2.6142,2.5425,2.4491,2.4023,2.3555,2.2609,2.1678,2.0972,2.0501,2.003,1.9086,1.9086,1.8613,1.7898,1.7673,1.7206,1.6732,1.547,1.4448,1.2961,1.2018,1.131,1.0602,0.9662,0.8722,0.8013,0.731,0.6363,0.5661,0.4954,0.4482,0.4248,0.4014,0.3778,0.3771,0.3746,0.3489,0.2794,0.1876,0.0707,-0.0944,-0.2833,-0.3542,-0.3072,-0.3324,-0.4057,-0.4547,-0.5275,-0.5754,-0.6235,-0.6233,-0.6471,-0.7667,-0.9105,-1.0781,-1.1019,-1.1012,-1.1004,-1.1957,-1.3157,-1.4361,-1.5075,-1.6268,-1.7467,-1.7692,-1.7673,-1.8633,-1.9821,-2.0515,-2.0729,-2.1193,-2.3329,-2.4742,-2.6412,-2.8332,-2.8768,-2.894,-3.0086,-3.1008,1.9092,1.9322,1.9801,2.0508,2.0979,2.0979,2.0986,2.1044,2.1715,2.217,2.2201,2.2687,2.3361,2.4065,2.5279,2.6151,2.6608,2.7315,2.778,2.8254,2.8486,2.894,2.9382,3.0086,3.0788,3.1029,3.1468,3.1468,3.127,3.0788,3.0086,2.9614,2.894,2.8476,2.8476,2.778,2.7306,2.6599,2.5425,2.4491,2.3781,2.2617,2.1678,2.1207,2.0979,2.0265,1.9329,1.9086,1.9086,1.9086,1.8358,1.7885,1.7164,1.6477,1.5083,1.3766,1.2593,1.1677,1.0993,1.0319,0.9633,0.8477,0.781,0.7107,0.6439,0.5522,0.4834,0.4358,0.4129,0.3887,0.3887,0.3887,0.3433,0.2288,0.275,0.3215,0.3214,-0.0921,-0.3437,-0.3911,-0.3722,-0.3998,-0.4057,-0.455,-0.4773,-0.454,-0.5264,-0.6464,-0.742,-0.8387,-0.9344,-0.9818,-0.9818,-0.9569,-0.9559,-1.0747,-1.2434,-1.4118,-1.5318,-1.6755,-1.65,-1.6726,-1.7922,-1.8876,-1.9571,-2.0272,-2.0729,-2.1663,-2.3296,-2.4975,-2.6887,-2.8303,-2.8486,-2.9403,-3.0327,2.0501,2.0501,2.0736,2.0736,2.0972,2.1442,2.1678,2.1678,2.2406,2.2867,2.3321,2.3329,2.4031,2.52,2.5909,2.6608,2.7315,2.8012,2.8476,2.9161,2.9624,3.0096,3.0788,3.1238,3.1698,3.1916,3.1916,3.1927,3.1927,3.1687,3.1457,3.1216,3.0316,2.9865,2.9634,2.8718,2.778,2.7315,2.6608,2.5425,2.4491,2.3555,2.2609,2.1207,2.0979,2.0501,1.9086,1.9086,1.9086,1.9079,1.818,1.7613,1.6909,1.6212,1.5362,1.4398,1.3485,1.2575,1.1664,1.0977,1.0293,0.9609,0.8461,0.7548,0.7094,0.6409,0.5496,0.4796,0.471,0.4646,0.4209,0.4248,0.405,0.3154,0.3186,0.3436,0.3432,0.0916,-0.183,-0.3666,-0.3905,-0.3929,-0.3942,-0.3952,-0.4202,-0.3999,-0.4245,-0.4964,-0.7171,-0.7662,-0.8137,-0.8863,-0.9337,-0.9526,-0.944,-0.9234,-0.9798,-1.1961,-1.4569,-1.575,-1.5539,-1.602,-1.6974,-1.8491,-1.9059,-1.9302,-1.943,-2.0409,-2.1852,-2.3781,-2.6169,-2.8283,-2.7983,-2.892,-2.9844,2.0979,2.0965,2.1207,2.145,2.1928,2.2163,2.239,2.2617,2.3102,2.3571,2.4015,2.4724,2.5434,2.6375,2.7074,2.778,2.8235,2.894,2.9393,3.0086,3.0777,3.1249,3.1709,3.2157,3.2386,3.2386,3.2845,3.2845,3.2833,3.2616,3.2386,3.1916,3.1468,3.1018,3.0568,2.9634,2.8708,2.8012,2.7074,2.6142,2.5192,2.4491,2.3312,2.1678,2.1207,2.0501,1.9558,1.9092,1.904,1.8914,1.8298,1.7689,1.7118,1.641,1.5813,1.4911,1.4388,1.3667,1.233,1.1428,1.0759,1.0312,0.9414,0.852,0.7854,0.718,0.6242,0.5512,0.5654,0.5611,0.4758,0.4604,0.4427,0.3989,0.3571,0.3366,0.2919,0.202,0.0449,-0.1798,-0.3163,-0.3857,-0.3859,-0.3878,-0.3678,-0.3703,-0.3946,-0.4888,-0.6341,-0.7062,-0.7294,-0.7996,-0.8228,-0.8654,-0.8367,-0.771,-0.8673,-1.1033,-1.3159,-1.4809,-1.5244,-1.5732,-1.621,-1.8066,-1.8253,-1.8234,-1.804,-1.9166,-2.0566,-2.3132,-2.5507,-2.7703,-2.779,-2.8221,-2.856,2.1112,2.1119,2.1558,2.2313,2.2836,2.311,2.3345,2.3789,2.3781,2.4232,2.482,2.6034,2.6933,2.7675,2.8157,2.8629,2.9301,3.0065,3.0788,3.1259,3.1927,3.2146,3.2146,3.2856,3.3325,3.3325,3.3771,3.4204,3.4204,3.3543,3.2845,3.2375,3.2146,3.1938,3.149,3.0788,2.9865,2.8476,2.7538,2.6599,2.59,2.5192,2.4023,2.2148,2.1442,2.0736,2.003,1.9544,1.8934,1.8703,1.8624,1.8238,1.7307,1.7006,1.6392,1.5276,1.4843,1.4284,1.3204,1.1911,1.1265,1.0613,0.9966,0.9321,0.8886,0.7807,0.7276,0.6923,0.6939,0.6357,0.5309,0.4943,0.4549,0.4332,0.3905,0.3041,0.2392,0.2827,0.2613,0.0218,-0.1992,-0.3569,-0.335,-0.3607,-0.364,-0.3638,-0.3876,-0.4811,-0.5754,-0.6216,-0.6436,-0.7076,-0.7076,-0.7301,-0.7304,-0.7076,-0.8263,-1.0776,-1.2598,-1.3548,-1.4248,-1.4456,-1.5317,-1.6835,-1.7193,-1.6953,-1.6911,-1.7295,-1.8932,-2.1306,-2.3628,-2.6167,-2.7071,-2.7345,-2.7426,2.1594,2.1594,2.1828,2.244,2.3181,2.3915,2.4257,2.4491,2.4474,2.5091,2.5933,2.6569,2.7026,2.728,2.8281,2.9102,2.9577,3.0618,3.1249,3.1927,3.2616,3.2856,3.2856,3.4011,3.4479,3.4696,3.5127,3.5342,3.5354,3.4923,3.4468,3.4228,3.3314,3.2867,3.2638,3.1927,3.1008,2.9855,2.9624,2.8688,2.7278,2.6133,2.4499,2.2852,2.2148,2.1207,2.0016,1.9582,1.92,1.8664,1.8235,1.7743,1.7,1.6555,1.6067,1.5182,1.4547,1.3996,1.3783,1.2755,1.1928,1.1294,1.0253,0.9836,0.9627,0.9419,0.9174,0.9123,0.8295,0.7492,0.6453,0.6063,0.5655,0.4191,0.4191,0.3792,0.3184,0.2989,0.2365,0.0435,-0.0437,-0.0,-0.1097,-0.2421,-0.3534,-0.3542,-0.3569,-0.4295,-0.5486,-0.5725,-0.5656,-0.5803,-0.6242,-0.6505,-0.6966,-0.702,-0.7979,-1.0293,-1.1888,-1.2316,-1.208,-1.3229,-1.461,-1.619,-1.619,-1.5917,-1.5929,-1.6137,-1.7013,-1.8572,-2.0838,-2.2721,-2.4406,-2.531,-2.6156,2.2481,2.2481,2.2489,2.2828,2.3478,2.3899,2.4212,2.4669,2.5364,2.6016,2.6746,2.7179,2.7622,2.7853,2.8752,2.9535,2.9991,3.1151,3.1813,3.2278,3.3438,3.4011,3.3999,3.4923,3.5366,3.5378,3.5581,3.5808,3.5808,3.5581,3.5378,3.5378,3.4684,3.3999,3.3543,3.3074,3.2146,3.0777,3.1216,3.0526,2.8437,2.7287,2.5882,2.4257,2.3321,2.2382,2.1442,2.0682,1.9991,1.8936,1.8477,1.7887,1.698,1.6678,1.6244,1.5483,1.4931,1.4596,1.4283,1.3565,1.2809,1.1992,1.1165,1.0611,1.0661,1.0233,1.0041,0.9645,0.9002,0.8275,0.7473,0.6966,0.6205,0.5383,0.4554,0.4145,0.3947,0.3557,0.2327,-0.0,-0.0,-0.0,-0.0,-0.1941,-0.346,-0.3489,-0.3514,-0.3767,-0.4471,-0.4702,-0.4893,-0.4822,-0.5271,-0.574,-0.6186,-0.623,-0.6927,-0.8504,-1.0524,-1.1189,-1.0949,-1.1613,-1.34,-1.498,-1.5191,-1.4947,-1.4709,-1.514,-1.6018,-1.7114,-1.9127,-2.1141,-2.2732,-2.3949,-2.4608,2.3435,2.3443,2.3443,2.3478,2.3742,2.3742,2.4222,2.4933,2.6381,2.6993,2.7212,2.7881,2.8309,2.8944,2.9466,3.0155,3.0625,3.1756,3.2194,3.244,3.4111,3.5054,3.5042,3.5557,3.5796,3.5808,3.6047,3.6035,3.6035,3.6035,3.5808,3.5808,3.5808,3.5342,3.4444,3.4204,3.3485,3.1806,3.2777,3.2124,2.9834,2.8669,2.7278,2.6124,2.4906,2.394,2.3232,2.1934,2.0906,1.946,1.8928,1.8071,1.7119,1.6785,1.6427,1.5584,1.5484,1.5139,1.4319,1.4104,1.3429,1.263,1.1815,1.1691,1.1678,1.1076,1.0355,0.9811,0.9539,0.9132,0.8379,0.7589,0.6899,0.6301,0.5091,0.4267,0.4423,0.3664,0.2275,-0.0,-0.0,-0.0,-0.0,-0.1697,-0.2984,-0.345,-0.3466,-0.3477,-0.37,-0.3911,-0.4133,-0.4359,-0.4798,-0.5016,-0.5022,-0.501,-0.5898,-0.6756,-0.8957,-1.0283,-1.0493,-1.0928,-1.1799,-1.3289,-1.3753,-1.3727,-1.3717,-1.4538,-1.5656,-1.7189,-1.8731,-2.0473,-2.1998,-2.2923,-2.3361,2.2683,2.2683,2.3129,2.3735,2.4664,2.4664,2.5522,2.6688,2.6638,0.0,0.0,2.865,2.9072,2.9094,2.969,3.0307,3.0781,3.1911,3.2568,3.3017,3.4451,3.4918,3.4942,3.6049,3.6475,3.6702,3.7179,3.7418,3.7418,3.6928,3.6475,3.6463,3.6022,3.5581,3.5581,3.5342,3.5134,3.4285,3.3991,3.3291,3.2342,3.0746,2.9352,2.7974,2.6718,2.5628,2.4,2.2696,2.1312,1.9895,1.8724,1.7767,1.7209,1.6325,1.564,1.5568,1.4752,1.4293,1.4057,1.3728,1.3203,1.301,1.2261,1.192,1.2648,1.1896,1.1458,1.1269,1.06,0.9717,0.8794,0.8477,0.7749,0.6049,0.5291,0.4727,0.4351,0.3497,0.2209,-0.0,-0.0,-0.0,-0.0,-0.0,-0.1252,-0.2934,-0.3392,-0.3416,-0.3631,-0.3629,-0.386,-0.412,-0.4342,-0.4354,-0.4139,-0.4566,-0.5663,-0.6735,-0.8051,-0.9375,-1.024,-1.0449,-1.0658,-1.1278,-1.2394,-1.2807,-1.2802,-1.3429,-1.4974,-1.6909,-1.7781,-1.8653,-2.057,-2.1936,-2.2413,2.3568,2.3568,2.3783,2.4111,0.0,2.5134,2.6063,2.7292,2.7247,2.7465,2.8054,2.8279,2.8483,2.8912,2.9364,3.0026,3.0926,3.1852,3.2646,3.3365,3.4542,3.5022,3.5022,3.5958,3.6307,3.632,3.6787,3.6774,3.6787,3.654,3.632,3.632,3.6099,3.5878,3.5878,3.5435,3.5285,3.5022,3.4623,3.408,3.3178,3.1604,3.0483,2.9573,2.8469,0.0,0.0,0.0,0.0,0.0,0.0,0.0,0.0,0.0,0.0,1.5363,1.4513,1.4048,1.3785,1.3352,1.3017,1.2891,1.2298,1.2156,1.2313,1.1837,1.164,1.164,1.0884,1.0248,0.973,0.9006,0.8202,0.7114,0.6071,0.5322,0.4893,0.3726,0.2324,-0.0,-0.0,-0.0,-0.0,-0.0,-0.0,-0.145,-0.1671,-0.2099,-0.3149,-0.3569,-0.3579,-0.3822,-0.3828,-0.3612,-0.34,-0.4034,-0.4882,-0.6586,-0.8077,-0.8713,-0.8706,-0.9126,-0.9764,-1.0394,-1.1033,-1.1662,-1.1863,-1.228,-1.3337,-1.5228,-1.6498,-1.7767,-1.9028,-2.0477,-2.1048,2.4575,2.4575,2.4575,2.4575,2.4795,2.5387,2.6456,2.7484,2.787,2.7948,2.8123,2.8033,2.8336,2.867,2.9178,2.9831,3.0871,3.1786,3.2471,3.294,3.4095,3.4824,3.4926,3.5495,3.5839,3.5943,3.5955,3.5955,3.5955,3.5955,3.5955,3.5955,3.5955,3.5955,3.593,0.0,0.0,0.0,3.4927,3.4597,3.3514,3.2427,3.1762,3.1084,2.9838,0.0,2.7332,2.6089,2.4507,2.2667,2.0658,0.0,0.0,0.0,0.0,0.0,0.0,0.0,0.0,0.0,0.0,0.0,1.2285,1.1915,1.1805,1.1668,1.1711,1.1653,1.1195,1.0839,1.0549,0.9512,0.8649,0.8301,0.6806,0.5718,0.5719,0.429,0.2419,0.0386,-0.0,-0.0,-0.0,0.0197,0.0201,0.0406,0.0205,-0.0823,-0.2453,-0.3079,-0.3508,-0.3511,-0.311,-0.3109,-0.3312,-0.3318,-0.4155,-0.5801,-0.7252,-0.7669,-0.7261,-0.7669,-0.8492,-0.9326,-0.9727,-1.0143,-1.0757,-1.0942,-1.1371,-1.342,-1.5486,-1.7269,-1.7864,-1.8665,-1.9312,2.5185,2.5185,2.4995,2.5185,2.5932,2.6803,2.7199,2.7131,2.8589,2.9342,2.9676,2.9635,2.9367,2.9155,2.9618,2.9862,3.0165,3.1292,3.1777,3.1878,3.301,3.3917,3.4423,3.4943,3.5462,3.5943,3.5955,3.5955,3.5955,3.5955,3.5955,3.5955,3.5955,3.5955,3.5865,3.393,3.3197,3.4384,3.4747,3.5029,3.4825,3.4164,3.3514,3.2827,3.1771,3.0463,2.8973,2.7025,2.4964,2.3074,2.12,1.9326,1.7754,1.67,1.5539,0.0,1.3908,0.0,0.0,0.0,0.0,0.0,0.0,0.0,0.0,1.1722,1.1648,1.1825,1.1415,1.0887,1.0462,1.0198,0.9418,0.7941,0.6965,0.63,0.6272,0.4624,0.2501,0.0186,0.1491,0.242,0.2242,0.095,0.0577,0.1936,0.0991,-0.0,-0.0585,-0.2184,-0.3441,-0.3445,-0.2669,-0.2476,-0.289,-0.3099,-0.3306,-0.3722,-0.4743,-0.5799,-0.6605,-0.6811,-0.7023,-0.7429,-0.8434,-0.8859,-0.8262,-0.8239,-0.9262,-1.2115,-1.4166,-1.5946,-1.6908,-1.7372,-1.7644,2.5019,2.5019,2.4842,2.5057,2.5719,2.6604,2.7108,2.737,2.8005,2.8382,2.8727,2.8691,2.8445,2.8236,2.8497,2.8808,2.9565,3.0386,3.088,3.1188,3.2125,3.2527,3.28,3.3358,3.3774,3.4008,3.4021,3.4021,3.4008,3.4021,3.4021,3.4021,3.4021,3.3696,3.3073,3.2372,3.2255,3.2774,3.3365,3.3741,3.4036,3.3453,3.3025,3.2792,3.1847,3.0839,2.9607,2.7646,2.6156,2.4801,2.2222,2.0121,1.8656,1.7061,1.5566,0.0,0.0,0.0,0.0,0.0,0.0,0.0,0.0,0.0,0.0,0.0,1.1444,1.1583,1.1185,1.088,1.0558,0.9932,0.9395,0.8634,0.7733,0.71,0.6522,0.5486,0.3936,0.1783,0.2869,0.3408,0.1973,0.1658,0.1878,0.2631,0.1907,0.1532,0.1323,-0.0192,-0.1958,-0.3135,-0.2785,-0.2617,-0.3017,-0.3017,-0.3006,-0.3179,-0.4161,-0.4936,-0.5477,-0.5463,-0.5653,-0.5845,-0.6818,-0.7012,-0.6229,-0.6806,-0.8749,-1.1482,-1.2846,-1.3832,-1.5466,-1.6379,-1.6636,2.4941,2.4807,2.4427,2.4591,2.5301,2.614,2.6773,2.7119,2.7242,2.7489,2.7477,2.734,2.7216,2.7067,2.6966,2.7645,2.8776,2.908,2.9809,3.0397,3.0632,3.0969,3.1255,3.167,3.193,3.206,3.2073,3.206,3.2073,3.2073,3.206,3.2034,3.1528,3.0904,3.0423,3.0802,3.1021,3.1424,3.1852,3.2411,3.3112,3.274,3.2541,3.2528,3.1463,3.0518,2.9901,2.8015,2.6635,2.5768,2.2918,2.0605,1.9178,1.7461,0.0,0.0,0.0,0.0,0.0,0.0,0.0,0.0,0.0,1.0612,1.0749,0.0,1.0955,0.0,1.0832,1.0709,1.0634,1.0032,0.0,0.0,0.843,0.7681,0.6976,0.6392,0.5209,0.3246,0.3936,0.4099,0.2402,0.2494,0.2733,0.3067,0.3087,0.2923,0.2743,0.1489,-0.0,-0.1897,-0.2311,-0.2333,-0.2327,-0.2326,-0.2315,-0.228,-0.3415,-0.4342,-0.4279,-0.4267,-0.4449,-0.4817,-0.5372,-0.537,-0.4638,-0.5732,-0.792,-1.0668,-1.1335,-1.1681,-1.3851,-1.5323,-1.6287,2.5824,2.5264,2.36,2.3468,2.4515,2.6606,2.6827,2.5958,2.6462,2.7007,2.7312,2.6808,2.6279,2.5788,2.575,0.0,2.7562,2.7536,2.8265,2.9605,2.8857,2.9047,3.0047,3.0099,3.0411,3.0891,3.0904,3.0904,3.0891,3.0891,3.0891,3.0839,2.8814,2.8384,2.9565,2.8857,2.9281,3.0813,3.0878,3.1437,3.2501,3.2527,3.254,3.2332,3.1287,3.0534,3.0111,2.786,2.6105,2.4775,2.2783,2.0504,1.8303,0.0,0.0,0.0,0.0,0.0,0.0,0.0,0.0,0.0,0.0,0.0,0.0,0.0,0.0,1.0049,1.0509,0.0,1.0737,1.0602,0.0,0.0,0.0,0.8109,0.7785,0.6549,0.5185,0.3912,0.0,0.0,0.4755,0.3585,0.3111,0.3986,0.3934,0.3506,0.2628,0.2512,0.1834,-0.0,-0.0188,-0.0189,-0.0375,-0.0373,-0.0,-0.0,-0.1858,-0.3149,-0.3322,-0.3693,-0.4073,-0.4243,-0.4449,-0.4439,-0.4439,-0.4411,-0.5421,-0.8235,-0.9946,-1.1421,-1.262,-1.4482,-1.5774,2.4517,2.3541,2.2698,2.2722,2.3414,2.5568,2.5705,2.4658,2.4876,2.513,2.5256,2.4685,2.4113,2.3607,2.3944,0.0,0.0,0.0,2.6119,2.7579,2.6886,2.71,2.7866,2.8229,2.8515,2.8723,2.8723,2.8736,2.871,2.8723,2.8022,2.6632,0.0,2.6093,2.7551,2.7227,2.7697,2.8723,2.9736,3.0645,3.1424,3.1787,3.18,3.145,3.0894,3.0162,2.9067,2.7369,2.6096,2.4933,2.249,2.0333,0.0,0.0,0.0,0.0,0.0,0.0,0.0,0.0,0.0,0.0,0.0,0.9518,0.9651,0.0,0.0,0.0,1.0303,1.0511,1.053,1.0179,0.0,0.0,0.0,0.0,0.0,0.0,0.0,0.4333,0.5436,0.6115,0.5318,0.4621,0.4323,0.4875,0.4405,0.3858,0.3018,0.0,0.2132,0.0892,0.0369,0.0377,0.1486,0.0734,-0.0,-0.0,-0.1607,-0.2802,-0.2938,-0.2585,-0.2585,-0.3103,-0.3617,-0.3787,-0.344,-0.3266,-0.39,-0.5919,-0.7667,-0.9625,-1.1754,-1.3315,-1.4248,2.2898,0.0,0.0,0.0,0.0,2.3888,2.3959,2.2945,2.2945,2.2945,2.2906,2.2347,0.0,0.0,0.0,0.0,0.0,0.0,2.3972,2.5532,2.4982,2.5061,2.5788,2.6191,2.6386,2.6386,2.6399,2.6386,2.636,2.5736,2.4407,2.2506,0.0,0.0,0.0,0.0,2.623,2.7152,2.8489,2.9554,3.0281,3.0684,3.0697,3.0281,2.9987,2.9211,2.8009,2.6446,2.5296,2.4345,2.1722,0.0,0.0,0.0,0.0,0.0,0.0,0.0,0.0,0.0,0.0,0.0,0.0,0.0,0.0,0.0,0.0,0.0,0.0,0.0,1.0363,1.002,0.9667,0.0,0.0,0.0,0.0,0.0,0.0,0.0,0.0,0.0,0.6273,0.5847,0.5743,0.0,0.0,0.4338,0.3881,0.2978,0.2364,0.2052,0.1253,0.0,0.2517,0.1592,0.0701,0.0701,-0.0342,-0.1334,-0.1806,-0.1474,-0.131,-0.1802,-0.2617,-0.2592,-0.1742,-0.1885,-0.314,-0.4551,-0.6277,-0.8318,-1.0846,-1.195,-1.2423,0.0,0.0,0.0,0.0,0.0,0.0,0.0,0.0,2.0757,2.0757,0.0,2.0023,0.0,0.0,0.0,0.0,1.9073,2.0211,0.0,0.0,2.2775,2.2919,2.3944,2.3996,2.4022,2.4022,2.4022,2.3996,2.3853,2.1932,0.0,0.0,0.0,0.0,0.0,0.0,2.4827,2.6476,2.7178,2.8022,2.9086,2.9177,2.919,2.9138,2.8087,2.7463,2.732,2.523,2.362,2.2596,2.0505,0.0,0.0,0.0,0.0,0.0,0.0,0.0,0.0,0.0,0.0,0.0,0.0,0.0,0.0,0.0,0.0,0.0,0.0,0.0,0.0,1.0314,0.0,0.0,0.0,0.0,0.0,0.0,0.0,0.0,0.0,0.8396,0.8005,0.7623,0.7023,0.6401,0.0,0.0,0.0,0.0,0.2808,0.359,0.3063,0.2588,0.2486,0.2467,0.2465,0.2465,0.0,0.0,0.0164,-0.0164,-0.0163,-0.0327,-0.0978,-0.0636,0.145,-0.0571,-0.2853,-0.4428,-0.6003,-0.8133,-1.0281,-1.0897,-1.1077,0.0,0.0,0.0,0.0,0.0,0.0,0.0,0.0,0.0,1.8309,1.8257,1.7699,0.0,0.0,0.0,0.0,0.0,0.0,0.0,0.0,2.0941,2.0958,2.1698,2.1711,2.1698,0.0,2.1698,2.0932,0.0,0.0,0.0,0.0,0.0,0.0,0.0,0.0,2.3464,2.4827,2.6515,2.758,2.7983,2.871,2.9274,2.9073,2.7983,2.6684,2.5165,2.431,2.2891,0.0,0.0,0.0,0.0,0.0,0.0,0.0,0.0,0.0,0.0,0.0,0.0,0.0,0.0,0.0,0.0,0.0,0.0,0.0,0.0,0.0,0.0,0.0,0.9745,0.0,0.0,0.0,0.0,0.0,0.0,0.0,0.0,0.0,0.7941,0.7834,0.7768,0.7188,0.6641,0.6013,0.5562,0.0,0.0,0.0,0.0,0.0,0.0,0.0,0.3753,0.2656,0.2592,0.239,0.1792,0.1941,0.1941,0.1493,0.0,0.0,0.1502,0.0404,-0.1344,-0.2826,-0.4301,-0.6051,-0.8489,-0.9838,-1.0308,0.0,0.0,0.0,0.0,0.0,0.0,0.0,0.0,0.0,1.5959,1.5907,0.0,0.0,0.0,0.0,0.0,0.0,0.0,0.0,0.0,0.0,0.0,1.9387,1.9387,0.0,0.0,0.0,0.0,0.0,0.0,0.0,0.0,0.0,0.0,0.0,0.0,2.2295,2.3633,2.5347,2.6502,2.7087,2.7645,2.8035,2.8203,2.7307,2.5892,2.397,0.0,0.0,0.0,0.0,0.0,0.0,0.0,0.0,0.0,0.0,0.0,0.0,0.0,0.0,0.0,0.0,0.0,0.0,0.0,0.0,0.0,0.0,0.0,0.0,0.0,0.945,0.0,0.0,0.0,0.0,0.0,0.0,0.0,0.0,0.0,0.0,0.8184,0.8232,0.8043,0.7671,0.7116,0.6505,0.6034,0.5508,0.0,0.0,0.0,0.0,0.0,0.0,0.0,0.0,0.0,0.0,0.0,0.0,0.0,0.0,0.1034,0.1744,0.0864,-0.0247,-0.1234,0.0,0.0,0.0,0.0,0.0,0.0,0.0,0.0,0.0,0.0,0.0,0.0,0.0,0.0,0.0,1.3462,0.0,0.0,1.3504,0.0,0.0,0.0,0.0,0.0,0.0,0.0,0.0,0.0,0.0,0.0,0.0,0.0,0.0,0.0,0.0,0.0,0.0,0.0,0.0,0.0,0.0,2.1462,2.3009,2.3672,2.4788,2.6399,2.5983,2.5996,2.6502,2.5944,2.51,2.3957,0.0,0.0,0.0,0.0,0.0,0.0,0.0,0.0,0.0,0.0,0.0,0.0,0.0,0.0,0.0,0.0,0.0,0.0,0.0,0.0,0.0,0.0,0.0,0.0,0.0,0.0,0.9636,0.9517,0.9251,0.0,0.0,0.0,0.0,0.0,0.0,0.0,0.0,0.0,0.8681,0.8597,0.839,0.7847,0.7528,0.7091,0.6226,0.5614,0.5637,0.6558,0.6669,0.6512,0.0,0.0,0.0,0.0,0.0,0.0,0.0,0.0,0.0,0.0,0.0,0.0,0.0,0.0,0.0,0.0,0.0,0.0,0.0,0.0,0.0,0.0,0.0,0.0,0.0,0.0,0.0,0.0,0.0,0.0,0.0,0.0,0.0,0.0,0.0,0.0,0.0,0.0,0.0,0.0,0.0,0.0,0.0,0.0,0.0,0.0,0.0,0.0,0.0,0.0,0.0,0.0,0.0,0.0,2.0166,2.1854,2.3217,2.4373,2.5269,2.5542,2.5762,2.5892,2.4957,2.4269,0.0,0.0,0.0,0.0,0.0,0.0,0.0,0.0,0.0,0.0,0.0,0.0,0.0,0.0,0.0,0.0,0.0,0.0,0.0,0.0,0.0,0.0,0.0,0.0,0.0,0.0,0.0,0.0,0.9098,0.8523,0.7886,0.0,0.0,0.0,0.0,0.0,0.0,0.0,0.0,0.0,0.0,0.9114,0.8507,0.7978,0.7562,0.7332,0.7109,0.7259,0.7789,0.781,0.7808,0.7805,0.0,0.0,0.0,0.0,0.0,0.0,0.0,0.0,0.0,0.0,0.0,0.0,0.0,0.0,0.0,0.0,0.0,0.0,0.0,0.0,0.0,0.0,0.0,0.0,0.0,0.0,0.0,0.0,0.0,0.0,0.0,0.0,0.0,0.0,0.0,0.0,0.0,0.0,0.0,0.0,0.0,0.0,0.0,0.0,0.0,0.0,0.0,0.0,0.0,0.0,0.0,0.0,0.0,1.9335,2.1036,2.2516,2.3646,2.4412,2.4814,2.51,2.5321,2.4204,2.3539,0.0,0.0,0.0,0.0,0.0,0.0,0.0,0.0,0.0,0.0,0.0,0.0,0.0,0.0,0.0,0.0,0.0,0.0,0.0,0.0,0.0,0.0,0.0,0.0,0.0,0.0,0.0,0.0,0.8908,0.843,0.7774,0.0,0.0,0.0,0.0,0.0,0.0,0.0,0.0,0.0,0.0,0.9149,0.8779,0.8526,0.0,0.0,0.8242,0.8376,0.865,0.8585,0.8376,0.8373,0.8027,0.0,0.0,0.0,0.0,0.0,0.0,0.0,0.0,0.0,0.0,0.0,0.0,0.0,0.0,0.0,0.0,0.0,0.0,0.0,0.0,0.0,0.0,0.0,0.0,0.0,0.0,0.0,0.0,0.0,0.0,0.0,0.0,0.0,0.0,0.0,0.0,0.0,0.0,0.0,0.0,0.0,0.0,0.0,0.0,0.0,0.0,0.0,0.0,0.0,0.0,0.0,0.0,1.8763,2.0561,2.162,2.275,2.3815,2.3892,2.4152,2.4767,2.3594,2.2773,0.0,0.0,0.0,0.0,0.0,0.0,0.0,0.0,0.0,0.0,0.0,0.0,0.0,0.0,0.0,0.0,0.0,0.0,0.0,0.0,0.0,0.0,0.0,0.0,0.0,0.0,0.0,0.0,0.0,0.0,0.0,0.0,0.0,0.0,0.0,0.0,0.0,0.0,0.0,0.0,0.0,0.8654,0.8948,0.9153,0.9215,0.0,0.8968,0.8962,0.9221,0.8869,0.8558,0.8417,0.0,0.0,0.0,0.0,0.0,0.0,0.0,0.0,0.0,0.0,0.0,0.0,0.0,0.0,0.0,0.0,0.0,0.0,0.0,0.0,0.0,0.0,0.0,0.0,0.0,0.0,0.0,0.0,0.0,0.0,0.0,0.0,0.0,0.0,0.0,0.0,0.0,0.0,0.0,0.0,0.0,0.0,0.0,0.0,0.0,0.0,0.0,0.0,0.0,0.0,0.0,0.0,0.0,0.0,1.9867,2.1412,2.2555,2.3256,2.3685,2.3789,2.3503,2.2802,0.0,0.0,0.0,0.0,0.0,0.0,0.0,0.0,0.0,0.0,0.0,0.0,0.0,0.0,0.0,0.0,0.0,0.0,0.0,0.0,0.0,0.0,0.0,0.0,0.0,0.0,0.0,0.813,0.0,0.0,0.0,0.0,0.0,0.0,0.0,0.0,0.0,0.0,0.0,0.0,0.0,0.0,0.8729,0.9093,0.9342,0.9426,0.0,0.0,0.906,0.8934,0.8838,0.871,0.0,0.0,0.0,0.0,0.0,0.0,0.0,0.0,0.0,0.0,0.0,0.0,0.0,0.0,0.0,0.0,0.0,0.0,0.0,0.0,0.0,0.0,0.0,0.0,0.0,0.0,0.0,0.0,0.0,0.0,0.0,0.0,0.0,0.0,0.0,0.0,0.0,0.0,0.0,0.0,0.0,0.0,0.0,0.0,0.0,0.0,0.0,0.0,0.0,0.0,0.0,0.0,0.0,0.0,1.7595,1.9283,2.0737,2.175,2.2321,2.2893,2.3022,2.2698,2.1906,2.1201,0.0,0.0,0.0,0.0,0.0,0.0,0.0,0.0,0.0,0.0,0.0,0.0,0.0,0.0,0.0,0.0,0.0,0.0,0.0,0.0,0.0,0.0,0.0,0.0,0.0,0.0,0.0,0.0,0.0,0.0,0.0,0.0,0.0,0.0,0.0,0.0,0.0,0.0,0.0,0.0,0.0,0.0,0.8877,0.9107,0.0,0.0,0.0,0.9131,0.8665,0.0,0.0,0.0,0.0,0.0,0.0,0.0,0.0,0.0,0.0,0.0,0.0,0.0,0.0,0.0,0.0,0.0,0.0,0.0,0.0,0.0,0.0,0.0,0.0,0.0,0.0,0.0,0.0,0.0,0.0,0.0,0.0,0.0,0.0,0.0,0.0,0.0,0.0,0.0,0.0,0.0,0.0,0.0,0.0,0.0,0.0,0.0,0.0,0.0,0.0,0.0,0.0,0.0,0.0,0.0,0.0,0.0,1.8698,2.0038,2.0927,2.1347,2.1919,2.2178,2.21,2.1088,2.0634,0.0,0.0,0.0,0.0,0.0,0.0,0.0,0.0,0.0,0.0,0.0,0.0,0.0,0.0,0.0,0.0,0.0,0.0,0.0,0.0,0.0,0.0,0.0,0.0,0.0,0.0,0.0,0.0,0.0,0.0,0.0,0.0,0.0,0.0,0.0,0.0,0.0,0.0,0.0,0.0,0.0,0.8737,0.8661,0.8918,0.9227,0.0,0.0,0.9121,0.8641,0.8736,0.0,0.0,0.0,0.0,0.0,0.0,0.0,0.0,0.0,0.0,0.0,0.0,0.0,0.0,0.0,0.0,0.0,0.0,0.0,0.0,0.0,0.0,0.0,0.0,0.0,0.0,0.0,0.0,0.0,0.0,0.0,0.0,0.0,0.0,0.0,0.0,0.0,0.0,0.0,0.0,0.0,0.0,0.0,0.0,0.0,0.0,0.0,0.0,0.0,0.0,0.0,0.0,0.0,0.0,0.0,0.0,1.814,1.9711,2.0927,2.136,2.1919,2.1997,2.1542,2.1018,2.0315,0.0,0.0,0.0,0.0,0.0,0.0,0.0,0.0,0.0,0.0,0.0,0.0,0.0,0.0,0.0,0.0,0.0,0.0,0.0,0.0,0.0,0.0,0.0,0.0,0.0,0.0,0.0,0.0,0.0,0.0,0.0,0.0,0.0,0.0,0.0,0.0,0.0,0.0,0.0,0.0,0.0,0.8748,0.8967,0.9242,0.0,0.0,0.0,0.0,0.8888,0.9274,0.0,0.0,0.0,0.0,0.0,0.0,0.0,0.0,0.0,0.0,0.0,0.0,0.0,0.0,0.0,0.0,0.0,0.0,0.0,0.0,0.0,0.0,0.0,0.0,0.0,0.0,0.0,0.0,0.0,0.0,0.0,0.0,0.0,0.0,0.0,0.0,0.0,0.0,0.0,0.0,0.0,0.0,0.0,0.0,0.0,0.0,0.0,0.0,0.0,0.0,0.0,0.0,0.0,0.0,0.0,0.0,1.7556,1.8984,1.9984,2.0542,2.1101,2.1256,2.0958,2.014,1.9437,0.0,0.0,0.0,0.0,0.0,0.0,0.0,0.0,0.0,0.0,0.0,0.0,0.0,0.0,0.0,0.0,0.0,0.0,0.0,0.0,0.0,0.0,0.0,0.0,0.0,0.0,0.0,0.0,0.0,0.0,0.0,0.0,0.0,0.0,0.0,0.0,0.0,0.0,0.0,0.0,0.9001,0.9107,0.9136,0.0,0.0,0.0,0.0,0.0,0.0,0.9719,0.9448,0.0,0.0,0.0,0.0,0.0,0.0,0.0,0.0,0.0,0.0,0.0,0.0,0.0,0.0,0.0,0.0,0.0,0.0,0.0,0.0,0.0,0.0,0.0,0.0,0.0,0.0,0.0,0.0,0.0,0.0,0.0,0.0,0.0,0.0,0.0,0.0,0.0,0.0,0.0,0.0,0.0,0.0,0.0,0.0,0.0,0.0,0.0,0.0,0.0,0.0,0.0,0.0,0.0,0.0,0.0,1.6971,1.8205,1.9088,1.9646,2.0231,2.06,2.0482,1.9374,1.8588,1.7897,0.0,0.0,0.0,0.0,0.0,0.0,0.0,0.0,0.0,0.0,0.0,0.0,0.0,0.0,0.0,0.0,0.0,0.0,0.0,0.0,0.0,0.0,0.0,0.0,0.0,0.0,0.0,0.0,0.0,0.0,0.0,0.0,0.0,0.0,0.0,0.0,0.0,0.0,0.0,0.9067,0.9385,0.0,0.0,0.0,0.0,0.0,0.0,0.0,0.0,0.9173,0.0,0.0,0.0,0.0,0.0,0.0,0.0,0.0,0.0,0.0,0.0,0.0,0.0,0.0,0.0,0.0,0.0,0.0,0.0,0.0,0.0,0.0,0.0,0.0,0.0,0.0,0.0,0.0,0.0,0.0,0.0,0.0,0.0,0.0,0.0,0.0,0.0,0.0,0.0,0.0,0.0,0.0,0.0,0.0,0.0,0.0,0.0,0.0,0.0,0.0,0.0,0.0,0.0,0.0,0.0,0.0,1.801,1.9101,1.9646,2.0231,2.0283,1.9815,1.9166,1.8114,1.6694,0.0,0.0,0.0,0.0,0.0,0.0,0.0,0.0,0.0,0.0,0.0,0.0,0.0,0.0,0.0,0.0,0.0,0.0,0.0,0.0,0.0,0.0,0.0,0.0,0.0,0.0,0.0,0.0,0.0,0.0,0.0,0.0,0.0,0.0,0.0,0.0,0.0,0.0,0.8435,0.8831,0.0,0.0,0.0,0.0,0.0,0.0,0.0,0.0,0.8533,0.0,0.0,0.0,0.0,0.0,0.0,0.0,0.0,0.0,0.0,0.0,0.0,0.0,0.0,0.0,0.0,0.0,0.0,0.0,0.0,0.0,0.0,0.0,0.0,0.0,0.0,0.0,0.0,0.0,0.0,0.0,0.0,0.0,0.0,0.0,0.0,0.0,0.0,0.0,0.0,0.0,0.0,0.0,0.0,0.0,0.0,0.0,0.0,0.0,0.0,0.0,0.0,0.0,0.0,0.0,0.0,0.0,0.0,1.8335,1.9192,1.949,1.9646,1.962,1.8517,1.7257,0.0,0.0,0.0,0.0,0.0,0.0,0.0,0.0,0.0,0.0,0.0,0.0,0.0,0.0,0.0,0.0,0.0,0.0,0.0,0.0,0.0,0.0,0.0,0.0,0.0,0.0,0.0,0.0,0.0,0.0,0.0,0.0,0.0,0.0,0.0,0.0,0.0,0.0,0.0,0.0,0.0,0.0,0.0,0.0,0.0,0.0,0.0,0.0,0.0,0.0,0.0,0.0,0.0,0.0,0.0,0.0,0.0,0.0,0.0,0.0,0.0,0.0,0.0,0.0,0.0,0.0,0.0,0.0,0.0,0.0,0.0,0.0,0.0,0.0,0.0,0.0,0.0,0.0,0.0,0.0,0.0,0.0,0.0,0.0,0.0,0.0,0.0,0.0,0.0,0.0,0.0,0.0,0.0,0.0,0.0,0.0,0.0,0.0,0.0,0.0,0.0,0.0,0.0,0.0,0.0,0.0,0.0,0.0,1.7608,1.8621,1.8763,1.8971,1.9283,1.7763,1.6335,0.0,0.0,0.0,0.0,0.0,0.0,0.0,0.0,0.0,0.0,0.0,0.0,0.0,0.0,0.0,0.0,0.0,0.0,0.0,0.0,0.0,0.0,0.0,0.0,0.0,0.0,0.0,0.0,0.0,0.0,0.0,0.0,0.0,0.0,0.0,0.0,0.0,0.0,0.0,0.0,0.0,0.0,0.0,0.0,0.0,0.0,0.0,0.0,0.8977,0.0,0.0,0.0,0.0,0.0,0.0,0.0,0.0,0.0,0.0,0.0,0.0,0.0,0.0,0.0,0.0,0.0,0.0,0.0,0.0,0.0,0.0,0.0,0.0,0.0,0.0,0.0,0.0,0.0,0.0,0.0,0.0,0.0,0.0,0.0,0.0,0.0,0.0,0.0,0.0,0.0,0.0,0.0,0.0,0.0,0.0,0.0,0.0,0.0,0.0,0.0,0.0,0.0,0.0,0.0,0.0,0.0,0.0,0.0,1.7426,1.7941,1.8556,1.8595,1.8127,1.6984,1.5569,0.0,0.0,0.0,0.0,0.0,0.0,0.0,0.0,0.0,0.0,0.0,0.0,0.0,0.0,0.0,0.0,0.0,0.0,0.0,0.0,0.0,0.0,0.0,0.0,0.0,0.0,0.0,0.0,0.0,0.0,0.0,0.0,0.0,0.0,0.0,0.0,0.0,0.0,0.0,0.0,0.0,0.0,0.0,0.0,0.0,0.0,0.0,0.0,0.0,0.0,0.0,0.0,0.0,0.0,0.0,0.0,0.0,0.0,0.0,0.0,0.0,0.0,0.0,0.0,0.0,0.0,0.0,0.0,0.0,0.0,0.0,0.0,0.0,0.0,0.0,0.0,0.0,0.0,0.0,0.0,0.0,0.0,0.0,0.0,0.0,0.0,0.0,0.0,0.0,0.0,0.0,0.0,0.0,0.0,0.0,0.0,0.0,0.0,0.0,0.0,0.0,0.0,0.0,0.0,0.0,0.0,0.0,0.0,1.6218,1.7439,1.7387,1.7075,1.6405,1.5686,1.4751,0.0,0.0,0.0,0.0,0.0,0.0,0.0,0.0,0.0,0.0,0.0,0.0,0.0,0.0,0.0,0.0,0.0,0.0,0.0,0.0,0.0,0.0,0.0,0.0,0.0,0.0,0.0,0.0,0.0,0.0,0.0,0.0,0.0,0.0,0.0,0.0,0.0,0.0,0.0,0.0,0.0,0.0,0.0,0.0,0.0,0.0,0.0,0.0,0.0,0.0,0.0,0.0,0.0,0.0,0.0,0.0,0.0,0.0,0.0,0.0,0.0,0.0,0.0,0.0,0.0,0.0,0.0,0.0,0.0,0.0,0.0,0.0,0.0,0.0,0.0,0.0,0.0,0.0,0.0,0.0,0.0,0.0,0.0,0.0,0.0,0.0,0.0,0.0,0.0,0.0,0.0,0.0,0.0,0.0,0.0,0.0,0.0,0.0,0.0,0.0,0.0,0.0,0.0,0.0,0.0,0.0,0.0,0.0,0.0,1.6569,1.6114,1.5621,1.5192,1.4595,1.3946,0.0,0.0,0.0,0.0,0.0,0.0,0.0,0.0,0.0,0.0,0.0,0.0,0.0,0.0,0.0,0.0,0.0,0.0,0.0,0.0,0.0,0.0,0.0,0.0,0.0,0.0,0.0,0.0,0.0,0.0,0.0,0.0,0.0,0.0,0.0,0.0,0.0,0.0,0.0,0.0,0.0,0.0,0.0,0.0,0.0,0.0,0.0,0.0,0.0,0.0,0.0,0.0,0.0,0.0,0.0,0.0,0.0,0.0,0.0,0.0,0.0,0.0,0.0,0.0,0.0,0.0,0.0,0.0,0.0,0.0,0.0,0.0,0.0,0.0,0.0,0.0,0.0,0.0,0.0,0.0,0.0,0.0,0.0,0.0,0.0,0.0,0.0,0.0,0.0,0.0,0.0,0.0,0.0,0.0,0.0,0.0,0.0,0.0,0.0,0.0,0.0,0.0,0.0,0.0,0.0,0.0,0.0,0.0,0.0,1.5491,1.4933,1.4683,1.4643,1.3998,1.318,0.0,0.0,0.0,0.0,0.0,0.0,0.0,0.0,0.0,0.0,0.0,0.0,0.0,0.0,0.0,0.0,0.0,0.0,0.0,0.0,0.0,0.0,0.0,0.0,0.0,0.0,0.0,0.0,0.0,0.0,0.0,0.0,0.0,0.0,0.0,0.0,0.0,0.0,0.0,0.0,0.0,0.0,0.0,0.0,0.0,0.0,0.0,0.0,0.0,0.0,0.0,0.0,0.0,0.0,0.0,0.0,0.0,0.0,0.0,0.0,0.0,0.0,0.0,0.0,0.0,0.0,0.0,0.0,0.0,0.0,0.0,0.0,0.0,0.0,0.0,0.0,0.0,0.0,0.0,0.0,0.0,0.0,0.0,0.0,0.0,0.0,0.0,0.0,0.0,0.0,0.0,0.0,0.0,0.0,0.0,0.0,0.0,0.0,0.0,0.0,0.0,0.0,0.0,0.0,0.0,0.0,0.0,0.0,0.0,1.3612,1.3419,1.3385,1.3452,1.3232,1.252,1.1354,0.0,0.0,0.0,0.0,0.0,0.0,0.0,0.0,0.0,0.0,0.0,0.0,0.0,0.0,0.0,0.0,0.0,0.0,0.0,0.0,0.0,0.0,0.0,0.0,0.0,0.0,0.0,0.0,0.0,0.0,0.0,0.0,0.0,0.0,0.0,0.0,0.0,0.0,0.0,0.0,0.0,0.0,0.0,0.0,0.0,0.0,0.0,0.0,0.0,0.0,0.0,0.0,0.0,0.0,0.0,0.0,0.0,0.0,0.0,0.0,0.0,0.0,0.0,0.0,0.0,0.0,0.0,0.0,0.0,0.0,0.0,0.0,0.0,0.0,0.0,0.0,0.0,0.0,0.0,0.0,0.0,0.0,0.0,0.0,0.0,0.0,0.0,0.0,0.0,0.0,0.0,0.0,0.0,0.0,0.0,0.0,0.0,0.0,0.0,0.0,0.0,0.0,0.0,0.0,0.0,0.0,0.0,0.0,1.1866,1.2116,1.2343,1.2481,1.2313,1.179,0.0,0.0,0.0,0.0,0.0,0.0,0.0,0.0,0.0,0.0,0.0,0.0,0.0,0.0,0.0,0.0,0.0,0.0,0.0,0.0,0.0,0.0,0.0,0.0,0.0,0.0,0.0,0.0,0.0,0.0,0.0,0.0,0.0,0.0,0.0,0.0,0.0,0.0,0.0,0.0,0.0,0.0,0.0,0.0,0.0,0.0,0.0,0.0,0.0,0.0,0.0,0.0,0.0,0.0,0.0,0.0,0.0,0.0,0.0,0.0,0.0,0.0,0.0,0.0,0.0,0.0,0.0,0.0,0.0,0.0,0.0,0.0,0.0,0.0,0.0,0.0,0.0,0.0,0.0,0.0,0.0,0.0,0.0,0.0,0.0,0.0,0.0,0.0,0.0,0.0,0.0,0.0,0.0,0.0,0.0,0.0,0.0,0.0,0.0,0.0,0.0,0.0,0.0,0.0,0.0,0.0,0.0,0.0,0.9111,1.0122,1.1054,1.1553,1.1625,1.1121,1.0765,0.0,0.0,0.0,0.0,0.0,0.0,0.0,0.0,0.0,0.0,0.0,0.0,0.0,0.0,0.0,0.0,0.0,0.0,0.0,0.0,0.0,0.0,0.0,0.0,0.0,0.0,0.0,0.0,0.0,0.0,0.0,0.0,0.0,0.0,0.0,0.0,0.0,0.0,0.0,0.0,0.0,0.0,0.0,0.0,0.0,0.0,0.0,0.0,0.0,0.0,0.0,0.0,0.0,0.0,0.0,0.0,0.0,0.0,0.0,0.0,0.0,0.0,0.0,0.0,0.0,0.0,0.0,0.0,0.0,0.0,0.0,0.0,0.0,0.0,0.0,0.0,0.0,0.0,0.0,0.0,0.0,0.0,0.0,0.0,0.0,0.0,0.0,0.0,0.0,0.0,0.0,0.0,0.0,0.0,0.0,0.0,0.0,0.0,0.0,0.0,0.0,0.0,0.0,0.0,0.0,0.0,0.0,0.0,0.0,0.8949,0.0,1.0715,1.0977,1.0815,1.0473,0.0,0.0,0.0,0.0,0.0,0.0,0.0,0.0,0.0,0.0,0.0,0.0,0.0,0.0,0.0,0.0,0.0,0.0,0.0,0.0,0.0,0.0,0.0,0.0,0.0,0.0,0.0,0.0,0.0,0.0,0.0,0.0,0.0,0.0,0.0,0.0,0.0,0.0,0.0,0.0,0.0,0.0,0.0,0.0,0.0,0.0,0.0,0.0,0.0,0.0,0.0,0.0,0.0,0.0,0.0,0.0,0.0,0.0,0.0,0.0,0.0,0.0,0.0,0.0,0.0,0.0,0.0,0.0,0.0,0.0,0.0,0.0,0.0,0.0,0.0,0.0,0.0,0.0,0.0,0.0,0.0,0.0,0.0,0.0,0.0,0.0,0.0,0.0,0.0,0.0,0.0,0.0,0.0,0.0,0.0,0.0,0.0,0.0,0.0,0.0,0.0,0.0,0.0,0.0,0.0,0.0,0.0,0.0,0.0,0.833,0.9069,0.9707,1.0166,1.0231,0.9995,0.0,0.0,0.0,0.0,0.0,0.0,0.0,0.0,0.0,0.0,0.0,0.0,0.0,0.0,0.0,0.0,0.0,0.0,0.0,0.0,0.0,0.0,0.0,0.0,0.0,0.0,0.0,0.0,0.0,0.0,0.0,0.0,0.0,0.0,0.0,0.0,0.0,0.0,0.0,0.0,0.0,0.0,0.0,0.0,0.0,0.0,0.0,0.0,0.0,0.0,0.0,0.0,0.0,0.0,0.0,0.0,0.0,0.0,0.0,0.0,0.0,0.0,0.0,0.0,0.0,0.0,0.0,0.0,0.0,0.0,0.0,0.0,0.0,0.0,0.0,0.0,0.0,0.0,0.0,0.0,0.0,0.0,0.0,0.0,0.0,0.0,0.0,0.0,0.0,0.0,0.0,0.0,0.0,0.0,0.0,0.0,0.0,0.0,0.0,0.0,0.0,0.0,0.0,0.0,0.0,0.0,0.0,0.0,0.0,0.8257,0.833,0.8706,0.9303,0.9292,0.9292,0.0,0.0,0.0,0.0,0.0,0.0,0.0,0.0,0.0,0.0,0.0,0.0,0.0,0.0,0.0,0.0,0.0,0.0,0.0,0.0,0.0,0.0,0.0,0.0,0.0,0.0,0.0,0.0,0.0,0.0,0.0,0.0,0.0,0.0,0.0,0.0,0.0,0.0,0.0,0.0,0.0,0.0,0.0,0.0,0.0,0.0,0.0,0.0,0.0,0.0,0.0,0.0,0.0,0.0,0.0,0.0,0.0,0.0,0.0,0.0,0.0,0.0,0.0,0.0,0.0,0.0,0.0,0.0,0.0,0.0,0.0,0.0,0.0,0.0,0.0,0.0,0.0,0.0,0.0,0.0,0.0,0.0,0.0,0.0,0.0,0.0,0.0,0.0,0.0,0.0,0.0,0.0,0.0,0.0,0.0,0.0,0.0,0.0,0.0,0.0,0.0,0.0,0.0,0.0,0.0,0.0,0.0,0.0,0.0,0.0,0.8068,0.8456,0.8644,0.8917,0.8991,0.8917,0.0,0.0,0.0,0.0,0.0,0.0,0.0,0.0,0.0,0.0,0.0,0.0,0.0,0.0,0.0,0.0,0.0,0.0,0.0,0.0,0.0,0.0,0.0,0.0,0.0,0.0,0.0,0.0,0.0,0.0,0.0,0.0,0.0,0.0,0.0,0.0,0.0,0.0,0.0,0.0,0.0,0.0,0.0,0.0,0.0,0.0,0.0,0.0,0.0,0.0,0.0,0.0,0.0,0.0,0.0,0.0,0.0,0.0,0.0,0.0,0.0,0.0,0.0,0.0,0.0,0.0,0.0,0.0,0.0,0.0,0.0,0.0,0.0,0.0,0.0,0.0,0.0,0.0,0.0,0.0,0.0,0.0,0.0,0.0,0.0,0.0,0.0,0.0,0.0,0.0,0.0,0.0,0.0,0.0,0.0,0.0,0.0,0.0,0.0,0.0,0.0,0.0,0.0,0.0,0.0,0.0,0.0,0.0,0.0,0.0,0.8015,0.8204,0.8414,0.8443,0.0,0.0,0.0,0.0,0.0,0.0,0.0,0.0,0.0,0.0,0.0,0.0,0.0,0.0,0.0,0.0,0.0,0.0,0.0,0.0,0.0,0.0,0.0,0.0,0.0,0.0,0.0,0.0,0.0,0.0,0.0,0.0,0.0,0.0,0.0,0.0,0.0,0.0,0.0,0.0,0.0,0.0,0.0,0.0,0.0,0.0,0.0,0.0,0.0,0.0,0.0,0.0,0.0,0.0,0.0,0.0,0.0,0.0,0.0,0.0,0.0,0.0,0.0,0.0,0.0,0.0,0.0,0.0,0.0,0.0,0.0,0.0,0.0,0.0,0.0,0.0,0.0,0.0,0.0,0.0,0.0,0.0,0.0,0.0,0.0,0.0,0.0,0.0,0.0,0.0,0.0,0.0,0.0,0.0,0.0,0.0,0.0,0.0,0.0,0.0,0.0,0.0,0.0,0.0,0.0,0.0,0.0,0.0,0.0,0.0,0.0,0.7392,0.7899,0.7909,0.0,0.7338,0.0,0.0,0.0,0.0,0.0,0.0,0.0,0.0,0.0,0.0,0.0,0.0,0.0,0.0,0.0,0.0,0.0,0.0,0.0,0.0,0.0,0.0,0.0,0.0,0.0,0.0,0.0,0.0,0.0,0.0,0.0,0.0,0.0,0.0,0.0,0.0,0.0,0.0,0.0,0.0,0.0,0.0,0.0,0.0,0.0,0.0,0.0,0.0,0.0,0.0,0.0,0.0,0.0,0.0,0.0,0.0,0.0,0.0,0.0,0.0,0.0,0.0,0.0,0.0,0.0,0.0,0.0,0.0,0.0,0.0,0.0,0.0,0.0,0.0,0.0,0.0,0.0,0.0,0.0,0.0,0.0,0.0,0.0,0.0,0.0,0.0,0.0,0.0,0.0,0.0,0.0,0.0,0.0,0.0,0.0,0.0,0.0,0.0,0.0,0.0,0.0,0.0,0.0,0.0,0.0,0.0,0.0,0.0,0.0,0.0,0.0,0.0,0.7392,0.7327,0.7196,0.0,0.0,0.0,0.0,0.0,0.0,0.0,0.0,0.0,0.0,0.0,0.0,0.0,0.0,0.0,0.0,0.0,0.0,0.0,0.0,0.0,0.0,0.0,0.0,0.0,0.0,0.0,0.0,0.0,0.0,0.0,0.0,0.0,0.0,0.0,0.0,0.0,0.0,0.0,0.0,0.0,0.0,0.0,0.0,0.0,0.0,0.0,0.0,0.0,0.0,0.0,0.0,0.0,0.0,0.0,0.0,0.0,0.0,0.0,0.0,0.0,0.0,0.0,0.0,0.0,0.0,0.0,0.0,0.0,0.0,0.0,0.0,0.0,0.0,0.0,0.0,0.0,0.0,0.0,0.0,0.0,0.0,0.0,0.0,0.0,0.0,0.0,0.0,0.0,0.0,0.0,0.0,0.0,0.0,0.0,0.0,0.0,0.0,0.0,0.0,0.0,0.0,0.0,0.0,0.0,0.0,0.0,0.0,0.0,0.0,0.6747,0.7011,0.7011,0.6913,0.6718,0.0,0.0,0.0,0.0,0.0,0.0,0.0,0.0,0.0,0.0,0.0,0.0,0.0,0.0,0.0,0.0,0.0,0.0,0.0,0.0,0.0,0.0,0.0,0.0,0.0,0.0,0.0,0.0,0.0,0.0,0.0,0.0,0.0,0.0,0.0,0.0,0.0,0.0,0.0,0.0,0.0,0.0,0.0,0.0,0.0,0.0,0.0,0.0,0.0,0.0,0.0,0.0,0.0,0.0,0.0,0.0,0.0,0.0,0.0,0.0,0.0,0.0,0.0,0.0,0.0,0.0,0.0,0.0,0.0,0.0,0.0,0.0,0.0,0.0,0.0,0.0,0.0,0.0,0.0,0.0,0.0,0.0,0.0,0.0,0.0,0.0,0.0,0.0,0.0,0.0,0.0,0.0,0.0,0.0,0.0,0.0,0.0,0.0,0.0,0.0,0.0,0.0,0.0,0.0,0.0,0.0,0.0,0.0,0.0,0.0,0.0,0.0,0.0,0.0,0.6057,0.0,0.0,0.0,0.0,0.0,0.0,0.0,0.0,0.0,0.0,0.0,0.0,0.0,0.0,0.0,0.0,0.0,0.0,0.0,0.0,0.0,0.0,0.0,0.0,0.0,0.0,0.0,0.0,0.0,0.0,0.0,0.0,0.0,0.0,0.0,0.0,0.0,0.0,0.0,0.0,0.0,0.0,0.0,0.0,0.0,0.0,0.0,0.0,0.0,0.0,0.0,0.0,0.0,0.0,0.0,0.0,0.0,0.0,0.0,0.0,0.0,0.0,0.0,0.0,0.0,0.0,0.0,0.0,0.0,0.0,0.0,0.0,0.0,0.0,0.0,0.0,0.0,0.0,0.0,0.0,0.0,0.0,0.0,0.0,0.0,0.0,0.0,0.0,0.0,0.0,0.0,0.0,0.0,0.0,0.0,0.0,0.0,0.0,0.0,0.0,0.0,0.0,0.0,0.0,0.0,0.0,0.0,0.0,0.0,0.0,0.0,0.0,0.0,0.0,0.0,0.0,0.0,0.0,0.0,0.0,0.0,0.0,0.0,0.0,0.0,0.0,0.0,0.0,0.0,0.0,0.0,0.0,0.0,0.0,0.0,0.0,0.0,0.0,0.0,0.0,0.0,0.0,0.0,0.0,0.0,0.0,0.0,0.0,0.0,0.0,0.0,0.0,0.0,0.0,0.0,0.0,0.0,0.0,0.0,0.0,0.0,0.0,0.0,0.0,0.0,0.0,0.0,0.0,0.0,0.0,0.0,0.0,0.0,0.0,0.0,0.0,0.0,0.0,0.0,0.0,0.0,0.0,0.0,0.0,0.0,0.0,0.0,0.0,0.0,0.0,0.0,0.0,0.0,0.0,0.0,0.0,0.0,0.0,0.0,0.0,0.0,0.0,0.0,0.0,0.0,0.0,0.0,0.0,0.0,0.0,0.0,0.0,0.0,0.0,0.0,0.0,0.0,0.0,0.0,0.0,0.0,0.0,0.0,0.0,0.0,0.0,0.0,0.0,0.0,0.0,0.0,0.0,0.0,0.0,0.0,0.0,0.0,0.0,0.0,0.0,0.0,0.0,0.0,0.0,0.0,0.0,0.0,0.0,0.0,0.0,0.0,0.0,0.0,0.0,0.0,0.0,0.0,0.0,0.0,0.0,0.0,0.0,0.0,0.0,0.0,0.0,0.0,0.0,0.0,0.0,0.0,0.0,0.0,0.0,0.0,0.0,0.0,0.0,0.0,0.0,0.0,0.0,0.0,0.0,0.0,0.0,0.0,0.0,0.0,0.0,0.0,0.0,0.0,0.0,0.0,0.0,0.0,0.0,0.0,0.0,0.0,0.0,0.0,0.0,0.0,0.0,0.0,0.0,0.0,0.0,0.0,0.0,0.0,0.0,0.0,0.0,0.0,0.0,0.0,0.0,0.0,0.0,0.0,0.0,0.0,0.0,0.0,0.0,0.0,0.0,0.0,0.0,0.0,0.0,0.0,0.0,0.0,0.0,0.0,0.0,0.0,0.0,0.0,0.0,0.0,0.0,0.0,0.0,0.0,0.0,0.0,0.0,0.0,0.0,0.0,0.0,0.0,0.0,0.0,0.0,0.0,0.0,0.0,0.0,0.0,0.0,0.0,0.0,0.0,0.0,0.0,0.0,0.0,0.0,0.0,0.0,0.0,0.0,0.0,0.0,0.0,0.0,0.0,0.0,0.0,0.0,0.0,0.0,0.0,0.0,0.0,0.0,0.0,0.0,0.0,0.0,0.0,0.0,0.0,0.0,0.0,0.0,0.0,0.0,0.0,0.0,0.0,0.0,0.0,0.0,0.0,0.0,0.0,0.0,0.0,0.0,0.0,0.0,0.0,0.0,0.0,0.0,0.0,0.0,0.0,0.0,0.0,0.0,0.0,0.0,0.0,0.0,0.0,0.0,0.0,0.0,0.0,0.0,0.0,0.0,0.0,0.0,0.0,0.0,0.0,0.0,0.0,0.0,0.0,0.0,0.0,0.0,0.0,0.0,0.0,0.0,0.0,0.0,0.0,0.0,0.0,0.0,0.0,0.0,0.0,0.0,0.0,0.0,0.0,0.0,0.0,0.0,0.0,0.0,0.0,0.0,0.0,0.0,0.0,0.0,0.0,0.0,0.0,0.0,0.0,0.0,0.0,0.0,0.0,0.0,0.0,0.0,0.0,0.0,0.0,0.0,0.0,0.0,0.0,0.0,0.0,0.0,0.0,0.0,0.0,0.0,0.0,0.0,0.0,0.0,0.0,0.0,0.0,0.0,0.0,0.0,0.0,0.0,0.0,0.0,0.0,0.0,0.0,0.0,0.0,0.0,0.0,0.0,0.0,0.0,0.0,0.0,0.0,0.0,0.0,0.0,0.0,0.0,0.0,0.0,0.0,0.0,0.0,0.0,0.0,0.0,0.0,0.0,0.0,0.0,0.0,0.0,0.0,0.0,0.0,0.0,0.0,0.0,0.0,0.0,0.0,0.0,0.0,0.0,0.0,0.0,0.0,0.0,0.0,0.0,0.0,0.0,0.0,0.0,0.0,0.0,0.0,0.0,0.0,0.0,0.0,0.0,0.0,0.0,0.0,0.0,0.0,0.0,0.0,0.0,0.0,0.0,0.0,0.0,0.0,0.0,0.0,0.0,0.0,0.0,0.0,0.0,0.0,0.0,0.0,0.0,0.0,0.0,0.0,0.0,0.0,0.0,0.0,0.0,0.0,0.0,0.0,0.0,0.0,0.0,0.0,0.0,0.0,0.0,0.0,0.0,0.0,0.0,0.0,0.0,0.0,0.0,0.0,0.0,0.0,0.0,0.0,0.0,0.0,0.0,0.0,0.0,0.0,0.0,0.0,0.0,0.0,0.0,0.0,0.0,0.0,0.0,0.0,0.0,0.0,0.0,0.0,0.0,0.0,0.0,0.0,0.0,0.0,0.0,0.0,0.0,0.0,0.0,0.0,0.0,0.0,0.0,0.0,0.0,0.0,0.0,0.0,0.0,0.0,0.0,0.0,0.0,0.0,0.0,0.0,0.0,0.0,0.0,0.0,0.0,0.0,0.0,0.0,0.0,0.0,0.0,0.0,0.0,0.0,0.0,0.0,0.0,0.0,0.0,0.0,0.0,0.0,0.0,0.0,0.0,0.0,0.0,0.0,0.0,0.0,0.0,0.0,0.0,0.0,0.0,0.0,0.0,0.0,0.0,0.0,0.0,0.0,0.0,0.0,0.0,0.0,0.0,0.0,0.0,0.0,0.0,0.0,0.0,0.0,0.0,0.0,0.0,0.0,0.0,0.0,0.0,0.0,0.0,0.0,0.0,0.0,0.0,0.0,0.0,0.0,0.0,0.0,0.0,0.0,0.0,0.0,0.0,0.0,0.0,0.0,0.0,0.0,0.0,0.0,0.0,0.0,0.0,0.0,0.0,0.0,0.0,0.0,0.0,0.0,0.0,0.0,0.0,0.0,0.0,0.0,0.0,0.0,0.0,0.0,0.0,0.0,0.0,0.0,0.0,0.0,0.0,0.0,0.0,0.0,0.0,0.0,0.0,0.0,0.0,0.0,0.0,0.0,0.0,0.0,0.0,0.0,0.0,0.0,0.0,0.0,0.0,0.0,0.0,0.0,0.0,0.0,0.0,0.0,0.0,0.0,0.0,0.0,0.0,0.0,0.0,0.0,0.0,0.0,0.0,0.0,0.0,0.0,0.0,0.0,0.0,0.0,0.0,0.0,0.0,0.0,0.0,0.0,0.0,0.0,0.0,0.0,0.0,0.0,0.0,0.0,0.0,0.0,0.0,0.0,0.0,0.0,0.0,0.0,0.0,0.0,0.0,0.0,0.0,0.0,0.0,0.0,0.0,0.0,0.0,0.0,0.0,0.0,0.0,0.0,0.0,0.0,0.0,0.0,0.0,0.0,0.0,0.0,0.0,0.0,0.0,0.0,0.0,0.0,0.0,0.0,0.0,0.0,0.0,0.0,0.0,0.0,0.0,0.0,0.0,0.0,0.0,0.0,0.0,0.0,0.0,0.0,0.0,0.0,0.0,0.0,0.0,0.0,0.0,0.0,0.0,0.0,0.0,0.0,0.0,0.0,0.0,0.0,0.0,0.0,0.0,0.0,0.0,0.0,0.0,0.0,0.0,0.0,0.0,0.0,0.0,0.0,0.0,0.0,0.0,0.0,0.0,0.0,0.0,0.0,0.0,0.0,0.0,0.0,0.0,0.0,0.0,0.0,0.0,0.0,0.0,0.0,0.0,0.0,0.0,0.0,0.0,0.0,0.0,0.0,0.0,0.0,0.0,0.0,0.0,0.0,0.0,0.0,0.0,0.0,0.0,0.0,0.0,0.0,0.0,0.0,0.0,0.0,0.0]}],[{"header":{"parameterUnit":"kt","parameterCategory":2,"dx":1,"dy":1,"la1":29.587661999999998,"la2":31.0,"lo1":-88.76705300000003,"lo2":-86.6583820000003,"nx":115,"ny":88,"refTime":"2022-10-09T12:00:00:Z","depth":0,"parameterNumber":2,"parameterNumberName":"V-component_of_WINDS"},"data":[-10.8241,-10.8241,-10.8241,-10.8241,-10.8241,-10.8241,-10.8465,-10.9213,-11.2017,-11.355,-11.4559,-11.684,-11.8186,-11.8186,-11.8186,-11.8186,-11.8186,-11.8261,-11.8395,-11.8528,-11.8575,-11.8654,-11.8766,-11.8945,-11.9115,-11.9296,-11.9419,-11.9515,-11.9602,-11.9679,-11.9731,-11.9763,-11.9896,-11.9944,-11.9965,-11.9936,-11.9936,-11.9936,-11.9936,-11.9936,-11.9936,-11.9953,-11.9943,-11.9961,-11.9933,-11.9933,-11.9933,-11.9933,-11.9933,-11.9933,-11.9933,-11.9933,-11.9948,-11.9937,-11.9968,-11.9968,-11.9945,-11.9936,-11.9965,-11.9965,-11.9965,-11.9895,-11.9871,-11.9807,-11.9725,-11.9659,-11.9641,-11.9597,-11.953,-11.9457,-11.9379,-11.9238,-11.9152,-11.8979,-11.8876,-11.873,-11.8573,-11.8449,-11.8283,-11.8194,-11.8149,-11.8186,-11.8186,-11.7737,-11.672,-11.5337,-11.3992,-11.2054,-10.9395,-10.8487,-10.7843,-10.7732,-10.7583,-10.7347,-10.7125,-10.7002,-10.6808,-10.652,-10.614,-10.5769,-10.5326,-10.4896,-10.4603,-10.4418,-10.4162,-10.3982,-10.3743,-10.3526,-10.3471,-10.3425,-10.3425,-10.3425,-10.3425,-10.3425,-10.3425,-10.8241,-10.8241,-10.8241,-10.8241,-10.8241,-10.8241,-10.9026,-11.0596,-11.2466,-11.4036,-11.5569,-11.7401,-11.8074,-11.8186,-11.8186,-11.8186,-11.8186,-11.8224,-11.8395,-11.8528,-11.8573,-11.8654,-11.8767,-11.8876,-11.905,-11.9208,-11.9314,-11.9419,-11.9537,-11.9641,-11.9735,-11.9752,-11.9854,-11.9971,-11.9933,-11.9955,-11.9936,-11.9936,-11.9936,-11.9936,-11.9936,-11.9936,-11.9945,-11.9937,-11.9933,-11.9933,-11.9933,-11.9933,-11.9933,-11.9933,-11.9933,-11.9933,-11.9933,-11.9933,-11.9933,-11.9937,-11.9953,-11.9936,-11.9936,-11.9936,-11.9965,-11.9955,-11.9944,-11.9871,-11.9807,-11.9725,-11.9715,-11.9641,-11.9559,-11.9468,-11.9356,-11.9249,-11.9208,-11.9115,-11.8983,-11.8841,-11.8652,-11.8449,-11.832,-11.8194,-11.8149,-11.8186,-11.8186,-11.8186,-11.7139,-11.5711,-11.4104,-11.2279,-11.0591,-10.9223,-10.8041,-10.7657,-10.762,-10.7384,-10.7125,-10.6983,-10.6867,-10.652,-10.6213,-10.5835,-10.5432,-10.5077,-10.4748,-10.4529,-10.431,-10.4015,-10.3857,-10.3562,-10.3471,-10.3425,-10.3425,-10.3425,-10.3425,-10.3425,-10.3425,-10.8241,-10.8241,-10.8241,-10.8241,-10.8241,-10.8241,-10.9213,-11.0895,-11.2615,-11.4709,-11.699,-11.7775,-11.8186,-11.8186,-11.8186,-11.8186,-11.8186,-11.8186,-11.832,-11.8444,-11.8532,-11.8615,-11.873,-11.8804,-11.8948,-11.905,-11.917,-11.9303,-11.943,-11.9581,-11.9698,-11.9735,-11.9748,-11.9845,-11.9971,-11.9944,-11.9955,-11.9936,-11.9936,-11.9936,-11.9936,-11.9936,-11.9936,-11.9936,-11.9937,-11.9933,-11.9933,-11.9933,-11.9933,-11.9933,-11.9933,-11.9933,-11.9933,-11.9933,-11.9933,-11.9933,-11.9968,-11.9936,-11.9936,-11.9936,-11.9936,-11.9965,-11.9944,-11.9933,-11.9871,-11.9769,-11.9725,-11.9715,-11.9622,-11.9537,-11.9406,-11.9303,-11.923,-11.9146,-11.9017,-11.8876,-11.8692,-11.8532,-11.8406,-11.8276,-11.8231,-11.8186,-11.8186,-11.8149,-11.7476,-11.601,-11.4321,-11.249,-11.0713,-10.9129,-10.8288,-10.7707,-10.7657,-10.7509,-10.7185,-10.6983,-10.6851,-10.6593,-10.6323,-10.5981,-10.558,-10.5258,-10.482,-10.4567,-10.4312,-10.409,-10.3892,-10.3597,-10.3507,-10.3425,-10.3425,-10.3425,-10.3425,-10.3425,-10.3425,-10.8241,-10.8241,-10.8241,-10.8241,-10.8241,-10.8241,-10.9437,-11.1494,-11.3176,-11.5532,-11.7812,-11.8149,-11.8186,-11.8186,-11.8186,-11.8186,-11.8186,-11.8186,-11.8276,-11.8363,-11.8528,-11.8613,-11.8616,-11.873,-11.8876,-11.8945,-11.9045,-11.917,-11.9303,-11.9454,-11.9564,-11.9661,-11.9715,-11.9763,-11.9896,-11.9971,-11.9944,-11.9955,-11.9955,-11.9965,-11.9965,-11.9936,-11.9936,-11.9936,-11.9953,-11.9948,-11.9933,-11.9933,-11.9933,-11.9933,-11.9933,-11.9933,-11.9933,-11.9933,-11.9933,-11.9933,-11.9957,-11.9968,-11.9953,-11.9945,-11.9945,-11.9936,-11.9955,-11.9944,-11.9933,-11.9833,-11.9769,-11.971,-11.9679,-11.9602,-11.9515,-11.9356,-11.9287,-11.914,-11.905,-11.8911,-11.8766,-11.8654,-11.8528,-11.8406,-11.8276,-11.8231,-11.8186,-11.7887,-11.7401,-11.6234,-11.4694,-11.2886,-11.1143,-10.9335,-10.8459,-10.7816,-10.7719,-10.7533,-10.7246,-10.6983,-10.6834,-10.6653,-10.6396,-10.6061,-10.5727,-10.5366,-10.4932,-10.4569,-10.4312,-10.4087,-10.3928,-10.3597,-10.3507,-10.3425,-10.3425,-10.3425,-10.3425,-10.3425,-10.3425,-10.8241,-10.8241,-10.8241,-10.8241,-10.8241,-10.839,-11.0148,-11.3139,-11.4672,-11.6466,-11.7887,-11.8186,-11.8186,-11.8186,-11.8186,-11.8186,-11.8186,-11.8149,-11.8231,-11.8363,-11.8486,-11.8573,-11.8577,-11.873,-11.884,-11.8911,-11.8979,-11.9077,-11.9192,-11.9318,-11.9439,-11.9526,-11.9623,-11.9752,-11.9801,-11.9896,-11.9921,-11.9883,-11.9895,-11.9944,-11.9927,-11.9936,-11.9936,-11.9936,-11.9961,-11.9937,-11.9961,-11.9961,-11.9933,-11.9933,-11.9933,-11.9933,-11.9933,-11.9933,-11.9933,-11.9933,-11.9933,-11.9933,-11.9937,-11.9961,-11.9961,-11.9945,-11.9965,-11.9955,-11.9944,-11.9883,-11.9795,-11.9755,-11.9715,-11.9641,-11.9537,-11.9444,-11.9314,-11.917,-11.9115,-11.9017,-11.8838,-11.8692,-11.8613,-11.8444,-11.8357,-11.8186,-11.8186,-11.8149,-11.7663,-11.7169,-11.5703,-11.3641,-11.172,-10.9689,-10.8711,-10.7882,-10.773,-10.757,-10.7283,-10.702,-10.6834,-10.669,-10.647,-10.6164,-10.5825,-10.5435,-10.5039,-10.4751,-10.4423,-10.4198,-10.3928,-10.3678,-10.346,-10.346,-10.3425,-10.3425,-10.3425,-10.3425,-10.3425,-10.8241,-10.8241,-10.8241,-10.8241,-10.8428,-10.9362,-11.1082,-11.3326,-11.4971,-11.6616,-11.8074,-11.8186,-11.8186,-11.8186,-11.8186,-11.8186,-11.8186,-11.8149,-11.8194,-11.832,-11.8363,-11.8453,-11.8575,-11.8616,-11.873,-11.884,-11.8911,-11.9012,-11.917,-11.9276,-11.9343,-11.9439,-11.9526,-11.9661,-11.9752,-11.9801,-11.9793,-11.9807,-11.982,-11.9883,-11.9933,-11.9944,-11.9955,-11.9936,-11.9945,-11.9953,-11.9936,-11.9936,-11.9943,-11.9933,-11.9933,-11.9933,-11.9933,-11.9933,-11.9933,-11.9933,-11.9933,-11.9933,-11.9957,-11.9943,-11.9953,-11.9936,-11.9936,-11.9965,-11.9955,-11.9944,-11.9845,-11.9782,-11.9748,-11.9679,-11.9619,-11.9506,-11.9341,-11.917,-11.9146,-11.905,-11.8911,-11.8766,-11.8654,-11.8528,-11.8401,-11.8231,-11.8186,-11.8186,-11.7924,-11.7243,-11.5973,-11.3984,-11.2072,-10.9892,-10.8496,-10.7928,-10.7778,-10.757,-10.7342,-10.7056,-10.6891,-10.6676,-10.6459,-10.6242,-10.5945,-10.5603,-10.5184,-10.486,-10.4531,-10.4271,-10.4006,-10.3678,-10.3496,-10.346,-10.3425,-10.3425,-10.3425,-10.3425,-10.3425,-10.8241,-10.8241,-10.8241,-10.8241,-10.8502,-11.0073,-11.2054,-11.4111,-11.5681,-11.6952,-11.8186,-11.8186,-11.8186,-11.8186,-11.8186,-11.8186,-11.8186,-11.8186,-11.8186,-11.8231,-11.832,-11.8444,-11.8491,-11.8577,-11.8654,-11.873,-11.884,-11.8983,-11.9115,-11.923,-11.9276,-11.9381,-11.9477,-11.9564,-11.9641,-11.9659,-11.9715,-11.9731,-11.9741,-11.9807,-11.9871,-11.9933,-11.9944,-11.9955,-11.9936,-11.9936,-11.9936,-11.9936,-11.9953,-11.9957,-11.9933,-11.9933,-11.9933,-11.9933,-11.9933,-11.9933,-11.9933,-11.9933,-11.9933,-11.9943,-11.9945,-11.9953,-11.9945,-11.9936,-11.9965,-11.9955,-11.9895,-11.9782,-11.9703,-11.9659,-11.9602,-11.9515,-11.9431,-11.9258,-11.9177,-11.9083,-11.8983,-11.8804,-11.8692,-11.8532,-11.8486,-11.832,-11.8186,-11.8186,-11.7962,-11.7206,-11.601,-11.426,-11.2235,-10.9713,-10.8198,-10.7966,-10.7741,-10.7546,-10.7305,-10.7093,-10.6911,-10.6698,-10.6435,-10.6223,-10.604,-10.578,-10.5364,-10.5113,-10.4787,-10.4493,-10.4078,-10.3758,-10.3496,-10.3496,-10.346,-10.3425,-10.3425,-10.3425,-10.3425,-10.8241,-10.8241,-10.8241,-10.8241,-10.854,-11.0073,-11.254,-11.5532,-11.7289,-11.8037,-11.8186,-11.8186,-11.8186,-11.8186,-11.8186,-11.8186,-11.8186,-11.8186,-11.8186,-11.8231,-11.8276,-11.832,-11.8411,-11.8497,-11.854,-11.8617,-11.873,-11.884,-11.8983,-11.9077,-11.9258,-11.933,-11.9381,-11.9454,-11.9521,-11.9564,-11.9622,-11.9661,-11.9677,-11.9763,-11.9793,-11.9871,-11.9921,-11.9944,-11.9955,-11.9965,-11.9936,-11.9936,-11.9945,-11.9945,-11.9953,-11.9948,-11.9933,-11.9933,-11.9933,-11.9933,-11.9933,-11.9933,-11.9933,-11.9933,-11.993,-11.9968,-11.9953,-11.9945,-11.9936,-11.9927,-11.9906,-11.9833,-11.9731,-11.9639,-11.9584,-11.9537,-11.9506,-11.9341,-11.9238,-11.9115,-11.8983,-11.884,-11.8692,-11.8613,-11.8491,-11.8363,-11.8231,-11.8186,-11.8074,-11.7139,-11.5711,-11.4154,-11.2583,-10.9943,-10.816,-10.7891,-10.7752,-10.7558,-10.7357,-10.7184,-10.6947,-10.683,-10.6593,-10.6286,-10.6113,-10.5889,-10.5505,-10.5149,-10.5005,-10.4713,-10.4307,-10.388,-10.366,-10.3496,-10.346,-10.346,-10.3425,-10.3425,-10.3425,-10.8241,-10.8241,-10.8241,-10.8241,-10.854,-11.0073,-11.2017,-11.4335,-11.6952,-11.8186,-11.8186,-11.8186,-11.8186,-11.8186,-11.8186,-11.8186,-11.8186,-11.8186,-11.8186,-11.8186,-11.8194,-11.8276,-11.8363,-11.8449,-11.8497,-11.8578,-11.8655,-11.8766,-11.8948,-11.9017,-11.9077,-11.923,-11.9314,-11.9368,-11.9381,-11.943,-11.9515,-11.9581,-11.9604,-11.9679,-11.9731,-11.9816,-11.9883,-11.9921,-11.9944,-11.9955,-11.9965,-11.9936,-11.9936,-11.9936,-11.9936,-11.9953,-11.9943,-11.9933,-11.9933,-11.9933,-11.9933,-11.9933,-11.9933,-11.9933,-11.9948,-11.9937,-11.9937,-11.9961,-11.9936,-11.9936,-11.9906,-11.9883,-11.9782,-11.9725,-11.9661,-11.9559,-11.9468,-11.9356,-11.923,-11.9115,-11.9017,-11.8876,-11.8692,-11.8615,-11.8532,-11.8406,-11.8231,-11.8231,-11.8186,-11.6878,-11.5412,-11.4341,-11.3,-11.0286,-10.8056,-10.7891,-10.7714,-10.757,-10.7371,-10.7163,-10.7058,-10.6925,-10.6667,-10.636,-10.6113,-10.5951,-10.5571,-10.5219,-10.504,-10.4824,-10.4382,-10.4114,-10.3821,-10.3649,-10.3532,-10.346,-10.3425,-10.3425,-10.3425,-10.8241,-10.8241,-10.8241,-10.8241,-10.8615,-11.0671,-11.2241,-11.3812,-11.6578,-11.8186,-11.8186,-11.8186,-11.8186,-11.8186,-11.8186,-11.8186,-11.8186,-11.8186,-11.8186,-11.8186,-11.8186,-11.8231,-11.832,-11.8363,-11.8411,-11.8497,-11.8578,-11.8692,-11.884,-11.8948,-11.9017,-11.9083,-11.9208,-11.9276,-11.9267,-11.9341,-11.9419,-11.9492,-11.9537,-11.9564,-11.9661,-11.9735,-11.9801,-11.9858,-11.9833,-11.9895,-11.9955,-11.9955,-11.9965,-11.9936,-11.9936,-11.9936,-11.9953,-11.9937,-11.9933,-11.9933,-11.9933,-11.9933,-11.9933,-11.9933,-11.9933,-11.9953,-11.9937,-11.9953,-11.9936,-11.9936,-11.9955,-11.9933,-11.9833,-11.9741,-11.9697,-11.9602,-11.9515,-11.9381,-11.9249,-11.914,-11.905,-11.8911,-11.873,-11.8654,-11.8573,-11.8406,-11.832,-11.8276,-11.8186,-11.7214,-11.5195,-11.393,-11.3117,-11.0516,-10.8019,-10.7899,-10.7761,-10.7582,-10.7447,-10.7222,-10.7052,-10.6945,-10.674,-10.6396,-10.6169,-10.6011,-10.5671,-10.5253,-10.5075,-10.4896,-10.4605,-10.4307,-10.4059,-10.3848,-10.3649,-10.3532,-10.346,-10.3425,-10.3425,-10.8241,-10.8241,-10.8241,-10.8315,-10.8876,-11.1905,-11.3363,-11.4036,-11.684,-11.8186,-11.8186,-11.8186,-11.8186,-11.8186,-11.8186,-11.8186,-11.8186,-11.8186,-11.8186,-11.8186,-11.8186,-11.8186,-11.8231,-11.8276,-11.8363,-11.8369,-11.8457,-11.854,-11.8617,-11.8766,-11.8911,-11.8979,-11.905,-11.912,-11.9017,-11.9238,-11.9341,-11.9381,-11.9468,-11.95,-11.9602,-11.9641,-11.9735,-11.9748,-11.9755,-11.982,-11.9883,-11.9933,-11.9944,-11.9965,-11.9965,-11.9936,-11.9936,-11.9945,-11.9943,-11.9969,-11.9933,-11.9933,-11.9933,-11.9933,-11.9933,-11.9933,-11.993,-11.9953,-11.9945,-11.9936,-11.9965,-11.9906,-11.9833,-11.9717,-11.9693,-11.9622,-11.9559,-11.9468,-11.9276,-11.9133,-11.9077,-11.8979,-11.8802,-11.8654,-11.8613,-11.8528,-11.8363,-11.8276,-11.8231,-11.7177,-11.5008,-11.3706,-11.2925,-11.0858,-10.8369,-10.7899,-10.7845,-10.7704,-10.7558,-10.7323,-10.712,-10.7002,-10.6837,-10.6557,-10.627,-10.6068,-10.5732,-10.5323,-10.511,-10.5003,-10.4751,-10.4531,-10.4343,-10.4149,-10.3909,-10.3614,-10.346,-10.3425,-10.3425,-10.8241,-10.8241,-10.8241,-10.8951,-11.026,-11.2428,-11.388,-11.5195,-11.7251,-11.8186,-11.8186,-11.8186,-11.8186,-11.8186,-11.8186,-11.8186,-11.8186,-11.8186,-11.8186,-11.8186,-11.8186,-11.8186,-11.8186,-11.8269,-11.8313,-11.8401,-11.8449,-11.8497,-11.854,-11.8655,-11.873,-11.8802,-11.8838,-11.8948,-11.8945,-11.914,-11.9192,-11.9249,-11.933,-11.943,-11.9416,-11.9543,-11.9604,-11.9697,-11.9693,-11.9778,-11.982,-11.9883,-11.9933,-11.9944,-11.9955,-11.9965,-11.9936,-11.9936,-11.9945,-11.9961,-11.9933,-11.9933,-11.9933,-11.9933,-11.9933,-11.9933,-11.9943,-11.9968,-11.9961,-11.9953,-11.9936,-11.9917,-11.9808,-11.9731,-11.9717,-11.9641,-11.9581,-11.9492,-11.9303,-11.9221,-11.917,-11.9083,-11.8911,-11.8692,-11.8654,-11.8573,-11.8449,-11.8395,-11.8351,-11.767,-11.5419,-11.3774,-11.2701,-11.0596,-10.845,-10.7982,-10.7891,-10.7778,-10.7707,-10.7421,-10.7208,-10.7058,-10.6919,-10.6643,-10.6349,-10.6087,-10.5755,-10.5494,-10.525,-10.5038,-10.4859,-10.4642,-10.4533,-10.4423,-10.4114,-10.3785,-10.3588,-10.346,-10.346,-10.8241,-10.8241,-10.8241,-10.925,-11.0933,-11.2609,-11.4179,-11.5793,-11.7401,-11.8186,-11.8186,-11.8186,-11.8186,-11.8186,-11.8186,-11.8186,-11.8186,-11.8186,-11.8186,-11.8186,-11.8186,-11.8186,-11.8186,-11.8186,-11.8231,-11.8276,-11.8401,-11.8449,-11.846,-11.8578,-11.8654,-11.8692,-11.8692,-11.8767,-11.8876,-11.8941,-11.9109,-11.917,-11.9221,-11.933,-11.9356,-11.9416,-11.9505,-11.9641,-11.9641,-11.9693,-11.9741,-11.9807,-11.9871,-11.9895,-11.9944,-11.9965,-11.9965,-11.9936,-11.9936,-11.9945,-11.9945,-11.9961,-11.9933,-11.9933,-11.9933,-11.9933,-11.9933,-11.9943,-11.9948,-11.9961,-11.9936,-11.9927,-11.9857,-11.9782,-11.9769,-11.9677,-11.9602,-11.9515,-11.9419,-11.9341,-11.9296,-11.9146,-11.8983,-11.8804,-11.8692,-11.8575,-11.8528,-11.8476,-11.8395,-11.8007,-11.5793,-11.3737,-11.191,-10.9965,-10.8754,-10.8063,-10.7937,-10.7873,-10.7704,-10.7521,-10.7246,-10.7113,-10.6961,-10.6735,-10.6506,-10.619,-10.595,-10.5629,-10.5356,-10.5178,-10.5001,-10.4859,-10.4678,-10.4531,-10.4303,-10.3988,-10.3705,-10.3532,-10.3496,-10.8241,-10.8278,-10.839,-10.9512,-11.1194,-11.2758,-11.4403,-11.6205,-11.7551,-11.8149,-11.8186,-11.8186,-11.8186,-11.8186,-11.8186,-11.8186,-11.8186,-11.8186,-11.8186,-11.8186,-11.8186,-11.8186,-11.8186,-11.8186,-11.8186,-11.8231,-11.8276,-11.832,-11.8369,-11.8497,-11.8535,-11.8569,-11.8615,-11.8616,-11.8655,-11.8802,-11.8945,-11.9115,-11.917,-11.923,-11.9314,-11.9356,-11.9416,-11.9484,-11.9564,-11.9604,-11.9693,-11.9748,-11.9778,-11.9909,-11.9933,-11.9944,-11.9965,-11.9965,-11.9936,-11.9936,-11.9936,-11.9936,-11.9961,-11.9933,-11.9933,-11.9933,-11.9933,-11.9967,-11.9943,-11.9953,-11.9936,-11.9927,-11.9944,-11.9883,-11.9755,-11.9693,-11.9641,-11.9559,-11.9468,-11.9394,-11.9324,-11.9177,-11.905,-11.884,-11.873,-11.8616,-11.8573,-11.8532,-11.8453,-11.7422,-11.5351,-11.3999,-11.2022,-10.9816,-10.8679,-10.8107,-10.7982,-10.7854,-10.7733,-10.7592,-10.7347,-10.7237,-10.7039,-10.6851,-10.6609,-10.6349,-10.615,-10.5865,-10.553,-10.5247,-10.5035,-10.4894,-10.4751,-10.4603,-10.4411,-10.4174,-10.3892,-10.366,-10.3507,-10.8241,-10.839,-10.9629,-11.1125,-11.284,-11.4366,-11.5935,-11.7476,-11.7999,-11.8186,-11.8186,-11.8186,-11.8186,-11.8186,-11.8186,-11.8186,-11.8186,-11.8186,-11.8186,-11.8186,-11.8186,-11.8186,-11.8186,-11.8186,-11.8186,-11.8186,-11.8231,-11.8313,-11.8363,-11.8406,-11.8449,-11.8444,-11.8494,-11.8538,-11.8578,-11.8655,-11.884,-11.8983,-11.9045,-11.914,-11.923,-11.9287,-11.9394,-11.943,-11.9477,-11.9543,-11.9604,-11.9679,-11.9715,-11.9816,-11.9896,-11.9933,-11.9944,-11.9955,-11.9965,-11.9936,-11.9936,-11.9936,-11.9945,-11.9961,-11.9953,-11.9933,-11.9933,-11.9967,-11.9968,-11.9945,-11.9936,-11.9936,-11.9944,-11.9883,-11.9769,-11.9725,-11.9679,-11.9581,-11.9492,-11.9419,-11.9314,-11.9208,-11.905,-11.8876,-11.873,-11.8654,-11.8616,-11.854,-11.7935,-11.6833,-11.5544,-11.4186,-11.198,-10.9516,-10.861,-10.8151,-10.7982,-10.7891,-10.7724,-10.763,-10.7484,-10.7342,-10.7188,-10.6961,-10.6698,-10.6483,-10.6275,-10.6023,-10.5696,-10.5421,-10.5211,-10.4999,-10.4822,-10.4714,-10.4523,-10.4324,-10.4088,-10.3749,-10.3597,-10.8241,-10.8428,-11.004,-11.1761,-11.3438,-11.5001,-11.6608,-11.7924,-11.8186,-11.8186,-11.8186,-11.8186,-11.8186,-11.8186,-11.8186,-11.8186,-11.8186,-11.8186,-11.8186,-11.8186,-11.8186,-11.8186,-11.8186,-11.8186,-11.8186,-11.8186,-11.8186,-11.8231,-11.8276,-11.8276,-11.8313,-11.8357,-11.8444,-11.8453,-11.8457,-11.854,-11.8692,-11.8804,-11.8948,-11.9012,-11.9109,-11.92,-11.9324,-11.9368,-11.9406,-11.9477,-11.9521,-11.966,-11.9679,-11.9715,-11.9816,-11.9858,-11.9933,-11.9944,-11.9965,-11.9965,-11.9936,-11.9936,-11.9936,-11.9936,-11.9943,-11.9933,-11.9933,-11.9933,-11.9961,-11.9953,-11.9961,-11.9936,-11.9955,-11.9895,-11.9782,-11.9717,-11.9621,-11.9564,-11.9537,-11.9468,-11.9431,-11.923,-11.9077,-11.8941,-11.8838,-11.8766,-11.873,-11.8504,-11.7864,-11.6429,-11.4844,-11.3374,-11.1312,-10.9255,-10.8535,-10.8194,-10.8026,-10.7937,-10.7808,-10.7704,-10.7558,-10.7408,-10.7261,-10.7076,-10.6793,-10.658,-10.6399,-10.615,-10.5894,-10.5623,-10.5384,-10.5211,-10.5038,-10.4787,-10.4598,-10.4478,-10.4281,-10.3945,-10.3758,-10.8241,-10.8428,-11.0343,-11.1948,-11.3475,-11.53,-11.687,-11.8111,-11.8186,-11.8186,-11.8186,-11.8186,-11.8186,-11.8186,-11.8186,-11.8186,-11.8186,-11.8186,-11.8186,-11.8186,-11.8186,-11.8186,-11.8186,-11.8186,-11.8186,-11.8186,-11.8186,-11.8186,-11.8186,-11.8186,-11.8186,-11.8231,-11.832,-11.8363,-11.8369,-11.8457,-11.8577,-11.8578,-11.8692,-11.884,-11.8911,-11.9077,-11.9238,-11.9287,-11.933,-11.9381,-11.9492,-11.9521,-11.9564,-11.9661,-11.9715,-11.9816,-11.9871,-11.9921,-11.9944,-11.9955,-11.9965,-11.9936,-11.9936,-11.9945,-11.9943,-11.9933,-11.9933,-11.9933,-11.9948,-11.9943,-11.9937,-11.9936,-11.9936,-11.9879,-11.9795,-11.9731,-11.9672,-11.9623,-11.9559,-11.9553,-11.9506,-11.9314,-11.9109,-11.8975,-11.8979,-11.8873,-11.8201,-11.8052,-11.764,-11.5836,-11.4027,-11.2331,-11.0643,-10.9217,-10.8236,-10.8194,-10.8107,-10.7989,-10.7862,-10.7741,-10.7595,-10.7472,-10.7274,-10.7132,-10.6908,-10.6713,-10.6533,-10.6275,-10.6087,-10.5792,-10.5543,-10.5312,-10.511,-10.4896,-10.4712,-10.4559,-10.4437,-10.4138,-10.388,-10.8241,-10.8502,-11.1503,-11.3,-11.3774,-11.6429,-11.7887,-11.8111,-11.8186,-11.8186,-11.8186,-11.8186,-11.8186,-11.8186,-11.8186,-11.8186,-11.8186,-11.8186,-11.8186,-11.8186,-11.8186,-11.8111,-11.8149,-11.8186,-11.7999,-11.7812,-11.785,-11.8186,-11.7775,-11.7887,-11.8074,-11.7999,-11.8156,-11.8276,-11.8363,-11.8449,-11.8528,-11.8573,-11.8615,-11.8617,-11.873,-11.8911,-11.9045,-11.9162,-11.9192,-11.9276,-11.9381,-11.9392,-11.9462,-11.9564,-11.9661,-11.9752,-11.9778,-11.9871,-11.9933,-11.9944,-11.9965,-11.9965,-11.9945,-11.9961,-11.9968,-11.9937,-11.9964,-11.9933,-11.9967,-11.9953,-11.9937,-11.9945,-11.9936,-11.9917,-11.9845,-11.9782,-11.9688,-11.9679,-11.9619,-11.9492,-11.9468,-11.933,-11.9133,-11.9109,-11.9115,-11.841,-11.7029,-11.6546,-11.5685,-11.396,-11.2833,-11.1179,-10.9861,-10.8585,-10.8278,-10.8236,-10.8156,-10.8039,-10.7907,-10.7836,-10.767,-10.7496,-10.7327,-10.7187,-10.7002,-10.6867,-10.6653,-10.6399,-10.6213,-10.6014,-10.5694,-10.5492,-10.5247,-10.5041,-10.4749,-10.4526,-10.4406,-10.418,-10.3994,-10.8727,-10.9778,-11.2256,-11.3748,-11.4821,-11.7177,-11.8186,-11.8186,-11.8186,-11.8186,-11.8186,-11.8186,-11.8186,-11.8186,-11.8186,-11.8186,-11.8186,-11.8186,-11.8186,-11.8186,-11.8111,-11.785,-11.6952,-11.6915,-11.6952,-11.6765,-11.6167,-11.5718,-11.5905,-11.6541,-11.6878,-11.7102,-11.785,-11.8194,-11.8239,-11.832,-11.8444,-11.8486,-11.8573,-11.8615,-11.8617,-11.8655,-11.8873,-11.9007,-11.914,-11.9192,-11.9239,-11.933,-11.943,-11.9559,-11.9584,-11.9679,-11.9731,-11.9816,-11.9845,-11.9833,-11.9895,-11.9955,-11.9936,-11.9953,-11.9961,-11.9945,-11.9968,-11.9961,-11.9933,-11.9957,-11.9961,-11.9936,-11.9936,-11.9965,-11.9933,-11.9795,-11.9703,-11.9715,-11.9622,-11.9559,-11.9492,-11.9356,-11.9249,-11.9267,-11.8408,-11.7104,-11.5773,-11.4662,-11.3656,-11.257,-11.1483,-11.0207,-10.8852,-10.8398,-10.8353,-10.8315,-10.8199,-10.8124,-10.8001,-10.7873,-10.7769,-10.7644,-10.7453,-10.7241,-10.7077,-10.6965,-10.6756,-10.652,-10.6362,-10.6202,-10.5857,-10.562,-10.5352,-10.5077,-10.4858,-10.4673,-10.4523,-10.4257,-10.403,-10.925,-11.0975,-11.2626,-11.4197,-11.5756,-11.7438,-11.8186,-11.8186,-11.8186,-11.8186,-11.8186,-11.8186,-11.8186,-11.8186,-11.8186,-11.8186,-11.8186,-11.8111,-11.7962,-11.7551,-11.7476,-11.6691,-11.5569,-11.5307,-11.4964,-11.4515,-11.3686,-11.3312,-11.3798,-11.4515,-11.5412,-11.5943,-11.699,-11.7924,-11.8082,-11.8276,-11.8357,-11.8363,-11.8449,-11.8494,-11.8538,-11.8578,-11.8692,-11.8945,-11.9077,-11.9133,-11.9192,-11.9276,-11.9381,-11.9492,-11.9521,-11.9604,-11.9697,-11.9731,-11.9725,-11.9755,-11.9871,-11.9944,-11.9965,-11.9936,-11.9936,-11.9936,-11.9945,-11.9937,-11.9933,-11.9948,-11.9945,-11.9936,-11.9936,-11.9936,-11.9944,-11.9845,-11.9769,-11.971,-11.9679,-11.9602,-11.9408,-11.8811,-11.8134,-11.817,-11.7049,-11.5776,-11.4473,-11.3299,-11.2255,-11.1172,-11.0389,-10.9418,-10.8632,-10.8553,-10.8473,-10.8357,-10.8278,-10.8166,-10.8091,-10.8003,-10.7868,-10.767,-10.7556,-10.7348,-10.7187,-10.7058,-10.6854,-10.6719,-10.6506,-10.6325,-10.603,-10.5794,-10.5447,-10.5144,-10.5005,-10.4856,-10.4634,-10.4375,-10.4149,-10.925,-11.0895,-11.2615,-11.4223,-11.5793,-11.7438,-11.8186,-11.8186,-11.8186,-11.8186,-11.8186,-11.8186,-11.8186,-11.8186,-11.8186,-11.8186,-11.8186,-11.8111,-11.7326,-11.6391,-11.6167,-11.5038,-11.388,-11.3319,-11.2752,-11.1301,-11.0966,-11.1674,-11.2541,-11.3408,-11.3977,-11.5246,-11.589,-11.6758,-11.7887,-11.8194,-11.8231,-11.8231,-11.832,-11.8406,-11.8411,-11.8538,-11.8692,-11.8876,-11.9017,-11.9045,-11.9133,-11.9154,-11.9239,-11.9343,-11.9492,-11.9559,-11.9584,-11.9623,-11.9715,-11.9672,-11.9441,-11.9402,-11.9299,-11.9547,-11.9633,-11.9936,-11.9822,-11.9823,-11.9705,-11.9498,-11.9422,-11.9574,-11.9498,-11.9468,-11.9898,-11.9451,-11.9492,-11.9528,-11.9618,-11.9717,-11.9187,-11.7066,-11.63,-11.6231,-11.5399,-11.4004,-11.2825,-11.1925,-11.0809,-10.9809,-10.9438,-10.8961,-10.8819,-10.8669,-10.8553,-10.8398,-10.836,-10.8282,-10.8203,-10.8094,-10.7966,-10.7789,-10.7657,-10.7453,-10.7332,-10.7204,-10.7022,-10.6854,-10.6661,-10.6483,-10.6264,-10.5904,-10.5536,-10.5228,-10.5069,-10.4968,-10.4673,-10.4451,-10.4226,-11.0634,-11.2279,-11.388,-11.5487,-11.699,-11.7812,-11.8186,-11.8186,-11.8186,-11.8186,-11.8186,-11.8186,-11.8186,-11.8186,-11.8186,-11.8186,-11.8186,-11.8149,-11.7251,-11.5711,-11.4582,-11.3379,-11.199,-11.0825,-11.0116,-10.9316,-10.9084,-10.9419,-11.0351,-11.1143,-11.2122,-11.2765,-11.4631,-11.5769,-11.6645,-11.7608,-11.7991,-11.8111,-11.8231,-11.832,-11.8363,-11.8491,-11.8575,-11.8767,-11.8911,-11.8979,-11.9039,-11.9095,-11.9211,-11.9303,-11.9394,-11.9444,-11.9401,-11.8786,-11.8449,-11.8199,-11.7822,-11.7255,-11.7278,-11.7261,-11.7356,-11.7204,-11.7267,-11.7286,-11.7338,-11.7351,-11.7367,-11.7373,-11.7403,-11.7343,-11.7242,-11.7289,-11.7202,-11.7166,-11.7072,-11.6738,-11.6305,-11.5893,-11.5322,-11.3998,-11.3485,-11.2262,-11.1222,-11.0551,-10.9676,-10.9528,-10.9089,-10.8976,-10.8845,-10.8745,-10.8631,-10.8515,-10.8438,-10.836,-10.8319,-10.8199,-10.8076,-10.7937,-10.7768,-10.7593,-10.7386,-10.7311,-10.7147,-10.6985,-10.6798,-10.6602,-10.6386,-10.605,-10.5682,-10.5379,-10.5178,-10.504,-10.4858,-10.4526,-10.4339,-11.1793,-11.3475,-11.5001,-11.6645,-11.8037,-11.8186,-11.8186,-11.8186,-11.8186,-11.8186,-11.8186,-11.8186,-11.8186,-11.8186,-11.8186,-11.8186,-11.8186,-11.8074,-11.7169,-11.5367,-11.3595,-11.16,-10.9857,-10.8729,-10.7985,-10.7948,-10.7873,-10.791,-10.8171,-10.9335,-11.0015,-11.0649,-11.2848,-11.4472,-11.5051,-11.6432,-11.7487,-11.7617,-11.8037,-11.8194,-11.832,-11.8363,-11.8411,-11.8538,-11.8766,-11.8873,-11.8979,-11.9064,-11.8965,-11.873,-11.8343,-11.7868,-11.7756,-11.7094,-11.6687,-11.646,-11.5579,-11.4992,-11.4953,-11.5203,-11.4995,-11.5231,-11.5369,-11.4927,-11.5058,-11.5295,-11.5221,-11.5117,-11.508,-11.5383,-11.5336,-11.5023,-11.524,-11.5219,-11.4878,-11.4055,-11.3017,-11.3771,-11.3451,-11.224,-11.154,-11.0967,-10.9697,-10.9547,-10.9403,-10.9167,-10.9062,-10.9016,-10.8907,-10.8855,-10.8745,-10.8632,-10.8517,-10.8403,-10.8363,-10.8245,-10.8124,-10.8039,-10.7863,-10.7668,-10.7491,-10.7327,-10.7237,-10.7039,-10.6911,-10.6667,-10.6418,-10.6154,-10.5938,-10.5671,-10.5362,-10.5113,-10.4859,-10.4637,-10.4339,-11.1793,-11.3475,-11.5038,-11.6645,-11.8037,-11.8186,-11.8186,-11.8186,-11.8186,-11.8186,-11.8186,-11.8186,-11.8186,-11.8186,-11.8186,-11.8186,-11.8186,-11.7841,-11.6786,-11.4827,-11.2373,-10.9996,-10.8425,-10.7818,-10.767,-10.767,-10.7707,-10.7707,-10.783,-10.7879,-10.882,-11.0011,-11.0639,-11.1794,-11.3295,-11.4882,-11.5685,-11.6031,-11.7131,-11.7812,-11.7932,-11.8245,-11.8363,-11.8411,-11.8577,-11.873,-11.8876,-11.8786,-11.8216,-11.6833,-11.5483,-11.522,-11.5036,-11.4984,-11.4809,-11.4776,-11.4508,-11.4358,-11.4689,-11.4384,-11.4634,-11.4473,-11.4557,-11.4974,-11.4648,-11.4491,-11.4466,-11.4424,-11.5041,-11.4633,-11.4548,-11.4691,-11.4492,-11.4168,-11.3664,-11.2325,-11.0834,-11.035,-11.0362,-10.9946,-10.9946,-10.9837,-10.9541,-10.9446,-10.9413,-10.9224,-10.9149,-10.9082,-10.9008,-10.8961,-10.8855,-10.8745,-10.8595,-10.8481,-10.8403,-10.8363,-10.8245,-10.8124,-10.7957,-10.7842,-10.7633,-10.7482,-10.7342,-10.7147,-10.6985,-10.68,-10.6519,-10.6325,-10.6084,-10.5821,-10.5507,-10.5257,-10.5004,-10.4713,-10.4526,-11.269,-11.355,-11.6092,-11.7551,-11.8111,-11.8186,-11.8186,-11.8186,-11.8186,-11.8186,-11.8186,-11.8186,-11.8186,-11.8186,-11.814,-11.8094,-11.7945,-11.6907,-11.5553,-11.379,-11.141,-10.9404,-10.7991,-10.7482,-10.7482,-10.7482,-10.7445,-10.7482,-10.7482,-10.762,-10.8004,-10.8821,-10.9701,-11.0494,-11.1474,-11.2986,-11.3891,-11.4285,-11.5648,-11.66,-11.6749,-11.7663,-11.8126,-11.8363,-11.8449,-11.8535,-11.8542,-11.7895,-11.6757,-11.5364,-11.4555,-11.423,-11.4201,-11.3575,-11.3041,-11.3052,-11.2239,-11.1828,-11.1908,-11.1945,-11.1978,-11.2073,-11.2044,-11.2098,-11.2226,-11.2156,-11.2144,-11.2264,-11.2108,-11.2162,-11.2136,-11.2082,-11.2035,-11.214,-11.1647,-11.0954,-10.9996,-10.9798,-10.981,-10.9781,-10.9691,-10.9637,-10.9571,-10.9471,-10.9434,-10.937,-10.9231,-10.9177,-10.9069,-10.9024,-10.8929,-10.8855,-10.8745,-10.8595,-10.852,-10.8401,-10.8357,-10.8241,-10.8101,-10.7974,-10.7799,-10.773,-10.7459,-10.7268,-10.711,-10.6911,-10.6689,-10.644,-10.626,-10.5962,-10.5618,-10.5366,-10.5149,-10.4896,-10.4637,-11.2914,-11.3625,-11.6354,-11.7775,-11.8149,-11.8186,-11.8186,-11.8186,-11.8186,-11.8186,-11.8186,-11.8186,-11.8186,-11.8103,-11.8047,-11.7962,-11.7493,-11.6102,-11.4377,-11.2714,-11.0557,-10.8697,-10.7705,-10.7342,-10.7253,-10.7253,-10.7216,-10.7253,-10.7253,-10.7431,-10.7542,-10.7579,-10.8721,-10.9342,-10.9701,-11.1201,-11.2032,-11.2438,-11.3949,-11.4817,-11.5051,-11.6151,-11.6878,-11.7047,-11.6978,-11.6983,-11.7025,-11.6211,-11.4993,-11.3525,-11.3062,-11.2859,-11.2646,-11.1838,-11.1332,-11.1232,-11.0385,-10.9735,-10.9885,-10.9962,-10.9958,-10.9977,-11.0328,-11.0049,-11.0031,-11.0087,-11.0063,-11.005,-11.0062,-11.0172,-11.0112,-11.0163,-11.0155,-11.0041,-11.0261,-11.01,-10.9892,-10.9844,-10.9822,-10.9823,-10.9747,-10.9705,-10.9608,-10.9547,-10.9471,-10.9433,-10.9333,-10.9233,-10.9149,-10.9083,-10.8999,-10.8926,-10.8853,-10.8705,-10.8632,-10.8515,-10.8432,-10.8319,-10.8236,-10.8113,-10.7974,-10.7873,-10.7607,-10.7371,-10.7179,-10.7036,-10.6817,-10.6559,-10.6325,-10.6157,-10.5756,-10.5511,-10.5258,-10.5005,-10.4784,-11.1867,-11.3513,-11.5127,-11.666,-11.7962,-11.8037,-11.8074,-11.8186,-11.8186,-11.8186,-11.8186,-11.8186,-11.814,-11.801,-11.8,-11.7754,-11.7419,-11.571,-11.3986,-11.1956,-10.9379,-10.7579,-10.7237,-10.7147,-10.7147,-10.7093,-10.7093,-10.7093,-10.7093,-10.7147,-10.713,-10.7204,-10.7549,-10.7528,-10.8061,-10.9429,-11.0345,-11.0655,-11.2129,-11.3129,-11.3213,-11.3595,-11.376,-11.3886,-11.3973,-11.4015,-11.4128,-11.3771,-11.2944,-11.1431,-11.0293,-10.9867,-10.9686,-10.9608,-10.9835,-10.9946,-10.9742,-10.9701,-10.9766,-10.981,-10.981,-10.9844,-10.994,-11.0033,-11.0041,-11.0033,-11.0041,-11.0056,-11.0053,-11.0062,-11.0061,-11.0041,-11.0056,-11.0036,-11.0049,-11.0033,-10.9987,-10.9892,-10.9833,-10.9833,-10.981,-10.9772,-10.9697,-10.9628,-10.9547,-10.9465,-10.9449,-10.9329,-10.9245,-10.9167,-10.9095,-10.9029,-10.8954,-10.8845,-10.8738,-10.8632,-10.8553,-10.8438,-10.8353,-10.8226,-10.8094,-10.7966,-10.7799,-10.7484,-10.7246,-10.7068,-10.6925,-10.667,-10.6483,-10.6206,-10.5957,-10.5582,-10.533,-10.5113,-10.493,-11.1157,-11.1905,-11.3519,-11.5127,-11.6541,-11.6616,-11.7177,-11.8111,-11.8186,-11.8103,-11.8057,-11.8057,-11.8,-11.7866,-11.7804,-11.7158,-11.594,-11.4305,-11.2565,-11.0636,-10.8216,-10.7184,-10.7056,-10.7056,-10.7039,-10.6985,-10.6985,-10.6985,-10.7022,-10.7039,-10.7039,-10.7095,-10.713,-10.72,-10.7401,-10.8076,-10.8474,-10.8871,-11.0308,-11.1224,-11.1506,-11.2495,-11.3147,-11.32,-11.3288,-11.3337,-11.3192,-11.1364,-11.017,-10.9634,-10.9183,-10.9019,-10.9242,-10.9252,-10.9384,-10.9503,-10.9568,-10.9647,-10.9697,-10.9781,-10.9823,-10.9795,-10.9854,-10.9902,-11.0025,-11.0033,-11.0033,-11.0033,-11.0063,-11.0036,-11.0041,-11.0062,-11.0046,-11.0063,-11.0041,-11.0033,-10.9995,-10.9987,-10.994,-10.9844,-10.9806,-10.981,-10.9766,-10.9704,-10.9626,-10.9551,-10.9513,-10.9395,-10.9367,-10.9242,-10.9114,-10.9062,-10.8982,-10.8944,-10.8878,-10.8778,-10.8632,-10.8553,-10.8469,-10.8381,-10.8219,-10.8101,-10.7928,-10.7667,-10.7434,-10.726,-10.7015,-10.68,-10.6565,-10.6312,-10.6047,-10.5748,-10.5507,-10.5293,-10.5041,-11.0297,-11.0933,-11.206,-11.3481,-11.4859,-11.4933,-11.5532,-11.6616,-11.6608,-11.66,-11.6469,-11.6432,-11.6374,-11.6227,-11.6126,-11.5405,-11.4238,-11.2437,-11.0644,-10.8961,-10.765,-10.6984,-10.6911,-10.6911,-10.6854,-10.6777,-10.674,-10.6683,-10.6777,-10.6854,-10.6947,-10.6928,-10.6966,-10.7039,-10.713,-10.72,-10.7305,-10.7681,-10.8747,-10.9367,-10.9527,-11.0761,-11.1459,-11.1542,-11.1668,-11.1798,-11.1695,-10.9676,-10.8557,-10.8626,-10.8741,-10.8958,-10.9114,-10.9196,-10.9306,-10.9433,-10.9525,-10.9551,-10.9626,-10.9697,-10.9758,-10.9798,-10.9795,-10.9892,-10.994,-11.0025,-11.0033,-11.0033,-11.0033,-11.0033,-11.0041,-11.0041,-11.0062,-11.0036,-11.0049,-11.0033,-11.0033,-11.0033,-10.9987,-10.9902,-10.9835,-10.9816,-10.9785,-10.9794,-10.9685,-10.9628,-10.9534,-10.9513,-10.9427,-10.9344,-10.9258,-10.9158,-10.9077,-10.8994,-10.8939,-10.8878,-10.8778,-10.8706,-10.8628,-10.8498,-10.8306,-10.8188,-10.8056,-10.7882,-10.7619,-10.7434,-10.7142,-10.6892,-10.6698,-10.6447,-10.6242,-10.5945,-10.5671,-10.5429,-10.5148,-10.925,-11.0559,-11.083,-11.1798,-11.3213,-11.3282,-11.3356,-11.3655,-11.3528,-11.367,-11.3735,-11.3268,-11.347,-11.3024,-11.3308,-11.2774,-11.2061,-11.0478,-10.8739,-10.7317,-10.6961,-10.6771,-10.658,-10.658,-10.6557,-10.6399,-10.6337,-10.6337,-10.6435,-10.652,-10.658,-10.658,-10.6777,-10.6911,-10.6911,-10.7039,-10.72,-10.7342,-10.7505,-10.7607,-10.773,-10.8134,-10.8459,-10.8481,-10.8567,-10.8689,-10.854,-10.8513,-10.8442,-10.8482,-10.8706,-10.8886,-10.9014,-10.9145,-10.9262,-10.9396,-10.9457,-10.9509,-10.959,-10.9626,-10.9697,-10.9781,-10.981,-10.9795,-10.9844,-10.994,-10.9995,-11.0033,-11.0033,-11.0033,-11.0033,-10.9852,-10.977,-10.9986,-11.0003,-11.0041,-11.0033,-11.0033,-11.0033,-10.9995,-10.9919,-10.9835,-10.9795,-10.9796,-10.9756,-10.9681,-10.9605,-10.9552,-10.9465,-10.9408,-10.9384,-10.928,-10.9158,-10.9082,-10.8994,-10.897,-10.8912,-10.8848,-10.8744,-10.8619,-10.8428,-10.8315,-10.8188,-10.8048,-10.7752,-10.7582,-10.7347,-10.7022,-10.683,-10.6582,-10.6407,-10.612,-10.5842,-10.5494,-10.525,-10.8577,-10.9063,-10.9105,-11.0035,-11.1494,-11.1519,-11.2109,-11.3118,-11.3064,-11.297,-11.2911,-11.2863,-11.2764,-11.2611,-11.2544,-11.1251,-10.8867,-10.813,-10.7408,-10.6814,-10.6735,-10.6557,-10.6435,-10.6337,-10.6374,-10.6374,-10.6337,-10.6337,-10.6337,-10.6374,-10.6399,-10.6435,-10.658,-10.6661,-10.6834,-10.6911,-10.7039,-10.7147,-10.7216,-10.732,-10.7421,-10.7656,-10.7799,-10.7937,-10.807,-10.8156,-10.8278,-10.8319,-10.8363,-10.8482,-10.8595,-10.8818,-10.8923,-10.9052,-10.9167,-10.9306,-10.9346,-10.9457,-10.9509,-10.959,-10.9626,-10.9697,-10.9743,-10.9798,-10.9795,-10.9854,-10.9902,-10.9987,-11.0033,-11.0033,-10.9844,-10.8933,-10.8341,-10.8404,-10.9341,-11.0046,-11.0041,-10.9995,-10.9928,-10.9828,-10.9783,-10.9873,-10.9871,-10.9836,-10.9781,-10.9735,-10.9691,-10.9653,-10.9572,-10.948,-10.9446,-10.9382,-10.9269,-10.9166,-10.9111,-10.9069,-10.8982,-10.8882,-10.8782,-10.8665,-10.8547,-10.8435,-10.8278,-10.8101,-10.7928,-10.7724,-10.7521,-10.7204,-10.6961,-10.6692,-10.648,-10.6316,-10.6003,-10.5623,-10.5389,-10.8241,-10.8278,-10.8236,-10.8792,-10.9719,-10.9675,-11.0228,-11.1189,-11.1096,-11.1001,-11.0941,-11.0928,-11.0828,-11.0688,-11.0476,-10.9128,-10.7077,-10.6798,-10.6719,-10.6543,-10.6459,-10.6374,-10.6213,-10.615,-10.6087,-10.6023,-10.5958,-10.5958,-10.6059,-10.6123,-10.615,-10.6213,-10.6301,-10.6496,-10.658,-10.6683,-10.6834,-10.6929,-10.7147,-10.7253,-10.7357,-10.7521,-10.7752,-10.7891,-10.7982,-10.807,-10.8241,-10.8241,-10.8323,-10.8405,-10.8519,-10.8632,-10.8706,-10.8356,-10.7923,-10.7499,-10.7571,-10.7609,-10.7643,-10.7732,-10.7812,-10.7829,-10.7917,-10.7901,-10.8016,-10.8051,-10.8071,-10.8119,-10.8166,-10.8174,-10.7984,-10.7263,-10.6588,-10.6685,-10.7502,-10.8086,-10.8198,-10.8203,-10.8182,-10.8272,-10.8797,-10.9342,-10.9626,-10.9822,-10.9798,-10.981,-10.9772,-10.972,-10.9643,-10.9571,-10.9457,-10.9433,-10.9357,-10.9282,-10.9182,-10.912,-10.9083,-10.8987,-10.8853,-10.8744,-10.8631,-10.8519,-10.8435,-10.8263,-10.8056,-10.7899,-10.7771,-10.7445,-10.7167,-10.6925,-10.6667,-10.6433,-10.615,-10.5792,-10.5525,-10.8278,-10.8199,-10.8151,-10.8019,-10.7928,-10.7928,-10.7966,-10.8264,-10.7938,-10.7768,-10.7916,-10.7893,-10.7593,-10.7438,-10.7354,-10.6871,-10.6719,-10.658,-10.6459,-10.6374,-10.6312,-10.615,-10.595,-10.5792,-10.5629,-10.5598,-10.5389,-10.5389,-10.5566,-10.5629,-10.5792,-10.5885,-10.615,-10.6275,-10.6275,-10.6459,-10.6543,-10.6683,-10.6929,-10.7147,-10.7268,-10.7558,-10.7752,-10.7845,-10.7928,-10.8026,-10.8236,-10.8241,-10.8241,-10.8241,-10.8251,-10.833,-10.837,-10.7055,-10.565,-10.4566,-10.4446,-10.4514,-10.4589,-10.4772,-10.4837,-10.4785,-10.5103,-10.4924,-10.5272,-10.5362,-10.5434,-10.5074,-10.5084,-10.4751,-10.4751,-10.4751,-10.4881,-10.4874,-10.5015,-10.523,-10.5192,-10.5502,-10.4995,-10.5396,-10.658,-10.7748,-10.9342,-10.9702,-10.9313,-10.9475,-10.9594,-10.9606,-10.9546,-10.9628,-10.9551,-10.9471,-10.9471,-10.9379,-10.9265,-10.9117,-10.9129,-10.9077,-10.8991,-10.8856,-10.878,-10.8669,-10.8555,-10.8432,-10.8231,-10.8063,-10.7899,-10.7677,-10.7297,-10.7113,-10.6845,-10.6557,-10.6312,-10.6023,-10.5762,-10.7982,-10.7982,-10.7937,-10.7937,-10.7891,-10.7799,-10.7752,-10.7752,-10.7719,-10.7583,-10.7408,-10.7445,-10.729,-10.7022,-10.6891,-10.6719,-10.658,-10.6399,-10.6275,-10.605,-10.5922,-10.5828,-10.5629,-10.5457,-10.532,-10.5214,-10.5214,-10.525,-10.525,-10.5283,-10.5352,-10.5384,-10.5726,-10.5894,-10.5958,-10.625,-10.6459,-10.658,-10.6719,-10.6929,-10.7147,-10.7357,-10.7521,-10.7845,-10.7928,-10.7982,-10.8241,-10.8241,-10.8241,-10.8203,-10.7203,-10.6682,-10.6757,-10.5329,-10.4344,-10.4098,-10.4182,-10.4296,-10.4401,-10.4438,-10.4507,-10.4572,-10.4595,-10.4665,-10.4735,-10.4779,-10.4869,-10.4599,-10.2741,-10.1338,-10.1471,-10.2419,-10.3073,-10.3218,-10.4281,-10.4957,-10.4843,-10.4933,-10.4845,-10.4987,-10.5244,-10.5889,-10.6231,-10.6496,-10.6943,-10.7786,-10.8043,-10.8278,-10.941,-10.9567,-10.9495,-10.9553,-10.9475,-10.8887,-10.7904,-10.8265,-10.9244,-10.9219,-10.8826,-10.8623,-10.8845,-10.8814,-10.8707,-10.7612,-10.8091,-10.8087,-10.7447,-10.7497,-10.7406,-10.7268,-10.6945,-10.6484,-10.6288,-10.6077,-10.582,-10.7928,-10.7854,-10.7845,-10.7836,-10.7778,-10.773,-10.7645,-10.7558,-10.7533,-10.7431,-10.7216,-10.7093,-10.6966,-10.6777,-10.6602,-10.6459,-10.6301,-10.615,-10.5986,-10.5792,-10.5592,-10.5494,-10.5356,-10.5181,-10.511,-10.511,-10.4968,-10.4968,-10.4932,-10.5039,-10.511,-10.5214,-10.5389,-10.5561,-10.5732,-10.5958,-10.6213,-10.6399,-10.6602,-10.6834,-10.6985,-10.7147,-10.7371,-10.7752,-10.7845,-10.7982,-10.8156,-10.8278,-10.7979,-10.7269,-10.6489,-10.5707,-10.5109,-10.3608,-10.274,-10.2837,-10.2374,-10.209,-10.226,-10.2288,-10.2361,-10.2407,-10.2455,-10.2533,-10.2663,-10.2674,-10.2051,-10.0952,-9.9575,-9.8817,-9.9052,-10.0427,-10.1386,-10.1518,-10.2255,-10.2832,-10.2883,-10.2867,-10.2924,-10.2985,-10.3522,-10.3954,-10.3992,-10.4523,-10.5328,-10.6049,-10.6344,-10.6609,-10.7522,-10.7743,-10.769,-10.7602,-10.7546,-10.6979,-10.6317,-10.6899,-10.7206,-10.7218,-10.7169,-10.7069,-10.6778,-10.686,-10.6866,-10.6529,-10.6228,-10.6115,-10.6379,-10.599,-10.5804,-10.5428,-10.5231,-10.5224,-10.5554,-10.5322,-10.4758,-10.7361,-10.7398,-10.7156,-10.7273,-10.7434,-10.757,-10.7519,-10.7305,-10.7268,-10.7089,-10.6448,-10.6392,-10.605,-10.6055,-10.6007,-10.592,-10.5657,-10.5719,-10.5629,-10.553,-10.525,-10.5144,-10.5144,-10.5004,-10.4896,-10.4896,-10.4713,-10.4493,-10.4493,-10.4787,-10.4968,-10.5074,-10.5144,-10.5287,-10.5462,-10.5629,-10.5894,-10.6275,-10.6483,-10.6683,-10.6854,-10.6985,-10.7253,-10.7656,-10.7799,-10.7937,-10.807,-10.8082,-10.7381,-10.6072,-10.5623,-10.4766,-10.3423,-10.1626,-10.065,-10.071,-9.9316,-9.8516,-9.8628,-9.8792,-9.8868,-9.8902,-9.8969,-9.907,-9.9072,-9.9201,-9.7909,-9.5994,-9.6221,-9.6984,-9.7237,-9.8435,-9.9214,-9.9224,-9.9393,-9.9537,-9.9669,-9.9658,-9.9777,-9.9849,-10.1425,-10.2217,-10.2338,-10.3279,-10.4228,-10.419,-10.4447,-10.4941,-10.5387,-10.5399,-10.5234,-10.447,-10.447,-10.4416,-10.4454,-10.447,-10.4992,-10.4726,-10.4484,-10.4671,-10.4693,-10.4511,-10.4043,-10.4809,-10.4135,-10.4097,-10.3835,-10.3348,-10.3408,-10.3565,-10.3372,-10.3033,-10.3741,-10.3865,-10.3255,-10.3816,-10.3816,-10.3806,-10.4452,-10.5651,-10.6771,-10.72,-10.7147,-10.7073,-10.5526,-10.3053,-10.2734,-10.2654,-10.2705,-10.3733,-10.4057,-10.4002,-10.5046,-10.5494,-10.525,-10.5039,-10.5004,-10.5004,-10.4676,-10.4562,-10.4451,-10.4226,-10.4114,-10.4149,-10.4375,-10.4526,-10.4565,-10.486,-10.504,-10.5112,-10.525,-10.5525,-10.5857,-10.5922,-10.614,-10.6433,-10.6798,-10.7184,-10.7509,-10.7656,-10.7845,-10.7995,-10.6956,-10.6176,-10.5848,-10.3418,-10.1924,-10.1588,-9.893,-9.7317,-9.7229,-9.5905,-9.5066,-9.5059,-9.5279,-9.5424,-9.5425,-9.5542,-9.5586,-9.5608,-9.5628,-9.5271,-9.4742,-9.4818,-9.5189,-9.5265,-9.5709,-9.5886,-9.6,-9.6,-9.651,-9.7254,-9.783,-9.853,-9.9735,-10.0228,-10.0457,-10.0565,-10.0846,-10.1193,-10.142,-10.2217,-10.3557,-10.4679,-10.4857,-10.3606,-10.2191,-10.2051,-10.2681,-10.2841,-10.3636,-10.4291,-10.4507,-10.4338,-10.4059,-10.401,-10.3985,-10.3953,-10.3681,-10.3681,-10.3415,-10.3491,-10.3343,-10.3048,-10.2702,-10.2421,-10.2487,-10.2645,-10.2465,-10.2056,-10.2462,-10.2462,-10.2499,-10.2968,-10.3757,-10.4556,-10.4874,-10.4767,-10.464,-10.3384,-10.1589,-10.1435,-10.1315,-10.1291,-10.1947,-10.2158,-10.2065,-10.3502,-10.4055,-10.3951,-10.4461,-10.4676,-10.4639,-10.4375,-10.4185,-10.4221,-10.4072,-10.3994,-10.3994,-10.4072,-10.4221,-10.4221,-10.4415,-10.4639,-10.4787,-10.4896,-10.5144,-10.5592,-10.5384,-10.5586,-10.6129,-10.6469,-10.6781,-10.72,-10.7408,-10.7607,-10.7799,-10.64,-10.5296,-10.4719,-10.2179,-10.0163,-9.8819,-9.706,-9.5786,-9.5066,-9.427,-9.3478,-9.2796,-9.3556,-9.4122,-9.4268,-9.4332,-9.3135,-9.0071,-8.9815,-8.9875,-8.988,-9.1397,-9.2266,-9.2372,-9.3744,-9.4673,-9.4799,-9.4805,-9.4938,-9.5174,-9.5873,-9.6936,-9.8103,-9.7989,-9.7989,-9.8749,-9.8843,-9.9068,-9.9903,-10.0624,-10.1526,-10.241,-10.2551,-10.1858,-10.0379,-10.0585,-10.1091,-10.1141,-10.1861,-10.2273,-10.2344,-10.2271,-10.2162,-10.2035,-10.1924,-10.1781,-10.1752,-10.1644,-10.1527,-10.1446,-10.1306,-10.1133,-10.0914,-10.0746,-10.0536,-10.0461,-10.0724,-10.0565,-10.1508,-10.1545,-10.1545,-10.1693,-10.1826,-10.1826,-10.1869,-10.1893,-10.1096,-10.0738,-10.0679,-10.0535,-10.0376,-10.0116,-10.028,-10.0194,-10.017,-10.1489,-10.2108,-10.211,-10.3444,-10.401,-10.3974,-10.4,-10.3958,-10.3994,-10.3952,-10.3916,-10.3916,-10.3916,-10.3994,-10.3994,-10.3994,-10.4114,-10.4454,-10.4493,-10.4606,-10.4851,-10.475,-10.5072,-10.5784,-10.6066,-10.6433,-10.6761,-10.6817,-10.6883,-10.7,-10.5451,-10.3918,-10.2499,-10.0899,-9.8703,-9.5865,-9.5192,-9.4368,-9.3126,-9.2526,-9.1698,-9.0408,-9.1633,-9.2617,-9.2806,-9.2875,-9.0326,-8.4429,-8.4127,-8.4334,-8.4475,-8.7104,-8.8751,-8.9054,-9.1334,-9.2836,-9.303,-9.3257,-9.307,-9.2074,-9.3248,-9.4773,-9.6243,-9.5559,-9.5749,-9.6964,-9.7215,-9.7678,-9.8802,-9.9258,-9.9561,-9.9705,-9.9545,-9.965,-9.983,-9.9886,-9.9876,-9.9989,-9.9762,-10.0018,-9.9735,-9.9866,-9.9929,-9.9831,-9.9784,-9.9685,-9.9268,-9.9434,-9.9246,-9.9171,-9.8747,-9.8845,-9.8744,-9.8657,-9.8426,-9.8213,-9.8313,-9.8249,-9.8252,-9.8252,-9.8226,-9.8863,-9.9848,-9.9848,-10.0494,-10.1369,-9.8553,0.0,0.0,-9.6721,-9.6595,-9.6667,-9.7875,-9.8362,-9.8373,-9.9688,-10.0234,-10.0127,-10.1489,-10.2132,-10.2204,-10.3228,-10.3722,-10.3642,-10.3552,-10.3507,-10.3507,-10.3562,-10.3722,-10.3686,-10.388,-10.4072,-10.4072,-10.4114,-10.3502,-10.2467,-10.3843,-10.4787,-10.4965,-10.5483,-10.584,-10.6252,-10.5204,-10.4732,-10.5001,-10.2375,-10.0267,-9.8893,-9.746,-9.5863,-9.3997,-9.1418,-8.9842,-8.9431,-8.699,-8.5412,-8.5143,-8.5466,-8.5779,-8.577,-8.5881,-8.4817,-8.2177,-8.3325,-8.4191,-8.4178,-8.4801,-8.5288,-8.5465,-8.6069,-8.6405,-8.6502,-8.6514,-8.6585,-8.6642,-8.8999,-9.204,-9.4724,-9.499,-9.518,-9.537,-9.5446,-9.5627,-9.6046,-9.7133,-9.7816,-9.7846,-9.7808,-9.8255,-9.9347,-9.9451,-9.9717,-9.9802,-9.9593,-9.9727,-9.9432,-9.9524,-9.9637,-9.9514,-9.9416,-9.9317,-9.8981,-9.9154,-9.8948,-9.8911,-9.8674,-9.872,-9.8407,-9.8331,-9.8246,-9.7824,-9.597,-9.426,-9.4526,-9.4526,-9.4511,-9.4937,0.0,-9.632,-9.6427,-9.5968,-9.4244,-9.3468,-9.3214,-9.3225,-9.3163,-9.311,-9.3844,-9.4511,-9.5179,-9.6594,-9.757,-9.8289,-9.9611,-10.0289,-10.0289,-10.0844,-10.1123,-10.1158,-10.107,-10.1034,-10.107,-10.1079,-10.1158,-10.1158,-10.1237,-10.1316,-10.1316,-10.1471,-10.1041,-10.0289,-10.127,-10.1854,-10.2112,-10.257,-10.2909,-10.3135,-10.2657,0.0,0.0,0.0,0.0,0.0,0.0,0.0,0.0,0.0,0.0,-8.4956,-8.3372,-8.1757,-8.0223,-8.0873,-8.1043,-8.0256,-8.1078,-8.014,-7.6657,-7.8038,-7.9065,-7.9065,-7.9978,-8.0559,-8.07,-8.2235,-8.3273,-8.3411,-8.4179,-8.4001,-8.2963,-8.5341,-8.8733,-9.1763,-9.1763,-9.1573,-9.237,-9.3168,-9.4041,-9.4941,-9.5735,-9.6182,-9.6191,-9.6177,-9.6442,-9.7269,-9.7421,-9.7353,-9.736,-9.726,-9.7221,-9.7235,-9.7199,-9.7144,-9.7068,-9.6991,-9.6967,-9.6864,-9.6831,-9.6719,-9.6618,-9.6528,-9.6426,-9.6145,-9.6013,-9.5863,-9.566,-9.4311,-9.3018,-9.1717,-9.1717,-9.1717,-9.1717,-9.1736,-9.2323,-9.1508,-8.9895,-9.0452,-9.0706,-9.0572,-9.0282,-8.9869,-8.9564,-8.9799,-9.0464,-9.1598,-9.2972,-9.4302,-9.5666,-9.6953,-9.7661,-9.7947,-9.8187,-9.8466,-9.8751,-9.8787,-9.8787,-9.8787,-9.8787,-9.8787,-9.8787,-9.8787,-9.8787,-9.8716,0.0,0.0,0.0,-9.8632,-9.907,-9.9441,-9.9801,-9.9975,-10.0108,-9.9932,0.0,-10.0253,-9.7364,-9.562,-9.5332,-9.3183,0.0,0.0,0.0,0.0,0.0,0.0,0.0,0.0,0.0,0.0,0.0,-7.5431,-7.4183,-7.0546,-7.1646,-7.2909,-7.3571,-7.4909,-7.5921,-7.6268,-7.8891,-8.0594,-8.0669,-8.1913,-8.1768,-7.9294,-8.1855,-8.5274,-8.8573,-8.7852,-8.7549,-8.8915,-9.051,-9.2028,-9.3129,-9.4155,-9.4303,-9.3667,-9.4066,-9.4545,-9.4621,-9.5015,-9.4977,-9.4856,-9.5008,-9.5165,-9.4851,-9.4789,-9.4794,-9.4902,-9.4794,-9.4686,-9.4684,-9.4529,-9.4523,-9.4417,-9.4205,-9.4307,-9.3999,-9.3796,-9.3175,-9.1903,-9.1744,-9.1843,-9.159,-9.159,-9.1682,-9.159,-9.1185,-8.8357,-8.6924,-8.6706,-8.9311,-9.0305,-8.9996,-8.8569,-8.7137,-8.5886,-8.7253,-8.7972,-8.823,-8.9607,-9.0363,-9.0649,-9.1939,-9.3186,-9.4577,-9.6004,-9.7431,-9.8751,-9.8787,-9.8787,-9.8787,-9.8787,-9.8787,-9.8787,-9.8787,-9.8787,-9.8537,-9.3221,-9.1831,-9.447,-9.7447,-9.8918,-9.903,-9.922,-9.9441,-9.955,-9.706,-9.5886,-9.6267,-9.3478,-9.0785,-8.8422,-8.8305,-8.6284,-8.1771,-8.0287,-7.8121,0.0,-7.3256,0.0,0.0,0.0,0.0,0.0,0.0,0.0,0.0,-6.6477,-6.8686,-7.1621,-7.2072,-7.2844,-7.444,-7.4937,-7.5345,-7.5553,-7.5802,-7.5822,-7.5481,-7.8415,-8.1854,-8.5195,-8.541,-8.5312,-8.5621,-8.7088,-8.8154,-8.8743,-9.0846,-9.1535,-8.9407,-9.0977,-9.2724,-9.2838,-9.4079,-9.454,-9.4604,-9.4674,-9.4667,-9.4727,-9.4453,-9.4813,-9.4456,-9.4441,-9.4502,-9.4394,-9.4043,-9.4157,-9.4439,-9.4175,-9.4041,-9.3602,-9.339,-9.16,-8.6984,-8.635,-8.6721,-8.5837,-8.5837,-8.5928,-8.5272,-8.4123,-8.2492,-8.2207,-8.3001,-8.431,-8.4825,-8.4628,-8.3919,-8.32,-8.2589,-8.2179,-8.3075,-8.4661,-8.5217,-8.6008,-8.6865,-8.8262,-8.9368,-9.0118,-9.1652,-9.2793,-9.3435,-9.3471,-9.3471,-9.3435,-9.3471,-9.3471,-9.3471,-9.3471,-9.2579,-9.0867,-8.894,-8.8619,-9.0046,-9.2296,-9.3976,-9.4798,-9.5126,-9.5235,-9.5235,-9.3151,-9.2169,-9.2493,-8.9726,-8.76,-8.6493,-8.4407,-8.1456,-7.771,-7.617,-7.3232,0.0,0.0,0.0,0.0,0.0,0.0,0.0,0.0,0.0,0.0,0.0,-6.3287,-6.5692,-6.6839,-6.7736,-6.8593,-6.9569,-7.018,-7.0316,-7.2063,-7.209,-6.9323,-7.3829,-7.8376,-8.1721,-8.2146,-8.2163,-8.221,-8.4419,-8.6086,-8.6104,-8.7376,-8.7763,-8.6627,-8.8118,-8.9729,-8.9772,-9.1151,-9.2257,-9.2169,-9.2169,-9.1828,-9.1024,-9.0756,-9.0413,-8.9545,-8.9318,-8.923,-8.918,-8.9111,-8.9096,-8.9078,-8.8959,-8.8827,-8.8707,-8.8597,-8.7333,-8.4474,-8.4263,-8.46,-8.0946,-8.0511,-7.9277,-7.7993,-7.6727,-7.7007,-7.7753,-7.8758,-7.9117,-7.9273,-7.9237,-7.8843,-7.8484,-7.8053,-7.6681,-7.7528,-8.0148,-8.0442,-8.1348,-8.2952,-8.416,-8.5087,-8.5872,-8.7014,-8.7727,-8.8084,-8.812,-8.8084,-8.812,-8.812,-8.8084,-8.8013,-8.6621,-8.4909,-8.3023,-8.4057,-8.523,-8.6336,-8.7513,-8.9047,-9.0974,-9.1189,-9.126,-9.1224,-8.9467,-8.863,-8.872,-8.5586,-8.3837,-8.3631,-7.9924,-7.6233,-7.2842,-7.1358,0.0,0.0,0.0,0.0,0.0,0.0,0.0,0.0,0.0,-5.2159,-5.2248,0.0,-5.7702,0.0,-6.143,-6.3146,-6.3544,-6.5179,0.0,0.0,-6.8658,-6.8746,-6.5004,-6.9564,-7.4496,-7.8256,-7.8376,-7.8216,-7.8628,-8.1626,-8.348,-8.267,-8.3201,-8.3701,-8.3783,-8.5296,-8.66,-8.6959,-8.824,-8.9113,-8.8847,-8.8809,-8.8392,-8.7063,-8.6912,-8.6453,-8.5201,-8.4974,-8.4889,-8.483,-8.4797,-8.4759,-8.4954,-8.4621,-8.4178,-8.2419,-8.1947,-8.1822,-8.1675,-8.1682,-8.1882,-8.0071,-7.8336,-7.3727,-7.1694,-7.1704,-7.31,-7.3707,-7.3816,-7.5248,-7.574,-7.555,-7.4158,-7.2694,-7.1337,-7.123,0.0,-7.3719,-7.5145,-7.6617,-7.8142,-7.8219,-7.9807,-8.2554,-8.2697,-8.3553,-8.4873,-8.4909,-8.4909,-8.4873,-8.4873,-8.4873,-8.4731,-7.9165,-7.6937,-7.8036,-7.8219,-8.0449,-8.4659,-8.4838,-8.6372,-8.9297,-8.9368,-8.9404,-8.9439,-8.6547,-8.5043,-8.5032,-8.0912,-7.802,-7.6819,-7.3944,-7.0346,-6.5999,0.0,0.0,0.0,0.0,0.0,0.0,0.0,0.0,0.0,0.0,0.0,0.0,0.0,0.0,-5.2309,-5.6704,0.0,-6.1678,-6.3357,0.0,0.0,0.0,-6.4872,-6.4567,-6.6498,-6.9778,-7.4652,0.0,0.0,-7.5059,-7.8203,-7.9173,-7.6055,-7.8338,-8.0297,-8.0292,-8.2233,-8.4074,-8.4929,-8.6182,-8.6561,-8.5877,-8.5536,-8.5385,-8.5195,-8.5137,-8.4871,-8.456,-8.4583,-8.4793,-8.4481,-8.4889,-8.4699,-8.4699,-8.4168,-8.2702,-7.6744,-7.5545,-7.5298,-7.5414,-7.6277,-7.7532,-7.2746,-6.9349,-6.735,-6.646,-6.6581,-6.7045,-6.7846,-6.8678,-6.9285,-6.9516,-6.939,-6.782,-6.625,-6.4859,-6.5787,0.0,0.0,0.0,-7.0326,-7.1845,-7.2877,-7.4456,-7.6561,-7.756,-7.8345,-7.8915,-7.8915,-7.8951,-7.888,-7.8915,-7.6989,-7.3172,0.0,-7.0255,-7.1774,-7.3803,-7.6097,-7.8915,-8.1698,-8.4195,-8.6336,-8.7335,-8.7371,-8.6407,-8.4307,-8.231,-8.0406,-7.7827,-7.5256,-7.2926,-6.9218,-6.5482,0.0,0.0,0.0,0.0,0.0,0.0,0.0,0.0,0.0,0.0,0.0,-4.0819,-4.1802,0.0,0.0,0.0,-5.1215,-5.4076,-5.6816,-5.7728,0.0,0.0,0.0,0.0,0.0,0.0,0.0,-6.8391,-6.9074,-6.9893,-7.1558,-7.2938,-7.3298,-7.197,-7.47,-7.6822,-7.6821,0.0,-8.1408,-8.1811,-8.4625,-8.6295,-8.5144,-8.4091,-8.341,-8.341,-8.1838,-8.0248,-7.918,-7.8964,-7.8964,-7.8983,-7.8886,-7.884,-7.878,-7.8749,-7.7656,-7.5205,-7.4513,-7.4362,-7.4209,-7.4562,-7.5046,-6.5113,0.0,0.0,0.0,0.0,-6.1427,-6.201,-6.304,-6.304,-6.304,-6.2932,-6.1398,0.0,0.0,0.0,0.0,0.0,0.0,-6.4117,-6.6083,-6.7266,-6.8855,-7.0853,-7.1959,-7.2494,-7.2494,-7.2529,-7.2494,-7.2422,-7.071,-6.7517,-6.3117,0.0,0.0,0.0,0.0,-7.2066,-7.4599,-7.8273,-8.1199,-8.3196,-8.4302,-8.4338,-8.3196,-8.1283,-7.9181,-7.6953,-7.4167,-7.1433,-6.8749,-6.3992,0.0,0.0,0.0,0.0,0.0,0.0,0.0,0.0,0.0,0.0,0.0,0.0,0.0,0.0,0.0,0.0,0.0,0.0,0.0,-5.1512,-5.2779,-5.3462,0.0,0.0,0.0,0.0,0.0,0.0,0.0,0.0,0.0,-6.6677,-6.683,-6.7334,0.0,0.0,-7.3563,-7.4045,-7.5797,-7.7376,-7.8372,-8.2034,0.0,-8.2385,-8.1079,-8.0332,-8.0332,-7.8398,-7.6451,-7.5226,-7.5044,-7.5047,-7.5074,-7.4936,-7.4216,-7.2569,-7.1996,-7.1914,-7.1839,-7.1747,-7.1615,-7.1507,-7.1408,-7.1365,0.0,0.0,0.0,0.0,0.0,0.0,0.0,0.0,-5.6644,-5.6644,0.0,-5.5012,0.0,0.0,0.0,0.0,-5.6592,-5.668,0.0,0.0,-6.1322,-6.2968,-6.5787,-6.5929,-6.6001,-6.6001,-6.6001,-6.5929,-6.5537,-5.9852,0.0,0.0,0.0,0.0,0.0,0.0,-6.8213,-7.2743,-7.467,-7.6989,-7.9914,-8.0164,-8.02,-8.0057,-7.7167,-7.5455,-7.5062,-6.9318,-6.5339,-6.381,-5.7905,0.0,0.0,0.0,0.0,0.0,0.0,0.0,0.0,0.0,0.0,0.0,0.0,0.0,0.0,0.0,0.0,0.0,0.0,0.0,0.0,-4.9585,0.0,0.0,0.0,0.0,0.0,0.0,0.0,0.0,0.0,-5.974,-5.9794,-5.992,-6.1637,-6.6474,0.0,0.0,0.0,0.0,-7.1472,-7.4744,-7.7959,-7.904,-7.5929,-7.5359,-7.5283,-7.5283,0.0,0.0,-7.4944,-7.4982,-7.4792,-7.4943,-7.4672,-7.2929,-6.6462,-6.545,-6.5353,-6.5379,-6.5329,-6.506,-6.4909,-6.5117,-6.5317,0.0,0.0,0.0,0.0,0.0,0.0,0.0,0.0,0.0,-5.0303,-5.016,-4.8626,0.0,0.0,0.0,0.0,0.0,0.0,0.0,0.0,-5.6009,-5.7581,-5.9615,-5.965,-5.9615,0.0,-5.9615,-5.751,0.0,0.0,0.0,0.0,0.0,0.0,0.0,0.0,-6.4467,-6.8213,-7.285,-7.5776,-7.6882,-7.888,-7.9886,-7.9879,-7.6882,-7.3314,-6.914,-6.5895,-6.2048,0.0,0.0,0.0,0.0,0.0,0.0,0.0,0.0,0.0,0.0,0.0,0.0,0.0,0.0,0.0,0.0,0.0,0.0,0.0,0.0,0.0,0.0,0.0,-4.5359,0.0,0.0,0.0,0.0,0.0,0.0,0.0,0.0,0.0,-5.3131,-5.6637,-6.0017,-6.1886,-6.4542,-6.7044,-6.8759,0.0,0.0,0.0,0.0,0.0,0.0,0.0,-7.1619,-7.1592,-6.9847,-6.8448,-6.8429,-6.8424,-6.8424,-6.8436,0.0,0.0,-6.2587,-6.1693,-6.1604,-6.1629,-6.1506,-6.1435,-6.1376,-6.1251,-6.1597,0.0,0.0,0.0,0.0,0.0,0.0,0.0,0.0,0.0,-4.3846,-4.3703,0.0,0.0,0.0,0.0,0.0,0.0,0.0,0.0,0.0,0.0,0.0,-5.3264,-5.3264,0.0,0.0,0.0,0.0,0.0,0.0,0.0,0.0,0.0,0.0,0.0,0.0,-6.1256,-6.493,-6.964,-7.2815,-7.442,-7.5954,-7.7025,-7.7488,-7.5027,-7.1138,-6.5858,0.0,0.0,0.0,0.0,0.0,0.0,0.0,0.0,0.0,0.0,0.0,0.0,0.0,0.0,0.0,0.0,0.0,0.0,0.0,0.0,0.0,0.0,0.0,0.0,0.0,-3.9743,0.0,0.0,0.0,0.0,0.0,0.0,0.0,0.0,0.0,0.0,-5.3171,-5.6772,-5.9099,-6.1368,-6.369,-6.6044,-6.567,-6.6287,0.0,0.0,0.0,0.0,0.0,0.0,0.0,0.0,0.0,0.0,0.0,0.0,0.0,0.0,-5.9217,-5.7074,-5.66,-5.6568,-5.6555,0.0,0.0,0.0,0.0,0.0,0.0,0.0,0.0,0.0,0.0,0.0,0.0,0.0,0.0,0.0,-3.724,0.0,0.0,-3.7103,0.0,0.0,0.0,0.0,0.0,0.0,0.0,0.0,0.0,0.0,0.0,0.0,0.0,0.0,0.0,0.0,0.0,0.0,0.0,0.0,0.0,0.0,-5.8569,-6.3218,-6.5037,-6.8106,-7.2529,-7.1388,-7.1423,-7.2815,-7.1281,-6.8962,-6.5822,0.0,0.0,0.0,0.0,0.0,0.0,0.0,0.0,0.0,0.0,0.0,0.0,0.0,0.0,0.0,0.0,0.0,0.0,0.0,0.0,0.0,0.0,0.0,0.0,0.0,0.0,-3.829,-4.1638,-4.3523,0.0,0.0,0.0,0.0,0.0,0.0,0.0,0.0,0.0,-5.8088,-5.929,-6.0661,-6.391,-6.3604,-6.3463,-6.466,-6.5821,-6.6086,-6.5123,-6.4807,-6.467,0.0,0.0,0.0,0.0,0.0,0.0,0.0,0.0,0.0,0.0,0.0,0.0,0.0,0.0,0.0,0.0,0.0,0.0,0.0,0.0,0.0,0.0,0.0,0.0,0.0,0.0,0.0,0.0,0.0,0.0,0.0,0.0,0.0,0.0,0.0,0.0,0.0,0.0,0.0,0.0,0.0,0.0,0.0,0.0,0.0,0.0,0.0,0.0,0.0,0.0,0.0,0.0,0.0,0.0,-5.5405,-6.0043,-6.3789,-6.6964,-6.9426,-7.0175,-7.0781,-7.1138,-6.8569,-6.6678,0.0,0.0,0.0,0.0,0.0,0.0,0.0,0.0,0.0,0.0,0.0,0.0,0.0,0.0,0.0,0.0,0.0,0.0,0.0,0.0,0.0,0.0,0.0,0.0,0.0,0.0,0.0,0.0,-3.6155,-3.6919,-3.7099,0.0,0.0,0.0,0.0,0.0,0.0,0.0,0.0,0.0,0.0,-5.8367,-6.053,-6.1636,-6.2721,-6.4353,-6.4913,-6.4973,-6.4605,-6.3608,-6.2461,-6.1352,0.0,0.0,0.0,0.0,0.0,0.0,0.0,0.0,0.0,0.0,0.0,0.0,0.0,0.0,0.0,0.0,0.0,0.0,0.0,0.0,0.0,0.0,0.0,0.0,0.0,0.0,0.0,0.0,0.0,0.0,0.0,0.0,0.0,0.0,0.0,0.0,0.0,0.0,0.0,0.0,0.0,0.0,0.0,0.0,0.0,0.0,0.0,0.0,0.0,0.0,0.0,0.0,0.0,-5.3122,-5.7795,-6.1862,-6.4966,-6.7071,-6.8177,-6.8962,-6.9568,-6.65,-6.4237,0.0,0.0,0.0,0.0,0.0,0.0,0.0,0.0,0.0,0.0,0.0,0.0,0.0,0.0,0.0,0.0,0.0,0.0,0.0,0.0,0.0,0.0,0.0,0.0,0.0,0.0,0.0,0.0,-3.2397,-3.3191,-3.4013,0.0,0.0,0.0,0.0,0.0,0.0,0.0,0.0,0.0,0.0,-5.467,-5.7036,-5.8801,0.0,0.0,-6.1563,-6.1544,-6.1545,-6.0135,-5.8669,-5.7749,-5.6226,0.0,0.0,0.0,0.0,0.0,0.0,0.0,0.0,0.0,0.0,0.0,0.0,0.0,0.0,0.0,0.0,0.0,0.0,0.0,0.0,0.0,0.0,0.0,0.0,0.0,0.0,0.0,0.0,0.0,0.0,0.0,0.0,0.0,0.0,0.0,0.0,0.0,0.0,0.0,0.0,0.0,0.0,0.0,0.0,0.0,0.0,0.0,0.0,0.0,0.0,0.0,0.0,-5.1552,-5.6109,-5.9401,-6.2504,-6.543,-6.5644,-6.6357,-6.7588,-6.4823,-6.1728,0.0,0.0,0.0,0.0,0.0,0.0,0.0,0.0,0.0,0.0,0.0,0.0,0.0,0.0,0.0,0.0,0.0,0.0,0.0,0.0,0.0,0.0,0.0,0.0,0.0,0.0,0.0,0.0,0.0,0.0,0.0,0.0,0.0,0.0,0.0,0.0,0.0,0.0,0.0,0.0,0.0,-5.0364,-5.3471,-5.5439,-5.6583,0.0,-5.6622,-5.6585,-5.662,-5.5216,-5.4035,-5.3903,0.0,0.0,0.0,0.0,0.0,0.0,0.0,0.0,0.0,0.0,0.0,0.0,0.0,0.0,0.0,0.0,0.0,0.0,0.0,0.0,0.0,0.0,0.0,0.0,0.0,0.0,0.0,0.0,0.0,0.0,0.0,0.0,0.0,0.0,0.0,0.0,0.0,0.0,0.0,0.0,0.0,0.0,0.0,0.0,0.0,0.0,0.0,0.0,0.0,0.0,0.0,0.0,0.0,0.0,-5.4584,-5.883,-6.1969,-6.3896,-6.5073,-6.5358,-6.4574,-6.2647,0.0,0.0,0.0,0.0,0.0,0.0,0.0,0.0,0.0,0.0,0.0,0.0,0.0,0.0,0.0,0.0,0.0,0.0,0.0,0.0,0.0,0.0,0.0,0.0,0.0,0.0,0.0,-2.5022,0.0,0.0,0.0,0.0,0.0,0.0,0.0,0.0,0.0,0.0,0.0,0.0,0.0,0.0,-4.9503,-5.0286,-5.298,-5.4854,0.0,0.0,-5.4877,-5.4859,-5.3528,-5.2048,0.0,0.0,0.0,0.0,0.0,0.0,0.0,0.0,0.0,0.0,0.0,0.0,0.0,0.0,0.0,0.0,0.0,0.0,0.0,0.0,0.0,0.0,0.0,0.0,0.0,0.0,0.0,0.0,0.0,0.0,0.0,0.0,0.0,0.0,0.0,0.0,0.0,0.0,0.0,0.0,0.0,0.0,0.0,0.0,0.0,0.0,0.0,0.0,0.0,0.0,0.0,0.0,0.0,0.0,-4.8341,-5.2979,-5.6975,-5.9757,-6.1327,-6.2897,-6.3254,-6.2362,-6.0185,-5.7856,0.0,0.0,0.0,0.0,0.0,0.0,0.0,0.0,0.0,0.0,0.0,0.0,0.0,0.0,0.0,0.0,0.0,0.0,0.0,0.0,0.0,0.0,0.0,0.0,0.0,0.0,0.0,0.0,0.0,0.0,0.0,0.0,0.0,0.0,0.0,0.0,0.0,0.0,0.0,0.0,0.0,0.0,-4.7894,-5.0361,0.0,0.0,0.0,-5.1784,-5.1094,0.0,0.0,0.0,0.0,0.0,0.0,0.0,0.0,0.0,0.0,0.0,0.0,0.0,0.0,0.0,0.0,0.0,0.0,0.0,0.0,0.0,0.0,0.0,0.0,0.0,0.0,0.0,0.0,0.0,0.0,0.0,0.0,0.0,0.0,0.0,0.0,0.0,0.0,0.0,0.0,0.0,0.0,0.0,0.0,0.0,0.0,0.0,0.0,0.0,0.0,0.0,0.0,0.0,0.0,0.0,0.0,0.0,-5.1373,-5.4683,-5.7107,-5.8651,-6.0221,-6.0935,-6.0721,-5.7938,-5.5556,0.0,0.0,0.0,0.0,0.0,0.0,0.0,0.0,0.0,0.0,0.0,0.0,0.0,0.0,0.0,0.0,0.0,0.0,0.0,0.0,0.0,0.0,0.0,0.0,0.0,0.0,0.0,0.0,0.0,0.0,0.0,0.0,0.0,0.0,0.0,0.0,0.0,0.0,0.0,0.0,0.0,-4.2467,-4.5617,-4.7539,-4.8601,0.0,0.0,-4.8042,-4.6625,-4.4945,0.0,0.0,0.0,0.0,0.0,0.0,0.0,0.0,0.0,0.0,0.0,0.0,0.0,0.0,0.0,0.0,0.0,0.0,0.0,0.0,0.0,0.0,0.0,0.0,0.0,0.0,0.0,0.0,0.0,0.0,0.0,0.0,0.0,0.0,0.0,0.0,0.0,0.0,0.0,0.0,0.0,0.0,0.0,0.0,0.0,0.0,0.0,0.0,0.0,0.0,0.0,0.0,0.0,0.0,0.0,0.0,-4.9839,-5.4156,-5.7107,-5.8687,-6.0221,-6.0435,-5.9187,-5.7357,-5.5067,0.0,0.0,0.0,0.0,0.0,0.0,0.0,0.0,0.0,0.0,0.0,0.0,0.0,0.0,0.0,0.0,0.0,0.0,0.0,0.0,0.0,0.0,0.0,0.0,0.0,0.0,0.0,0.0,0.0,0.0,0.0,0.0,0.0,0.0,0.0,0.0,0.0,0.0,0.0,0.0,0.0,-4.0292,-4.2186,-4.3952,0.0,0.0,0.0,0.0,-4.4683,-4.3169,0.0,0.0,0.0,0.0,0.0,0.0,0.0,0.0,0.0,0.0,0.0,0.0,0.0,0.0,0.0,0.0,0.0,0.0,0.0,0.0,0.0,0.0,0.0,0.0,0.0,0.0,0.0,0.0,0.0,0.0,0.0,0.0,0.0,0.0,0.0,0.0,0.0,0.0,0.0,0.0,0.0,0.0,0.0,0.0,0.0,0.0,0.0,0.0,0.0,0.0,0.0,0.0,0.0,0.0,0.0,0.0,-4.8234,-5.2158,-5.4905,-5.6439,-5.7974,-5.8402,-5.7581,-5.5333,-5.3044,0.0,0.0,0.0,0.0,0.0,0.0,0.0,0.0,0.0,0.0,0.0,0.0,0.0,0.0,0.0,0.0,0.0,0.0,0.0,0.0,0.0,0.0,0.0,0.0,0.0,0.0,0.0,0.0,0.0,0.0,0.0,0.0,0.0,0.0,0.0,0.0,0.0,0.0,0.0,0.0,-3.6101,-3.8303,-3.9972,0.0,0.0,0.0,0.0,0.0,0.0,-3.9717,-3.8611,0.0,0.0,0.0,0.0,0.0,0.0,0.0,0.0,0.0,0.0,0.0,0.0,0.0,0.0,0.0,0.0,0.0,0.0,0.0,0.0,0.0,0.0,0.0,0.0,0.0,0.0,0.0,0.0,0.0,0.0,0.0,0.0,0.0,0.0,0.0,0.0,0.0,0.0,0.0,0.0,0.0,0.0,0.0,0.0,0.0,0.0,0.0,0.0,0.0,0.0,0.0,0.0,0.0,0.0,0.0,-4.6629,-5.0018,-5.2444,-5.3978,-5.5583,-5.6216,-5.5895,-5.3229,-5.0727,-4.8513,0.0,0.0,0.0,0.0,0.0,0.0,0.0,0.0,0.0,0.0,0.0,0.0,0.0,0.0,0.0,0.0,0.0,0.0,0.0,0.0,0.0,0.0,0.0,0.0,0.0,0.0,0.0,0.0,0.0,0.0,0.0,0.0,0.0,0.0,0.0,0.0,0.0,0.0,0.0,-3.3259,-3.5964,0.0,0.0,0.0,0.0,0.0,0.0,0.0,0.0,-3.547,0.0,0.0,0.0,0.0,0.0,0.0,0.0,0.0,0.0,0.0,0.0,0.0,0.0,0.0,0.0,0.0,0.0,0.0,0.0,0.0,0.0,0.0,0.0,0.0,0.0,0.0,0.0,0.0,0.0,0.0,0.0,0.0,0.0,0.0,0.0,0.0,0.0,0.0,0.0,0.0,0.0,0.0,0.0,0.0,0.0,0.0,0.0,0.0,0.0,0.0,0.0,0.0,0.0,0.0,0.0,0.0,-4.9483,-5.2479,-5.3978,-5.5583,-5.5726,-5.4442,-5.2658,-4.9768,-4.5558,0.0,0.0,0.0,0.0,0.0,0.0,0.0,0.0,0.0,0.0,0.0,0.0,0.0,0.0,0.0,0.0,0.0,0.0,0.0,0.0,0.0,0.0,0.0,0.0,0.0,0.0,0.0,0.0,0.0,0.0,0.0,0.0,0.0,0.0,0.0,0.0,0.0,0.0,-2.6958,-2.9813,0.0,0.0,0.0,0.0,0.0,0.0,0.0,0.0,-3.4222,0.0,0.0,0.0,0.0,0.0,0.0,0.0,0.0,0.0,0.0,0.0,0.0,0.0,0.0,0.0,0.0,0.0,0.0,0.0,0.0,0.0,0.0,0.0,0.0,0.0,0.0,0.0,0.0,0.0,0.0,0.0,0.0,0.0,0.0,0.0,0.0,0.0,0.0,0.0,0.0,0.0,0.0,0.0,0.0,0.0,0.0,0.0,0.0,0.0,0.0,0.0,0.0,0.0,0.0,0.0,0.0,0.0,0.0,-5.0375,-5.2729,-5.355,-5.3978,-5.3906,-5.0874,-4.7413,0.0,0.0,0.0,0.0,0.0,0.0,0.0,0.0,0.0,0.0,0.0,0.0,0.0,0.0,0.0,0.0,0.0,0.0,0.0,0.0,0.0,0.0,0.0,0.0,0.0,0.0,0.0,0.0,0.0,0.0,0.0,0.0,0.0,0.0,0.0,0.0,0.0,0.0,0.0,0.0,0.0,0.0,0.0,0.0,0.0,0.0,0.0,0.0,0.0,0.0,0.0,0.0,0.0,0.0,0.0,0.0,0.0,0.0,0.0,0.0,0.0,0.0,0.0,0.0,0.0,0.0,0.0,0.0,0.0,0.0,0.0,0.0,0.0,0.0,0.0,0.0,0.0,0.0,0.0,0.0,0.0,0.0,0.0,0.0,0.0,0.0,0.0,0.0,0.0,0.0,0.0,0.0,0.0,0.0,0.0,0.0,0.0,0.0,0.0,0.0,0.0,0.0,0.0,0.0,0.0,0.0,0.0,0.0,-4.8377,-5.1159,-5.1552,-5.2123,-5.2979,-4.8805,-4.488,0.0,0.0,0.0,0.0,0.0,0.0,0.0,0.0,0.0,0.0,0.0,0.0,0.0,0.0,0.0,0.0,0.0,0.0,0.0,0.0,0.0,0.0,0.0,0.0,0.0,0.0,0.0,0.0,0.0,0.0,0.0,0.0,0.0,0.0,0.0,0.0,0.0,0.0,0.0,0.0,0.0,0.0,0.0,0.0,0.0,0.0,0.0,0.0,-3.0799,0.0,0.0,0.0,0.0,0.0,0.0,0.0,0.0,0.0,0.0,0.0,0.0,0.0,0.0,0.0,0.0,0.0,0.0,0.0,0.0,0.0,0.0,0.0,0.0,0.0,0.0,0.0,0.0,0.0,0.0,0.0,0.0,0.0,0.0,0.0,0.0,0.0,0.0,0.0,0.0,0.0,0.0,0.0,0.0,0.0,0.0,0.0,0.0,0.0,0.0,0.0,0.0,0.0,0.0,0.0,0.0,0.0,0.0,0.0,-4.7877,-4.9629,-5.0981,-5.1088,-4.9804,-4.6664,-4.2776,0.0,0.0,0.0,0.0,0.0,0.0,0.0,0.0,0.0,0.0,0.0,0.0,0.0,0.0,0.0,0.0,0.0,0.0,0.0,0.0,0.0,0.0,0.0,0.0,0.0,0.0,0.0,0.0,0.0,0.0,0.0,0.0,0.0,0.0,0.0,0.0,0.0,0.0,0.0,0.0,0.0,0.0,0.0,0.0,0.0,0.0,0.0,0.0,0.0,0.0,0.0,0.0,0.0,0.0,0.0,0.0,0.0,0.0,0.0,0.0,0.0,0.0,0.0,0.0,0.0,0.0,0.0,0.0,0.0,0.0,0.0,0.0,0.0,0.0,0.0,0.0,0.0,0.0,0.0,0.0,0.0,0.0,0.0,0.0,0.0,0.0,0.0,0.0,0.0,0.0,0.0,0.0,0.0,0.0,0.0,0.0,0.0,0.0,0.0,0.0,0.0,0.0,0.0,0.0,0.0,0.0,0.0,0.0,-4.4559,-4.7913,-4.777,-4.6914,-4.538,-4.3097,-4.0528,0.0,0.0,0.0,0.0,0.0,0.0,0.0,0.0,0.0,0.0,0.0,0.0,0.0,0.0,0.0,0.0,0.0,0.0,0.0,0.0,0.0,0.0,0.0,0.0,0.0,0.0,0.0,0.0,0.0,0.0,0.0,0.0,0.0,0.0,0.0,0.0,0.0,0.0,0.0,0.0,0.0,0.0,0.0,0.0,0.0,0.0,0.0,0.0,0.0,0.0,0.0,0.0,0.0,0.0,0.0,0.0,0.0,0.0,0.0,0.0,0.0,0.0,0.0,0.0,0.0,0.0,0.0,0.0,0.0,0.0,0.0,0.0,0.0,0.0,0.0,0.0,0.0,0.0,0.0,0.0,0.0,0.0,0.0,0.0,0.0,0.0,0.0,0.0,0.0,0.0,0.0,0.0,0.0,0.0,0.0,0.0,0.0,0.0,0.0,0.0,0.0,0.0,0.0,0.0,0.0,0.0,0.0,0.0,0.0,-4.5523,-4.4274,-4.2918,-4.1741,-4.01,-3.8316,0.0,0.0,0.0,0.0,0.0,0.0,0.0,0.0,0.0,0.0,0.0,0.0,0.0,0.0,0.0,0.0,0.0,0.0,0.0,0.0,0.0,0.0,0.0,0.0,0.0,0.0,0.0,0.0,0.0,0.0,0.0,0.0,0.0,0.0,0.0,0.0,0.0,0.0,0.0,0.0,0.0,0.0,0.0,0.0,0.0,0.0,0.0,0.0,0.0,0.0,0.0,0.0,0.0,0.0,0.0,0.0,0.0,0.0,0.0,0.0,0.0,0.0,0.0,0.0,0.0,0.0,0.0,0.0,0.0,0.0,0.0,0.0,0.0,0.0,0.0,0.0,0.0,0.0,0.0,0.0,0.0,0.0,0.0,0.0,0.0,0.0,0.0,0.0,0.0,0.0,0.0,0.0,0.0,0.0,0.0,0.0,0.0,0.0,0.0,0.0,0.0,0.0,0.0,0.0,0.0,0.0,0.0,0.0,0.0,-4.2561,-4.1027,-4.0068,-3.9961,-3.8459,-3.6211,0.0,0.0,0.0,0.0,0.0,0.0,0.0,0.0,0.0,0.0,0.0,0.0,0.0,0.0,0.0,0.0,0.0,0.0,0.0,0.0,0.0,0.0,0.0,0.0,0.0,0.0,0.0,0.0,0.0,0.0,0.0,0.0,0.0,0.0,0.0,0.0,0.0,0.0,0.0,0.0,0.0,0.0,0.0,0.0,0.0,0.0,0.0,0.0,0.0,0.0,0.0,0.0,0.0,0.0,0.0,0.0,0.0,0.0,0.0,0.0,0.0,0.0,0.0,0.0,0.0,0.0,0.0,0.0,0.0,0.0,0.0,0.0,0.0,0.0,0.0,0.0,0.0,0.0,0.0,0.0,0.0,0.0,0.0,0.0,0.0,0.0,0.0,0.0,0.0,0.0,0.0,0.0,0.0,0.0,0.0,0.0,0.0,0.0,0.0,0.0,0.0,0.0,0.0,0.0,0.0,0.0,0.0,0.0,0.0,-3.7912,-3.7376,-3.7025,-3.696,-3.6354,-3.4633,-3.1623,0.0,0.0,0.0,0.0,0.0,0.0,0.0,0.0,0.0,0.0,0.0,0.0,0.0,0.0,0.0,0.0,0.0,0.0,0.0,0.0,0.0,0.0,0.0,0.0,0.0,0.0,0.0,0.0,0.0,0.0,0.0,0.0,0.0,0.0,0.0,0.0,0.0,0.0,0.0,0.0,0.0,0.0,0.0,0.0,0.0,0.0,0.0,0.0,0.0,0.0,0.0,0.0,0.0,0.0,0.0,0.0,0.0,0.0,0.0,0.0,0.0,0.0,0.0,0.0,0.0,0.0,0.0,0.0,0.0,0.0,0.0,0.0,0.0,0.0,0.0,0.0,0.0,0.0,0.0,0.0,0.0,0.0,0.0,0.0,0.0,0.0,0.0,0.0,0.0,0.0,0.0,0.0,0.0,0.0,0.0,0.0,0.0,0.0,0.0,0.0,0.0,0.0,0.0,0.0,0.0,0.0,0.0,0.0,-3.3979,-3.4455,-3.4616,-3.4526,-3.4062,-3.2838,0.0,0.0,0.0,0.0,0.0,0.0,0.0,0.0,0.0,0.0,0.0,0.0,0.0,0.0,0.0,0.0,0.0,0.0,0.0,0.0,0.0,0.0,0.0,0.0,0.0,0.0,0.0,0.0,0.0,0.0,0.0,0.0,0.0,0.0,0.0,0.0,0.0,0.0,0.0,0.0,0.0,0.0,0.0,0.0,0.0,0.0,0.0,0.0,0.0,0.0,0.0,0.0,0.0,0.0,0.0,0.0,0.0,0.0,0.0,0.0,0.0,0.0,0.0,0.0,0.0,0.0,0.0,0.0,0.0,0.0,0.0,0.0,0.0,0.0,0.0,0.0,0.0,0.0,0.0,0.0,0.0,0.0,0.0,0.0,0.0,0.0,0.0,0.0,0.0,0.0,0.0,0.0,0.0,0.0,0.0,0.0,0.0,0.0,0.0,0.0,0.0,0.0,0.0,0.0,0.0,0.0,0.0,0.0,-2.957,-3.0922,-3.2332,-3.3083,-3.3058,-3.1625,-3.0825,0.0,0.0,0.0,0.0,0.0,0.0,0.0,0.0,0.0,0.0,0.0,0.0,0.0,0.0,0.0,0.0,0.0,0.0,0.0,0.0,0.0,0.0,0.0,0.0,0.0,0.0,0.0,0.0,0.0,0.0,0.0,0.0,0.0,0.0,0.0,0.0,0.0,0.0,0.0,0.0,0.0,0.0,0.0,0.0,0.0,0.0,0.0,0.0,0.0,0.0,0.0,0.0,0.0,0.0,0.0,0.0,0.0,0.0,0.0,0.0,0.0,0.0,0.0,0.0,0.0,0.0,0.0,0.0,0.0,0.0,0.0,0.0,0.0,0.0,0.0,0.0,0.0,0.0,0.0,0.0,0.0,0.0,0.0,0.0,0.0,0.0,0.0,0.0,0.0,0.0,0.0,0.0,0.0,0.0,0.0,0.0,0.0,0.0,0.0,0.0,0.0,0.0,0.0,0.0,0.0,0.0,0.0,0.0,0.0,-2.9501,0.0,-3.1565,-3.1434,-3.0968,-3.0203,0.0,0.0,0.0,0.0,0.0,0.0,0.0,0.0,0.0,0.0,0.0,0.0,0.0,0.0,0.0,0.0,0.0,0.0,0.0,0.0,0.0,0.0,0.0,0.0,0.0,0.0,0.0,0.0,0.0,0.0,0.0,0.0,0.0,0.0,0.0,0.0,0.0,0.0,0.0,0.0,0.0,0.0,0.0,0.0,0.0,0.0,0.0,0.0,0.0,0.0,0.0,0.0,0.0,0.0,0.0,0.0,0.0,0.0,0.0,0.0,0.0,0.0,0.0,0.0,0.0,0.0,0.0,0.0,0.0,0.0,0.0,0.0,0.0,0.0,0.0,0.0,0.0,0.0,0.0,0.0,0.0,0.0,0.0,0.0,0.0,0.0,0.0,0.0,0.0,0.0,0.0,0.0,0.0,0.0,0.0,0.0,0.0,0.0,0.0,0.0,0.0,0.0,0.0,0.0,0.0,0.0,0.0,0.0,0.0,-2.8813,-2.9663,-3.0099,-2.9947,-2.9925,-2.9444,0.0,0.0,0.0,0.0,0.0,0.0,0.0,0.0,0.0,0.0,0.0,0.0,0.0,0.0,0.0,0.0,0.0,0.0,0.0,0.0,0.0,0.0,0.0,0.0,0.0,0.0,0.0,0.0,0.0,0.0,0.0,0.0,0.0,0.0,0.0,0.0,0.0,0.0,0.0,0.0,0.0,0.0,0.0,0.0,0.0,0.0,0.0,0.0,0.0,0.0,0.0,0.0,0.0,0.0,0.0,0.0,0.0,0.0,0.0,0.0,0.0,0.0,0.0,0.0,0.0,0.0,0.0,0.0,0.0,0.0,0.0,0.0,0.0,0.0,0.0,0.0,0.0,0.0,0.0,0.0,0.0,0.0,0.0,0.0,0.0,0.0,0.0,0.0,0.0,0.0,0.0,0.0,0.0,0.0,0.0,0.0,0.0,0.0,0.0,0.0,0.0,0.0,0.0,0.0,0.0,0.0,0.0,0.0,0.0,-2.8794,-2.8813,-2.8701,-2.8633,-2.8597,-2.8597,0.0,0.0,0.0,0.0,0.0,0.0,0.0,0.0,0.0,0.0,0.0,0.0,0.0,0.0,0.0,0.0,0.0,0.0,0.0,0.0,0.0,0.0,0.0,0.0,0.0,0.0,0.0,0.0,0.0,0.0,0.0,0.0,0.0,0.0,0.0,0.0,0.0,0.0,0.0,0.0,0.0,0.0,0.0,0.0,0.0,0.0,0.0,0.0,0.0,0.0,0.0,0.0,0.0,0.0,0.0,0.0,0.0,0.0,0.0,0.0,0.0,0.0,0.0,0.0,0.0,0.0,0.0,0.0,0.0,0.0,0.0,0.0,0.0,0.0,0.0,0.0,0.0,0.0,0.0,0.0,0.0,0.0,0.0,0.0,0.0,0.0,0.0,0.0,0.0,0.0,0.0,0.0,0.0,0.0,0.0,0.0,0.0,0.0,0.0,0.0,0.0,0.0,0.0,0.0,0.0,0.0,0.0,0.0,0.0,0.0,-2.8848,-2.8776,-2.872,-2.8716,-2.8733,-2.8716,0.0,0.0,0.0,0.0,0.0,0.0,0.0,0.0,0.0,0.0,0.0,0.0,0.0,0.0,0.0,0.0,0.0,0.0,0.0,0.0,0.0,0.0,0.0,0.0,0.0,0.0,0.0,0.0,0.0,0.0,0.0,0.0,0.0,0.0,0.0,0.0,0.0,0.0,0.0,0.0,0.0,0.0,0.0,0.0,0.0,0.0,0.0,0.0,0.0,0.0,0.0,0.0,0.0,0.0,0.0,0.0,0.0,0.0,0.0,0.0,0.0,0.0,0.0,0.0,0.0,0.0,0.0,0.0,0.0,0.0,0.0,0.0,0.0,0.0,0.0,0.0,0.0,0.0,0.0,0.0,0.0,0.0,0.0,0.0,0.0,0.0,0.0,0.0,0.0,0.0,0.0,0.0,0.0,0.0,0.0,0.0,0.0,0.0,0.0,0.0,0.0,0.0,0.0,0.0,0.0,0.0,0.0,0.0,0.0,0.0,-2.8902,-2.8849,-2.8868,-2.8503,0.0,0.0,0.0,0.0,0.0,0.0,0.0,0.0,0.0,0.0,0.0,0.0,0.0,0.0,0.0,0.0,0.0,0.0,0.0,0.0,0.0,0.0,0.0,0.0,0.0,0.0,0.0,0.0,0.0,0.0,0.0,0.0,0.0,0.0,0.0,0.0,0.0,0.0,0.0,0.0,0.0,0.0,0.0,0.0,0.0,0.0,0.0,0.0,0.0,0.0,0.0,0.0,0.0,0.0,0.0,0.0,0.0,0.0,0.0,0.0,0.0,0.0,0.0,0.0,0.0,0.0,0.0,0.0,0.0,0.0,0.0,0.0,0.0,0.0,0.0,0.0,0.0,0.0,0.0,0.0,0.0,0.0,0.0,0.0,0.0,0.0,0.0,0.0,0.0,0.0,0.0,0.0,0.0,0.0,0.0,0.0,0.0,0.0,0.0,0.0,0.0,0.0,0.0,0.0,0.0,0.0,0.0,0.0,0.0,0.0,0.0,-2.9107,-2.8973,-2.901,0.0,-2.6686,0.0,0.0,0.0,0.0,0.0,0.0,0.0,0.0,0.0,0.0,0.0,0.0,0.0,0.0,0.0,0.0,0.0,0.0,0.0,0.0,0.0,0.0,0.0,0.0,0.0,0.0,0.0,0.0,0.0,0.0,0.0,0.0,0.0,0.0,0.0,0.0,0.0,0.0,0.0,0.0,0.0,0.0,0.0,0.0,0.0,0.0,0.0,0.0,0.0,0.0,0.0,0.0,0.0,0.0,0.0,0.0,0.0,0.0,0.0,0.0,0.0,0.0,0.0,0.0,0.0,0.0,0.0,0.0,0.0,0.0,0.0,0.0,0.0,0.0,0.0,0.0,0.0,0.0,0.0,0.0,0.0,0.0,0.0,0.0,0.0,0.0,0.0,0.0,0.0,0.0,0.0,0.0,0.0,0.0,0.0,0.0,0.0,0.0,0.0,0.0,0.0,0.0,0.0,0.0,0.0,0.0,0.0,0.0,0.0,0.0,0.0,0.0,-2.9107,-2.8849,-2.8334,0.0,0.0,0.0,0.0,0.0,0.0,0.0,0.0,0.0,0.0,0.0,0.0,0.0,0.0,0.0,0.0,0.0,0.0,0.0,0.0,0.0,0.0,0.0,0.0,0.0,0.0,0.0,0.0,0.0,0.0,0.0,0.0,0.0,0.0,0.0,0.0,0.0,0.0,0.0,0.0,0.0,0.0,0.0,0.0,0.0,0.0,0.0,0.0,0.0,0.0,0.0,0.0,0.0,0.0,0.0,0.0,0.0,0.0,0.0,0.0,0.0,0.0,0.0,0.0,0.0,0.0,0.0,0.0,0.0,0.0,0.0,0.0,0.0,0.0,0.0,0.0,0.0,0.0,0.0,0.0,0.0,0.0,0.0,0.0,0.0,0.0,0.0,0.0,0.0,0.0,0.0,0.0,0.0,0.0,0.0,0.0,0.0,0.0,0.0,0.0,0.0,0.0,0.0,0.0,0.0,0.0,0.0,0.0,0.0,0.0,-2.9224,-2.9201,-2.9201,-2.8795,-2.7983,0.0,0.0,0.0,0.0,0.0,0.0,0.0,0.0,0.0,0.0,0.0,0.0,0.0,0.0,0.0,0.0,0.0,0.0,0.0,0.0,0.0,0.0,0.0,0.0,0.0,0.0,0.0,0.0,0.0,0.0,0.0,0.0,0.0,0.0,0.0,0.0,0.0,0.0,0.0,0.0,0.0,0.0,0.0,0.0,0.0,0.0,0.0,0.0,0.0,0.0,0.0,0.0,0.0,0.0,0.0,0.0,0.0,0.0,0.0,0.0,0.0,0.0,0.0,0.0,0.0,0.0,0.0,0.0,0.0,0.0,0.0,0.0,0.0,0.0,0.0,0.0,0.0,0.0,0.0,0.0,0.0,0.0,0.0,0.0,0.0,0.0,0.0,0.0,0.0,0.0,0.0,0.0,0.0,0.0,0.0,0.0,0.0,0.0,0.0,0.0,0.0,0.0,0.0,0.0,0.0,0.0,0.0,0.0,0.0,0.0,0.0,0.0,0.0,0.0,-2.65,0.0,0.0,0.0,0.0,0.0,0.0,0.0,0.0,0.0,0.0,0.0,0.0,0.0,0.0,0.0,0.0,0.0,0.0,0.0,0.0,0.0,0.0,0.0,0.0,0.0,0.0,0.0,0.0,0.0,0.0,0.0,0.0,0.0,0.0,0.0,0.0,0.0,0.0,0.0,0.0,0.0,0.0,0.0,0.0,0.0,0.0,0.0,0.0,0.0,0.0,0.0,0.0,0.0,0.0,0.0,0.0,0.0,0.0,0.0,0.0,0.0,0.0,0.0,0.0,0.0,0.0,0.0,0.0,0.0,0.0,0.0,0.0,0.0,0.0,0.0,0.0,0.0,0.0,0.0,0.0,0.0,0.0,0.0,0.0,0.0,0.0,0.0,0.0,0.0,0.0,0.0,0.0,0.0,0.0,0.0,0.0,0.0,0.0,0.0,0.0,0.0,0.0,0.0,0.0,0.0,0.0,0.0,0.0,0.0,0.0,0.0,0.0,0.0,0.0,0.0,0.0,0.0,0.0,0.0,0.0,0.0,0.0,0.0,0.0,0.0,0.0,0.0,0.0,0.0,0.0,0.0,0.0,0.0,0.0,0.0,0.0,0.0,0.0,0.0,0.0,0.0,0.0,0.0,0.0,0.0,0.0,0.0,0.0,0.0,0.0,0.0,0.0,0.0,0.0,0.0,0.0,0.0,0.0,0.0,0.0,0.0,0.0,0.0,0.0,0.0,0.0,0.0,0.0,0.0,0.0,0.0,0.0,0.0,0.0,0.0,0.0,0.0,0.0,0.0,0.0,0.0,0.0,0.0,0.0,0.0,0.0,0.0,0.0,0.0,0.0,0.0,0.0,0.0,0.0,0.0,0.0,0.0,0.0,0.0,0.0,0.0,0.0,0.0,0.0,0.0,0.0,0.0,0.0,0.0,0.0,0.0,0.0,0.0,0.0,0.0,0.0,0.0,0.0,0.0,0.0,0.0,0.0,0.0,0.0,0.0,0.0,0.0,0.0,0.0,0.0,0.0,0.0,0.0,0.0,0.0,0.0,0.0,0.0,0.0,0.0,0.0,0.0,0.0,0.0,0.0,0.0,0.0,0.0,0.0,0.0,0.0,0.0,0.0,0.0,0.0,0.0,0.0,0.0,0.0,0.0,0.0,0.0,0.0,0.0,0.0,0.0,0.0,0.0,0.0,0.0,0.0,0.0,0.0,0.0,0.0,0.0,0.0,0.0,0.0,0.0,0.0,0.0,0.0,0.0,0.0,0.0,0.0,0.0,0.0,0.0,0.0,0.0,0.0,0.0,0.0,0.0,0.0,0.0,0.0,0.0,0.0,0.0,0.0,0.0,0.0,0.0,0.0,0.0,0.0,0.0,0.0,0.0,0.0,0.0,0.0,0.0,0.0,0.0,0.0,0.0,0.0,0.0,0.0,0.0,0.0,0.0,0.0,0.0,0.0,0.0,0.0,0.0,0.0,0.0,0.0,0.0,0.0,0.0,0.0,0.0,0.0,0.0,0.0,0.0,0.0,0.0,0.0,0.0,0.0,0.0,0.0,0.0,0.0,0.0,0.0,0.0,0.0,0.0,0.0,0.0,0.0,0.0,0.0,0.0,0.0,0.0,0.0,0.0,0.0,0.0,0.0,0.0,0.0,0.0,0.0,0.0,0.0,0.0,0.0,0.0,0.0,0.0,0.0,0.0,0.0,0.0,0.0,0.0,0.0,0.0,0.0,0.0,0.0,0.0,0.0,0.0,0.0,0.0,0.0,0.0,0.0,0.0,0.0,0.0,0.0,0.0,0.0,0.0,0.0,0.0,0.0,0.0,0.0,0.0,0.0,0.0,0.0,0.0,0.0,0.0,0.0,0.0,0.0,0.0,0.0,0.0,0.0,0.0,0.0,0.0,0.0,0.0,0.0,0.0,0.0,0.0,0.0,0.0,0.0,0.0,0.0,0.0,0.0,0.0,0.0,0.0,0.0,0.0,0.0,0.0,0.0,0.0,0.0,0.0,0.0,0.0,0.0,0.0,0.0,0.0,0.0,0.0,0.0,0.0,0.0,0.0,0.0,0.0,0.0,0.0,0.0,0.0,0.0,0.0,0.0,0.0,0.0,0.0,0.0,0.0,0.0,0.0,0.0,0.0,0.0,0.0,0.0,0.0,0.0,0.0,0.0,0.0,0.0,0.0,0.0,0.0,0.0,0.0,0.0,0.0,0.0,0.0,0.0,0.0,0.0,0.0,0.0,0.0,0.0,0.0,0.0,0.0,0.0,0.0,0.0,0.0,0.0,0.0,0.0,0.0,0.0,0.0,0.0,0.0,0.0,0.0,0.0,0.0,0.0,0.0,0.0,0.0,0.0,0.0,0.0,0.0,0.0,0.0,0.0,0.0,0.0,0.0,0.0,0.0,0.0,0.0,0.0,0.0,0.0,0.0,0.0,0.0,0.0,0.0,0.0,0.0,0.0,0.0,0.0,0.0,0.0,0.0,0.0,0.0,0.0,0.0,0.0,0.0,0.0,0.0,0.0,0.0,0.0,0.0,0.0,0.0,0.0,0.0,0.0,0.0,0.0,0.0,0.0,0.0,0.0,0.0,0.0,0.0,0.0,0.0,0.0,0.0,0.0,0.0,0.0,0.0,0.0,0.0,0.0,0.0,0.0,0.0,0.0,0.0,0.0,0.0,0.0,0.0,0.0,0.0,0.0,0.0,0.0,0.0,0.0,0.0,0.0,0.0,0.0,0.0,0.0,0.0,0.0,0.0,0.0,0.0,0.0,0.0,0.0,0.0,0.0,0.0,0.0,0.0,0.0,0.0,0.0,0.0,0.0,0.0,0.0,0.0,0.0,0.0,0.0,0.0,0.0,0.0,0.0,0.0,0.0,0.0,0.0,0.0,0.0,0.0,0.0,0.0,0.0,0.0,0.0,0.0,0.0,0.0,0.0,0.0,0.0,0.0,0.0,0.0,0.0,0.0,0.0,0.0,0.0,0.0,0.0,0.0,0.0,0.0,0.0,0.0,0.0,0.0,0.0,0.0,0.0,0.0,0.0,0.0,0.0,0.0,0.0,0.0,0.0,0.0,0.0,0.0,0.0,0.0,0.0,0.0,0.0,0.0,0.0,0.0,0.0,0.0,0.0,0.0,0.0,0.0,0.0,0.0,0.0,0.0,0.0,0.0,0.0,0.0,0.0,0.0,0.0,0.0,0.0,0.0,0.0,0.0,0.0,0.0,0.0,0.0,0.0,0.0,0.0,0.0,0.0,0.0,0.0,0.0,0.0,0.0,0.0,0.0,0.0,0.0,0.0,0.0,0.0,0.0,0.0,0.0,0.0,0.0,0.0,0.0,0.0,0.0,0.0,0.0,0.0,0.0,0.0,0.0,0.0,0.0,0.0,0.0,0.0,0.0,0.0,0.0,0.0,0.0,0.0,0.0,0.0,0.0,0.0,0.0,0.0,0.0,0.0,0.0,0.0,0.0,0.0,0.0,0.0,0.0,0.0,0.0,0.0,0.0,0.0,0.0,0.0,0.0,0.0,0.0,0.0,0.0,0.0,0.0,0.0,0.0,0.0,0.0,0.0,0.0,0.0,0.0,0.0,0.0,0.0,0.0,0.0,0.0,0.0,0.0,0.0,0.0,0.0,0.0,0.0,0.0,0.0,0.0,0.0,0.0,0.0,0.0,0.0,0.0,0.0,0.0,0.0,0.0,0.0,0.0,0.0,0.0,0.0,0.0,0.0,0.0,0.0,0.0,0.0,0.0,0.0,0.0,0.0,0.0,0.0,0.0,0.0,0.0,0.0,0.0,0.0,0.0,0.0,0.0,0.0,0.0,0.0,0.0,0.0,0.0,0.0,0.0,0.0,0.0,0.0,0.0,0.0,0.0,0.0,0.0,0.0,0.0,0.0,0.0,0.0,0.0,0.0,0.0,0.0,0.0,0.0,0.0,0.0,0.0,0.0,0.0,0.0,0.0,0.0,0.0,0.0,0.0,0.0,0.0,0.0,0.0,0.0,0.0,0.0,0.0,0.0,0.0,0.0,0.0,0.0,0.0,0.0,0.0,0.0,0.0,0.0,0.0,0.0,0.0,0.0,0.0,0.0,0.0,0.0,0.0,0.0,0.0,0.0,0.0,0.0,0.0,0.0,0.0,0.0,0.0,0.0,0.0,0.0,0.0,0.0,0.0,0.0,0.0,0.0,0.0,0.0,0.0,0.0,0.0,0.0,0.0,0.0,0.0,0.0,0.0,0.0,0.0,0.0,0.0,0.0,0.0,0.0,0.0,0.0,0.0,0.0,0.0,0.0,0.0,0.0,0.0,0.0,0.0,0.0,0.0,0.0,0.0,0.0,0.0,0.0,0.0,0.0,0.0]}]]]